<?xml version="1.0" encoding="UTF-8" standalone="no" ?>
<gpx xmlns="http://www.topografix.com/GPX/1/1" xmlns:xsi="http://www.w3.org/2001/XMLSchema-instance" xsi:schemaLocation="http://www.topografix.com/GPX/1/1 http://www.topografix.com/GPX/1/1/gpx.xsd" version="1.1" creator="VisuGPX - https://www.visugpx.com">
  <metadata>
    <name>CASSEROUSSE LAC ROBERT</name>
  </metadata>
  <wpt lat="45.13339" lon="5.9167">
    <ele>2014.8</ele>
    <name><![CDATA[Lacs Robert]]></name>
  </wpt>
  <wpt lat="45.12836" lon="5.91933">
    <ele>2102.1</ele>
    <name><![CDATA[Col de Lessines]]></name>
  </wpt>
  <trk>
    <name><![CDATA[Tracé 20211220-091907]]></name>
    <extensions>
      <line xmlns="http://www.topografix.com/GPX/gpx_style/0/2">
        <color>0000FF</color>
        <width>4</width>
      </line>
    </extensions>
    <trkseg>
      <trkpt lat="45.14036" lon="5.88788">
        <ele>1463</ele>
        <time>2021-12-20T08:19:07Z</time>
      </trkpt>
      <trkpt lat="45.14037" lon="5.88785">
        <ele>1458</ele>
        <time>2021-12-20T08:19:09Z</time>
      </trkpt>
      <trkpt lat="45.14036" lon="5.88785">
        <ele>1455</ele>
        <time>2021-12-20T08:19:13Z</time>
      </trkpt>
      <trkpt lat="45.14035" lon="5.88785">
        <ele>1456</ele>
        <time>2021-12-20T08:19:23Z</time>
      </trkpt>
      <trkpt lat="45.14034" lon="5.88788">
        <ele>1459</ele>
        <time>2021-12-20T08:19:29Z</time>
      </trkpt>
      <trkpt lat="45.14034" lon="5.88789">
        <ele>1462</ele>
        <time>2021-12-20T08:19:37Z</time>
      </trkpt>
      <trkpt lat="45.14034" lon="5.8879">
        <ele>1462</ele>
        <time>2021-12-20T08:19:39Z</time>
      </trkpt>
      <trkpt lat="45.14035" lon="5.8879">
        <ele>1464</ele>
        <time>2021-12-20T08:20:45Z</time>
      </trkpt>
      <trkpt lat="45.14035" lon="5.88791">
        <ele>1465</ele>
        <time>2021-12-20T08:20:47Z</time>
      </trkpt>
      <trkpt lat="45.14034" lon="5.8879">
        <ele>1466</ele>
        <time>2021-12-20T08:21:11Z</time>
      </trkpt>
      <trkpt lat="45.14034" lon="5.88789">
        <ele>1467</ele>
        <time>2021-12-20T08:21:19Z</time>
      </trkpt>
      <trkpt lat="45.14034" lon="5.88788">
        <ele>1468</ele>
        <time>2021-12-20T08:22:29Z</time>
      </trkpt>
      <trkpt lat="45.14029" lon="5.88784">
        <ele>1468</ele>
        <time>2021-12-20T08:22:39Z</time>
      </trkpt>
      <trkpt lat="45.14023" lon="5.8878">
        <ele>1468</ele>
        <time>2021-12-20T08:22:45Z</time>
      </trkpt>
      <trkpt lat="45.14019" lon="5.88776">
        <ele>1468</ele>
        <time>2021-12-20T08:22:51Z</time>
      </trkpt>
      <trkpt lat="45.14013" lon="5.88772">
        <ele>1468</ele>
        <time>2021-12-20T08:22:57Z</time>
      </trkpt>
      <trkpt lat="45.14009" lon="5.88768">
        <ele>1468</ele>
        <time>2021-12-20T08:23:05Z</time>
      </trkpt>
      <trkpt lat="45.14005" lon="5.88764">
        <ele>1467</ele>
        <time>2021-12-20T08:23:09Z</time>
      </trkpt>
      <trkpt lat="45.14001" lon="5.88759">
        <ele>1469</ele>
        <time>2021-12-20T08:23:17Z</time>
      </trkpt>
      <trkpt lat="45.13997" lon="5.88755">
        <ele>1469</ele>
        <time>2021-12-20T08:23:23Z</time>
      </trkpt>
      <trkpt lat="45.13991" lon="5.8875">
        <ele>1472</ele>
        <time>2021-12-20T08:23:41Z</time>
      </trkpt>
      <trkpt lat="45.13987" lon="5.88748">
        <ele>1472</ele>
        <time>2021-12-20T08:23:45Z</time>
      </trkpt>
      <trkpt lat="45.1398" lon="5.88747">
        <ele>1473</ele>
        <time>2021-12-20T08:23:51Z</time>
      </trkpt>
      <trkpt lat="45.13976" lon="5.88746">
        <ele>1475</ele>
        <time>2021-12-20T08:23:59Z</time>
      </trkpt>
      <trkpt lat="45.1397" lon="5.88746">
        <ele>1477</ele>
        <time>2021-12-20T08:24:07Z</time>
      </trkpt>
      <trkpt lat="45.13966" lon="5.88747">
        <ele>1476</ele>
        <time>2021-12-20T08:24:15Z</time>
      </trkpt>
      <trkpt lat="45.13961" lon="5.88747">
        <ele>1477</ele>
        <time>2021-12-20T08:24:25Z</time>
      </trkpt>
      <trkpt lat="45.13956" lon="5.88748">
        <ele>1478</ele>
        <time>2021-12-20T08:24:31Z</time>
      </trkpt>
      <trkpt lat="45.13951" lon="5.88748">
        <ele>1478</ele>
        <time>2021-12-20T08:24:37Z</time>
      </trkpt>
      <trkpt lat="45.13948" lon="5.88749">
        <ele>1479</ele>
        <time>2021-12-20T08:24:41Z</time>
      </trkpt>
      <trkpt lat="45.13947" lon="5.88749">
        <ele>1479</ele>
        <time>2021-12-20T08:24:43Z</time>
      </trkpt>
      <trkpt lat="45.13946" lon="5.88749">
        <ele>1480</ele>
        <time>2021-12-20T08:24:47Z</time>
      </trkpt>
      <trkpt lat="45.1394" lon="5.8875">
        <ele>1482</ele>
        <time>2021-12-20T08:24:55Z</time>
      </trkpt>
      <trkpt lat="45.13935" lon="5.8875">
        <ele>1481</ele>
        <time>2021-12-20T08:25:03Z</time>
      </trkpt>
      <trkpt lat="45.13934" lon="5.88749">
        <ele>1481</ele>
        <time>2021-12-20T08:25:05Z</time>
      </trkpt>
      <trkpt lat="45.13933" lon="5.88748">
        <ele>1482</ele>
        <time>2021-12-20T08:25:07Z</time>
      </trkpt>
      <trkpt lat="45.13928" lon="5.88747">
        <ele>1482</ele>
        <time>2021-12-20T08:25:15Z</time>
      </trkpt>
      <trkpt lat="45.13924" lon="5.88747">
        <ele>1485</ele>
        <time>2021-12-20T08:25:23Z</time>
      </trkpt>
      <trkpt lat="45.13919" lon="5.88746">
        <ele>1487</ele>
        <time>2021-12-20T08:25:33Z</time>
      </trkpt>
      <trkpt lat="45.13915" lon="5.88749">
        <ele>1488</ele>
        <time>2021-12-20T08:25:41Z</time>
      </trkpt>
      <trkpt lat="45.1391" lon="5.88747">
        <ele>1488</ele>
        <time>2021-12-20T08:25:49Z</time>
      </trkpt>
      <trkpt lat="45.13905" lon="5.88747">
        <ele>1491</ele>
        <time>2021-12-20T08:25:57Z</time>
      </trkpt>
      <trkpt lat="45.139" lon="5.88749">
        <ele>1494</ele>
        <time>2021-12-20T08:26:05Z</time>
      </trkpt>
      <trkpt lat="45.13894" lon="5.88748">
        <ele>1495</ele>
        <time>2021-12-20T08:26:13Z</time>
      </trkpt>
      <trkpt lat="45.13893" lon="5.88747">
        <ele>1496</ele>
        <time>2021-12-20T08:26:15Z</time>
      </trkpt>
      <trkpt lat="45.13892" lon="5.88747">
        <ele>1496</ele>
        <time>2021-12-20T08:26:17Z</time>
      </trkpt>
      <trkpt lat="45.13891" lon="5.88747">
        <ele>1497</ele>
        <time>2021-12-20T08:26:19Z</time>
      </trkpt>
      <trkpt lat="45.1389" lon="5.88746">
        <ele>1498</ele>
        <time>2021-12-20T08:26:21Z</time>
      </trkpt>
      <trkpt lat="45.13889" lon="5.88746">
        <ele>1498</ele>
        <time>2021-12-20T08:26:23Z</time>
      </trkpt>
      <trkpt lat="45.13889" lon="5.88748">
        <ele>1498</ele>
        <time>2021-12-20T08:26:25Z</time>
      </trkpt>
      <trkpt lat="45.13884" lon="5.88749">
        <ele>1498</ele>
        <time>2021-12-20T08:26:35Z</time>
      </trkpt>
      <trkpt lat="45.13878" lon="5.88749">
        <ele>1499</ele>
        <time>2021-12-20T08:26:43Z</time>
      </trkpt>
      <trkpt lat="45.13873" lon="5.88749">
        <ele>1502</ele>
        <time>2021-12-20T08:26:51Z</time>
      </trkpt>
      <trkpt lat="45.13869" lon="5.88752">
        <ele>1505</ele>
        <time>2021-12-20T08:27:01Z</time>
      </trkpt>
      <trkpt lat="45.13868" lon="5.88752">
        <ele>1506</ele>
        <time>2021-12-20T08:27:03Z</time>
      </trkpt>
      <trkpt lat="45.13866" lon="5.88752">
        <ele>1505</ele>
        <time>2021-12-20T08:27:05Z</time>
      </trkpt>
      <trkpt lat="45.13866" lon="5.88751">
        <ele>1505</ele>
        <time>2021-12-20T08:27:07Z</time>
      </trkpt>
      <trkpt lat="45.13862" lon="5.88751">
        <ele>1508</ele>
        <time>2021-12-20T08:27:15Z</time>
      </trkpt>
      <trkpt lat="45.1386" lon="5.88751">
        <ele>1508</ele>
        <time>2021-12-20T08:27:17Z</time>
      </trkpt>
      <trkpt lat="45.13859" lon="5.8875">
        <ele>1510</ele>
        <time>2021-12-20T08:27:19Z</time>
      </trkpt>
      <trkpt lat="45.13854" lon="5.8875">
        <ele>1509</ele>
        <time>2021-12-20T08:27:27Z</time>
      </trkpt>
      <trkpt lat="45.13849" lon="5.88751">
        <ele>1511</ele>
        <time>2021-12-20T08:27:35Z</time>
      </trkpt>
      <trkpt lat="45.13846" lon="5.88751">
        <ele>1511</ele>
        <time>2021-12-20T08:27:41Z</time>
      </trkpt>
      <trkpt lat="45.13845" lon="5.88751">
        <ele>1511</ele>
        <time>2021-12-20T08:27:43Z</time>
      </trkpt>
      <trkpt lat="45.13843" lon="5.88752">
        <ele>1512</ele>
        <time>2021-12-20T08:27:45Z</time>
      </trkpt>
      <trkpt lat="45.13838" lon="5.88752">
        <ele>1513</ele>
        <time>2021-12-20T08:27:53Z</time>
      </trkpt>
      <trkpt lat="45.13833" lon="5.88754">
        <ele>1515</ele>
        <time>2021-12-20T08:28:01Z</time>
      </trkpt>
      <trkpt lat="45.13828" lon="5.88753">
        <ele>1516</ele>
        <time>2021-12-20T08:28:09Z</time>
      </trkpt>
      <trkpt lat="45.13827" lon="5.88754">
        <ele>1517</ele>
        <time>2021-12-20T08:28:11Z</time>
      </trkpt>
      <trkpt lat="45.13826" lon="5.88753">
        <ele>1517</ele>
        <time>2021-12-20T08:28:13Z</time>
      </trkpt>
      <trkpt lat="45.13824" lon="5.88753">
        <ele>1517</ele>
        <time>2021-12-20T08:28:17Z</time>
      </trkpt>
      <trkpt lat="45.13818" lon="5.88752">
        <ele>1517</ele>
        <time>2021-12-20T08:28:23Z</time>
      </trkpt>
      <trkpt lat="45.13813" lon="5.88751">
        <ele>1519</ele>
        <time>2021-12-20T08:28:31Z</time>
      </trkpt>
      <trkpt lat="45.13807" lon="5.88751">
        <ele>1520</ele>
        <time>2021-12-20T08:28:39Z</time>
      </trkpt>
      <trkpt lat="45.13802" lon="5.88754">
        <ele>1522</ele>
        <time>2021-12-20T08:28:47Z</time>
      </trkpt>
      <trkpt lat="45.13796" lon="5.88752">
        <ele>1522</ele>
        <time>2021-12-20T08:28:55Z</time>
      </trkpt>
      <trkpt lat="45.13793" lon="5.88758">
        <ele>1522</ele>
        <time>2021-12-20T08:29:05Z</time>
      </trkpt>
      <trkpt lat="45.13794" lon="5.88762">
        <ele>1522</ele>
        <time>2021-12-20T08:29:07Z</time>
      </trkpt>
      <trkpt lat="45.13794" lon="5.88763">
        <ele>1522</ele>
        <time>2021-12-20T08:29:09Z</time>
      </trkpt>
      <trkpt lat="45.13794" lon="5.88765">
        <ele>1522</ele>
        <time>2021-12-20T08:29:11Z</time>
      </trkpt>
      <trkpt lat="45.1379" lon="5.88771">
        <ele>1521</ele>
        <time>2021-12-20T08:29:19Z</time>
      </trkpt>
      <trkpt lat="45.13784" lon="5.8877">
        <ele>1522</ele>
        <time>2021-12-20T08:29:30Z</time>
      </trkpt>
      <trkpt lat="45.13779" lon="5.8877">
        <ele>1525</ele>
        <time>2021-12-20T08:29:42Z</time>
      </trkpt>
      <trkpt lat="45.13775" lon="5.88774">
        <ele>1525</ele>
        <time>2021-12-20T08:29:52Z</time>
      </trkpt>
      <trkpt lat="45.13771" lon="5.88769">
        <ele>1525</ele>
        <time>2021-12-20T08:30:00Z</time>
      </trkpt>
      <trkpt lat="45.13769" lon="5.88765">
        <ele>1529</ele>
        <time>2021-12-20T08:30:10Z</time>
      </trkpt>
      <trkpt lat="45.13768" lon="5.88766">
        <ele>1530</ele>
        <time>2021-12-20T08:30:12Z</time>
      </trkpt>
      <trkpt lat="45.13767" lon="5.88769">
        <ele>1530</ele>
        <time>2021-12-20T08:30:16Z</time>
      </trkpt>
      <trkpt lat="45.13764" lon="5.88776">
        <ele>1533</ele>
        <time>2021-12-20T08:30:26Z</time>
      </trkpt>
      <trkpt lat="45.1376" lon="5.88772">
        <ele>1531</ele>
        <time>2021-12-20T08:30:34Z</time>
      </trkpt>
      <trkpt lat="45.13759" lon="5.88772">
        <ele>1532</ele>
        <time>2021-12-20T08:30:36Z</time>
      </trkpt>
      <trkpt lat="45.13758" lon="5.88771">
        <ele>1532</ele>
        <time>2021-12-20T08:30:40Z</time>
      </trkpt>
      <trkpt lat="45.13754" lon="5.88766">
        <ele>1533</ele>
        <time>2021-12-20T08:30:50Z</time>
      </trkpt>
      <trkpt lat="45.13751" lon="5.88771">
        <ele>1535</ele>
        <time>2021-12-20T08:31:02Z</time>
      </trkpt>
      <trkpt lat="45.13747" lon="5.88775">
        <ele>1536</ele>
        <time>2021-12-20T08:31:12Z</time>
      </trkpt>
      <trkpt lat="45.13743" lon="5.88769">
        <ele>1540</ele>
        <time>2021-12-20T08:31:24Z</time>
      </trkpt>
      <trkpt lat="45.13739" lon="5.88771">
        <ele>1543</ele>
        <time>2021-12-20T08:31:36Z</time>
      </trkpt>
      <trkpt lat="45.13734" lon="5.88768">
        <ele>1544</ele>
        <time>2021-12-20T08:31:46Z</time>
      </trkpt>
      <trkpt lat="45.13729" lon="5.88766">
        <ele>1546</ele>
        <time>2021-12-20T08:31:54Z</time>
      </trkpt>
      <trkpt lat="45.13727" lon="5.88766">
        <ele>1546</ele>
        <time>2021-12-20T08:31:56Z</time>
      </trkpt>
      <trkpt lat="45.13727" lon="5.88768">
        <ele>1547</ele>
        <time>2021-12-20T08:31:58Z</time>
      </trkpt>
      <trkpt lat="45.13725" lon="5.88768">
        <ele>1546</ele>
        <time>2021-12-20T08:32:04Z</time>
      </trkpt>
      <trkpt lat="45.1372" lon="5.88766">
        <ele>1547</ele>
        <time>2021-12-20T08:32:14Z</time>
      </trkpt>
      <trkpt lat="45.13715" lon="5.88768">
        <ele>1550</ele>
        <time>2021-12-20T08:32:22Z</time>
      </trkpt>
      <trkpt lat="45.1371" lon="5.88772">
        <ele>1553</ele>
        <time>2021-12-20T08:32:34Z</time>
      </trkpt>
      <trkpt lat="45.13711" lon="5.88773">
        <ele>1553</ele>
        <time>2021-12-20T08:32:40Z</time>
      </trkpt>
      <trkpt lat="45.13711" lon="5.88772">
        <ele>1554</ele>
        <time>2021-12-20T08:32:44Z</time>
      </trkpt>
      <trkpt lat="45.13711" lon="5.88774">
        <ele>1555</ele>
        <time>2021-12-20T08:32:48Z</time>
      </trkpt>
      <trkpt lat="45.13711" lon="5.88773">
        <ele>1554</ele>
        <time>2021-12-20T08:32:50Z</time>
      </trkpt>
      <trkpt lat="45.13712" lon="5.88773">
        <ele>1554</ele>
        <time>2021-12-20T08:32:56Z</time>
      </trkpt>
      <trkpt lat="45.13711" lon="5.88773">
        <ele>1553</ele>
        <time>2021-12-20T08:32:58Z</time>
      </trkpt>
      <trkpt lat="45.13712" lon="5.88773">
        <ele>1553</ele>
        <time>2021-12-20T08:33:00Z</time>
      </trkpt>
      <trkpt lat="45.13713" lon="5.88773">
        <ele>1552</ele>
        <time>2021-12-20T08:33:32Z</time>
      </trkpt>
      <trkpt lat="45.13712" lon="5.88772">
        <ele>1551</ele>
        <time>2021-12-20T08:33:36Z</time>
      </trkpt>
      <trkpt lat="45.13712" lon="5.88771">
        <ele>1552</ele>
        <time>2021-12-20T08:33:38Z</time>
      </trkpt>
      <trkpt lat="45.13711" lon="5.88771">
        <ele>1552</ele>
        <time>2021-12-20T08:33:42Z</time>
      </trkpt>
      <trkpt lat="45.13711" lon="5.88772">
        <ele>1553</ele>
        <time>2021-12-20T08:34:02Z</time>
      </trkpt>
      <trkpt lat="45.13711" lon="5.88768">
        <ele>1553</ele>
        <time>2021-12-20T08:34:06Z</time>
      </trkpt>
      <trkpt lat="45.1371" lon="5.88769">
        <ele>1553</ele>
        <time>2021-12-20T08:34:08Z</time>
      </trkpt>
      <trkpt lat="45.13707" lon="5.88769">
        <ele>1553</ele>
        <time>2021-12-20T08:34:12Z</time>
      </trkpt>
      <trkpt lat="45.13702" lon="5.88769">
        <ele>1556</ele>
        <time>2021-12-20T08:34:20Z</time>
      </trkpt>
      <trkpt lat="45.13697" lon="5.88768">
        <ele>1558</ele>
        <time>2021-12-20T08:34:28Z</time>
      </trkpt>
      <trkpt lat="45.13692" lon="5.88768">
        <ele>1561</ele>
        <time>2021-12-20T08:34:36Z</time>
      </trkpt>
      <trkpt lat="45.13687" lon="5.88767">
        <ele>1562</ele>
        <time>2021-12-20T08:34:44Z</time>
      </trkpt>
      <trkpt lat="45.13682" lon="5.88767">
        <ele>1563</ele>
        <time>2021-12-20T08:34:50Z</time>
      </trkpt>
      <trkpt lat="45.13678" lon="5.88765">
        <ele>1566</ele>
        <time>2021-12-20T08:34:58Z</time>
      </trkpt>
      <trkpt lat="45.13671" lon="5.88763">
        <ele>1567</ele>
        <time>2021-12-20T08:35:08Z</time>
      </trkpt>
      <trkpt lat="45.13669" lon="5.88762">
        <ele>1569</ele>
        <time>2021-12-20T08:35:12Z</time>
      </trkpt>
      <trkpt lat="45.13668" lon="5.88762">
        <ele>1569</ele>
        <time>2021-12-20T08:35:14Z</time>
      </trkpt>
      <trkpt lat="45.13667" lon="5.88762">
        <ele>1569</ele>
        <time>2021-12-20T08:35:16Z</time>
      </trkpt>
      <trkpt lat="45.13666" lon="5.88763">
        <ele>1569</ele>
        <time>2021-12-20T08:35:18Z</time>
      </trkpt>
      <trkpt lat="45.13663" lon="5.88763">
        <ele>1568</ele>
        <time>2021-12-20T08:35:22Z</time>
      </trkpt>
      <trkpt lat="45.13658" lon="5.88763">
        <ele>1571</ele>
        <time>2021-12-20T08:35:30Z</time>
      </trkpt>
      <trkpt lat="45.13654" lon="5.88764">
        <ele>1574</ele>
        <time>2021-12-20T08:35:40Z</time>
      </trkpt>
      <trkpt lat="45.13649" lon="5.88764">
        <ele>1575</ele>
        <time>2021-12-20T08:35:48Z</time>
      </trkpt>
      <trkpt lat="45.13645" lon="5.88765">
        <ele>1576</ele>
        <time>2021-12-20T08:35:54Z</time>
      </trkpt>
      <trkpt lat="45.13645" lon="5.88766">
        <ele>1576</ele>
        <time>2021-12-20T08:35:56Z</time>
      </trkpt>
      <trkpt lat="45.13644" lon="5.88766">
        <ele>1576</ele>
        <time>2021-12-20T08:35:58Z</time>
      </trkpt>
      <trkpt lat="45.13639" lon="5.88766">
        <ele>1575</ele>
        <time>2021-12-20T08:36:06Z</time>
      </trkpt>
      <trkpt lat="45.13637" lon="5.88767">
        <ele>1575</ele>
        <time>2021-12-20T08:36:08Z</time>
      </trkpt>
      <trkpt lat="45.13636" lon="5.88767">
        <ele>1574</ele>
        <time>2021-12-20T08:36:10Z</time>
      </trkpt>
      <trkpt lat="45.13635" lon="5.88768">
        <ele>1574</ele>
        <time>2021-12-20T08:36:12Z</time>
      </trkpt>
      <trkpt lat="45.1363" lon="5.88768">
        <ele>1575</ele>
        <time>2021-12-20T08:36:22Z</time>
      </trkpt>
      <trkpt lat="45.13626" lon="5.88768">
        <ele>1576</ele>
        <time>2021-12-20T08:36:28Z</time>
      </trkpt>
      <trkpt lat="45.13625" lon="5.8877">
        <ele>1575</ele>
        <time>2021-12-20T08:36:30Z</time>
      </trkpt>
      <trkpt lat="45.13625" lon="5.88771">
        <ele>1575</ele>
        <time>2021-12-20T08:36:32Z</time>
      </trkpt>
      <trkpt lat="45.1362" lon="5.88772">
        <ele>1577</ele>
        <time>2021-12-20T08:36:40Z</time>
      </trkpt>
      <trkpt lat="45.1362" lon="5.88773">
        <ele>1577</ele>
        <time>2021-12-20T08:36:42Z</time>
      </trkpt>
      <trkpt lat="45.13617" lon="5.88772">
        <ele>1577</ele>
        <time>2021-12-20T08:36:46Z</time>
      </trkpt>
      <trkpt lat="45.13612" lon="5.88773">
        <ele>1581</ele>
        <time>2021-12-20T08:36:56Z</time>
      </trkpt>
      <trkpt lat="45.13607" lon="5.88772">
        <ele>1581</ele>
        <time>2021-12-20T08:37:07Z</time>
      </trkpt>
      <trkpt lat="45.13603" lon="5.88771">
        <ele>1583</ele>
        <time>2021-12-20T08:37:13Z</time>
      </trkpt>
      <trkpt lat="45.13602" lon="5.88771">
        <ele>1582</ele>
        <time>2021-12-20T08:37:15Z</time>
      </trkpt>
      <trkpt lat="45.136" lon="5.88772">
        <ele>1584</ele>
        <time>2021-12-20T08:37:19Z</time>
      </trkpt>
      <trkpt lat="45.13599" lon="5.88771">
        <ele>1585</ele>
        <time>2021-12-20T08:37:21Z</time>
      </trkpt>
      <trkpt lat="45.13597" lon="5.88772">
        <ele>1585</ele>
        <time>2021-12-20T08:37:25Z</time>
      </trkpt>
      <trkpt lat="45.13596" lon="5.88772">
        <ele>1585</ele>
        <time>2021-12-20T08:37:27Z</time>
      </trkpt>
      <trkpt lat="45.13595" lon="5.88773">
        <ele>1585</ele>
        <time>2021-12-20T08:37:29Z</time>
      </trkpt>
      <trkpt lat="45.13594" lon="5.88772">
        <ele>1585</ele>
        <time>2021-12-20T08:37:31Z</time>
      </trkpt>
      <trkpt lat="45.13589" lon="5.88772">
        <ele>1588</ele>
        <time>2021-12-20T08:37:40Z</time>
      </trkpt>
      <trkpt lat="45.13587" lon="5.88773">
        <ele>1589</ele>
        <time>2021-12-20T08:37:44Z</time>
      </trkpt>
      <trkpt lat="45.13587" lon="5.88772">
        <ele>1589</ele>
        <time>2021-12-20T08:37:46Z</time>
      </trkpt>
      <trkpt lat="45.13586" lon="5.88772">
        <ele>1589</ele>
        <time>2021-12-20T08:37:48Z</time>
      </trkpt>
      <trkpt lat="45.13584" lon="5.88773">
        <ele>1589</ele>
        <time>2021-12-20T08:37:50Z</time>
      </trkpt>
      <trkpt lat="45.13579" lon="5.88771">
        <ele>1590</ele>
        <time>2021-12-20T08:37:58Z</time>
      </trkpt>
      <trkpt lat="45.13576" lon="5.88772">
        <ele>1594</ele>
        <time>2021-12-20T08:38:06Z</time>
      </trkpt>
      <trkpt lat="45.13575" lon="5.88772">
        <ele>1594</ele>
        <time>2021-12-20T08:38:08Z</time>
      </trkpt>
      <trkpt lat="45.13573" lon="5.88772">
        <ele>1594</ele>
        <time>2021-12-20T08:38:12Z</time>
      </trkpt>
      <trkpt lat="45.13572" lon="5.88772">
        <ele>1594</ele>
        <time>2021-12-20T08:38:14Z</time>
      </trkpt>
      <trkpt lat="45.1357" lon="5.88772">
        <ele>1594</ele>
        <time>2021-12-20T08:38:16Z</time>
      </trkpt>
      <trkpt lat="45.13569" lon="5.88772">
        <ele>1594</ele>
        <time>2021-12-20T08:38:18Z</time>
      </trkpt>
      <trkpt lat="45.13568" lon="5.88771">
        <ele>1595</ele>
        <time>2021-12-20T08:38:22Z</time>
      </trkpt>
      <trkpt lat="45.13563" lon="5.88772">
        <ele>1597</ele>
        <time>2021-12-20T08:38:32Z</time>
      </trkpt>
      <trkpt lat="45.13559" lon="5.88769">
        <ele>1599</ele>
        <time>2021-12-20T08:38:40Z</time>
      </trkpt>
      <trkpt lat="45.13554" lon="5.8877">
        <ele>1604</ele>
        <time>2021-12-20T08:38:52Z</time>
      </trkpt>
      <trkpt lat="45.13552" lon="5.88769">
        <ele>1603</ele>
        <time>2021-12-20T08:38:56Z</time>
      </trkpt>
      <trkpt lat="45.13551" lon="5.8877">
        <ele>1603</ele>
        <time>2021-12-20T08:39:00Z</time>
      </trkpt>
      <trkpt lat="45.13545" lon="5.88771">
        <ele>1601</ele>
        <time>2021-12-20T08:39:12Z</time>
      </trkpt>
      <trkpt lat="45.1354" lon="5.88771">
        <ele>1604</ele>
        <time>2021-12-20T08:39:22Z</time>
      </trkpt>
      <trkpt lat="45.13534" lon="5.88771">
        <ele>1608</ele>
        <time>2021-12-20T08:39:34Z</time>
      </trkpt>
      <trkpt lat="45.1353" lon="5.88772">
        <ele>1610</ele>
        <time>2021-12-20T08:39:42Z</time>
      </trkpt>
      <trkpt lat="45.13525" lon="5.88775">
        <ele>1608</ele>
        <time>2021-12-20T08:39:52Z</time>
      </trkpt>
      <trkpt lat="45.13523" lon="5.88769">
        <ele>1612</ele>
        <time>2021-12-20T08:40:14Z</time>
      </trkpt>
      <trkpt lat="45.13522" lon="5.88761">
        <ele>1610</ele>
        <time>2021-12-20T08:40:22Z</time>
      </trkpt>
      <trkpt lat="45.13518" lon="5.88759">
        <ele>1611</ele>
        <time>2021-12-20T08:40:30Z</time>
      </trkpt>
      <trkpt lat="45.13516" lon="5.88759">
        <ele>1611</ele>
        <time>2021-12-20T08:40:32Z</time>
      </trkpt>
      <trkpt lat="45.13515" lon="5.88758">
        <ele>1611</ele>
        <time>2021-12-20T08:40:34Z</time>
      </trkpt>
      <trkpt lat="45.1351" lon="5.88759">
        <ele>1616</ele>
        <time>2021-12-20T08:40:44Z</time>
      </trkpt>
      <trkpt lat="45.13505" lon="5.88758">
        <ele>1618</ele>
        <time>2021-12-20T08:40:54Z</time>
      </trkpt>
      <trkpt lat="45.135" lon="5.88757">
        <ele>1618</ele>
        <time>2021-12-20T08:41:02Z</time>
      </trkpt>
      <trkpt lat="45.13499" lon="5.88756">
        <ele>1619</ele>
        <time>2021-12-20T08:41:04Z</time>
      </trkpt>
      <trkpt lat="45.13498" lon="5.88756">
        <ele>1619</ele>
        <time>2021-12-20T08:41:06Z</time>
      </trkpt>
      <trkpt lat="45.13493" lon="5.88755">
        <ele>1622</ele>
        <time>2021-12-20T08:41:14Z</time>
      </trkpt>
      <trkpt lat="45.13491" lon="5.88755">
        <ele>1622</ele>
        <time>2021-12-20T08:41:20Z</time>
      </trkpt>
      <trkpt lat="45.13489" lon="5.88755">
        <ele>1622</ele>
        <time>2021-12-20T08:41:22Z</time>
      </trkpt>
      <trkpt lat="45.13487" lon="5.88755">
        <ele>1622</ele>
        <time>2021-12-20T08:41:26Z</time>
      </trkpt>
      <trkpt lat="45.13482" lon="5.88755">
        <ele>1623</ele>
        <time>2021-12-20T08:41:32Z</time>
      </trkpt>
      <trkpt lat="45.13477" lon="5.88754">
        <ele>1625</ele>
        <time>2021-12-20T08:41:40Z</time>
      </trkpt>
      <trkpt lat="45.13473" lon="5.88753">
        <ele>1627</ele>
        <time>2021-12-20T08:41:48Z</time>
      </trkpt>
      <trkpt lat="45.13469" lon="5.88752">
        <ele>1631</ele>
        <time>2021-12-20T08:41:56Z</time>
      </trkpt>
      <trkpt lat="45.13468" lon="5.88753">
        <ele>1631</ele>
        <time>2021-12-20T08:41:58Z</time>
      </trkpt>
      <trkpt lat="45.13465" lon="5.88752">
        <ele>1630</ele>
        <time>2021-12-20T08:42:04Z</time>
      </trkpt>
      <trkpt lat="45.13461" lon="5.88751">
        <ele>1630</ele>
        <time>2021-12-20T08:42:12Z</time>
      </trkpt>
      <trkpt lat="45.13455" lon="5.88751">
        <ele>1632</ele>
        <time>2021-12-20T08:42:26Z</time>
      </trkpt>
      <trkpt lat="45.13451" lon="5.88748">
        <ele>1631</ele>
        <time>2021-12-20T08:42:36Z</time>
      </trkpt>
      <trkpt lat="45.13446" lon="5.88751">
        <ele>1632</ele>
        <time>2021-12-20T08:42:42Z</time>
      </trkpt>
      <trkpt lat="45.13441" lon="5.88749">
        <ele>1633</ele>
        <time>2021-12-20T08:42:54Z</time>
      </trkpt>
      <trkpt lat="45.13436" lon="5.88748">
        <ele>1635</ele>
        <time>2021-12-20T08:43:08Z</time>
      </trkpt>
      <trkpt lat="45.13433" lon="5.88748">
        <ele>1636</ele>
        <time>2021-12-20T08:43:16Z</time>
      </trkpt>
      <trkpt lat="45.13432" lon="5.88748">
        <ele>1638</ele>
        <time>2021-12-20T08:43:20Z</time>
      </trkpt>
      <trkpt lat="45.1343" lon="5.8875">
        <ele>1638</ele>
        <time>2021-12-20T08:43:24Z</time>
      </trkpt>
      <trkpt lat="45.1343" lon="5.88749">
        <ele>1639</ele>
        <time>2021-12-20T08:43:26Z</time>
      </trkpt>
      <trkpt lat="45.13429" lon="5.88749">
        <ele>1638</ele>
        <time>2021-12-20T08:43:28Z</time>
      </trkpt>
      <trkpt lat="45.13424" lon="5.88747">
        <ele>1639</ele>
        <time>2021-12-20T08:43:40Z</time>
      </trkpt>
      <trkpt lat="45.13419" lon="5.88748">
        <ele>1642</ele>
        <time>2021-12-20T08:43:52Z</time>
      </trkpt>
      <trkpt lat="45.13413" lon="5.88749">
        <ele>1645</ele>
        <time>2021-12-20T08:44:02Z</time>
      </trkpt>
      <trkpt lat="45.13408" lon="5.88748">
        <ele>1646</ele>
        <time>2021-12-20T08:44:16Z</time>
      </trkpt>
      <trkpt lat="45.13403" lon="5.88747">
        <ele>1649</ele>
        <time>2021-12-20T08:44:30Z</time>
      </trkpt>
      <trkpt lat="45.13397" lon="5.88748">
        <ele>1648</ele>
        <time>2021-12-20T08:44:38Z</time>
      </trkpt>
      <trkpt lat="45.13391" lon="5.88749">
        <ele>1653</ele>
        <time>2021-12-20T08:44:52Z</time>
      </trkpt>
      <trkpt lat="45.13386" lon="5.88748">
        <ele>1656</ele>
        <time>2021-12-20T08:45:12Z</time>
      </trkpt>
      <trkpt lat="45.13381" lon="5.88746">
        <ele>1658</ele>
        <time>2021-12-20T08:45:22Z</time>
      </trkpt>
      <trkpt lat="45.13377" lon="5.88749">
        <ele>1659</ele>
        <time>2021-12-20T08:45:32Z</time>
      </trkpt>
      <trkpt lat="45.13373" lon="5.8875">
        <ele>1666</ele>
        <time>2021-12-20T08:45:48Z</time>
      </trkpt>
      <trkpt lat="45.13372" lon="5.8875">
        <ele>1666</ele>
        <time>2021-12-20T08:45:50Z</time>
      </trkpt>
      <trkpt lat="45.13371" lon="5.8875">
        <ele>1667</ele>
        <time>2021-12-20T08:45:52Z</time>
      </trkpt>
      <trkpt lat="45.13369" lon="5.88751">
        <ele>1668</ele>
        <time>2021-12-20T08:45:54Z</time>
      </trkpt>
      <trkpt lat="45.13368" lon="5.88752">
        <ele>1666</ele>
        <time>2021-12-20T08:45:56Z</time>
      </trkpt>
      <trkpt lat="45.13366" lon="5.88753">
        <ele>1666</ele>
        <time>2021-12-20T08:46:00Z</time>
      </trkpt>
      <trkpt lat="45.13365" lon="5.88753">
        <ele>1666</ele>
        <time>2021-12-20T08:46:02Z</time>
      </trkpt>
      <trkpt lat="45.13364" lon="5.88753">
        <ele>1666</ele>
        <time>2021-12-20T08:46:04Z</time>
      </trkpt>
      <trkpt lat="45.13362" lon="5.88755">
        <ele>1668</ele>
        <time>2021-12-20T08:46:12Z</time>
      </trkpt>
      <trkpt lat="45.13361" lon="5.88755">
        <ele>1668</ele>
        <time>2021-12-20T08:46:14Z</time>
      </trkpt>
      <trkpt lat="45.13358" lon="5.88755">
        <ele>1669</ele>
        <time>2021-12-20T08:46:22Z</time>
      </trkpt>
      <trkpt lat="45.13353" lon="5.88753">
        <ele>1672</ele>
        <time>2021-12-20T08:46:32Z</time>
      </trkpt>
      <trkpt lat="45.13348" lon="5.88754">
        <ele>1675</ele>
        <time>2021-12-20T08:46:42Z</time>
      </trkpt>
      <trkpt lat="45.13343" lon="5.88752">
        <ele>1675</ele>
        <time>2021-12-20T08:46:50Z</time>
      </trkpt>
      <trkpt lat="45.13339" lon="5.8875">
        <ele>1675</ele>
        <time>2021-12-20T08:46:58Z</time>
      </trkpt>
      <trkpt lat="45.13335" lon="5.88754">
        <ele>1675</ele>
        <time>2021-12-20T08:47:10Z</time>
      </trkpt>
      <trkpt lat="45.13334" lon="5.88754">
        <ele>1675</ele>
        <time>2021-12-20T08:47:12Z</time>
      </trkpt>
      <trkpt lat="45.13334" lon="5.88756">
        <ele>1673</ele>
        <time>2021-12-20T08:47:32Z</time>
      </trkpt>
      <trkpt lat="45.13335" lon="5.88757">
        <ele>1674</ele>
        <time>2021-12-20T08:47:34Z</time>
      </trkpt>
      <trkpt lat="45.13335" lon="5.88758">
        <ele>1675</ele>
        <time>2021-12-20T08:47:36Z</time>
      </trkpt>
      <trkpt lat="45.13334" lon="5.88757">
        <ele>1676</ele>
        <time>2021-12-20T08:47:56Z</time>
      </trkpt>
      <trkpt lat="45.13333" lon="5.88757">
        <ele>1676</ele>
        <time>2021-12-20T08:48:02Z</time>
      </trkpt>
      <trkpt lat="45.13334" lon="5.88758">
        <ele>1677</ele>
        <time>2021-12-20T08:48:04Z</time>
      </trkpt>
      <trkpt lat="45.13334" lon="5.88757">
        <ele>1676</ele>
        <time>2021-12-20T08:48:06Z</time>
      </trkpt>
      <trkpt lat="45.13335" lon="5.88759">
        <ele>1677</ele>
        <time>2021-12-20T08:48:16Z</time>
      </trkpt>
      <trkpt lat="45.13336" lon="5.88755">
        <ele>1676</ele>
        <time>2021-12-20T08:48:34Z</time>
      </trkpt>
      <trkpt lat="45.13335" lon="5.88756">
        <ele>1676</ele>
        <time>2021-12-20T08:48:42Z</time>
      </trkpt>
      <trkpt lat="45.13335" lon="5.88759">
        <ele>1678</ele>
        <time>2021-12-20T08:48:52Z</time>
      </trkpt>
      <trkpt lat="45.13334" lon="5.8876">
        <ele>1677</ele>
        <time>2021-12-20T08:48:54Z</time>
      </trkpt>
      <trkpt lat="45.13335" lon="5.88759">
        <ele>1679</ele>
        <time>2021-12-20T08:49:00Z</time>
      </trkpt>
      <trkpt lat="45.13334" lon="5.88759">
        <ele>1680</ele>
        <time>2021-12-20T08:49:02Z</time>
      </trkpt>
      <trkpt lat="45.13334" lon="5.88758">
        <ele>1679</ele>
        <time>2021-12-20T08:49:12Z</time>
      </trkpt>
      <trkpt lat="45.13335" lon="5.88758">
        <ele>1680</ele>
        <time>2021-12-20T08:49:38Z</time>
      </trkpt>
      <trkpt lat="45.13336" lon="5.88757">
        <ele>1680</ele>
        <time>2021-12-20T08:49:40Z</time>
      </trkpt>
      <trkpt lat="45.13336" lon="5.88758">
        <ele>1681</ele>
        <time>2021-12-20T08:49:42Z</time>
      </trkpt>
      <trkpt lat="45.13335" lon="5.88759">
        <ele>1679</ele>
        <time>2021-12-20T08:49:46Z</time>
      </trkpt>
      <trkpt lat="45.13332" lon="5.88765">
        <ele>1679</ele>
        <time>2021-12-20T08:49:52Z</time>
      </trkpt>
      <trkpt lat="45.13329" lon="5.88772">
        <ele>1677</ele>
        <time>2021-12-20T08:50:02Z</time>
      </trkpt>
      <trkpt lat="45.13327" lon="5.88779">
        <ele>1677</ele>
        <time>2021-12-20T08:50:09Z</time>
      </trkpt>
      <trkpt lat="45.13327" lon="5.88786">
        <ele>1679</ele>
        <time>2021-12-20T08:50:15Z</time>
      </trkpt>
      <trkpt lat="45.13324" lon="5.88794">
        <ele>1679</ele>
        <time>2021-12-20T08:50:23Z</time>
      </trkpt>
      <trkpt lat="45.13324" lon="5.888">
        <ele>1678</ele>
        <time>2021-12-20T08:50:29Z</time>
      </trkpt>
      <trkpt lat="45.13322" lon="5.88807">
        <ele>1679</ele>
        <time>2021-12-20T08:50:35Z</time>
      </trkpt>
      <trkpt lat="45.13321" lon="5.88813">
        <ele>1679</ele>
        <time>2021-12-20T08:50:41Z</time>
      </trkpt>
      <trkpt lat="45.13321" lon="5.8882">
        <ele>1680</ele>
        <time>2021-12-20T08:50:47Z</time>
      </trkpt>
      <trkpt lat="45.13322" lon="5.88827">
        <ele>1682</ele>
        <time>2021-12-20T08:50:53Z</time>
      </trkpt>
      <trkpt lat="45.13324" lon="5.88834">
        <ele>1682</ele>
        <time>2021-12-20T08:50:59Z</time>
      </trkpt>
      <trkpt lat="45.13326" lon="5.8884">
        <ele>1682</ele>
        <time>2021-12-20T08:51:05Z</time>
      </trkpt>
      <trkpt lat="45.13331" lon="5.88847">
        <ele>1683</ele>
        <time>2021-12-20T08:51:13Z</time>
      </trkpt>
      <trkpt lat="45.13333" lon="5.88854">
        <ele>1685</ele>
        <time>2021-12-20T08:51:19Z</time>
      </trkpt>
      <trkpt lat="45.13337" lon="5.8886">
        <ele>1686</ele>
        <time>2021-12-20T08:51:25Z</time>
      </trkpt>
      <trkpt lat="45.13339" lon="5.88867">
        <ele>1686</ele>
        <time>2021-12-20T08:51:31Z</time>
      </trkpt>
      <trkpt lat="45.1334" lon="5.88874">
        <ele>1687</ele>
        <time>2021-12-20T08:51:37Z</time>
      </trkpt>
      <trkpt lat="45.13344" lon="5.8888">
        <ele>1687</ele>
        <time>2021-12-20T08:51:45Z</time>
      </trkpt>
      <trkpt lat="45.13345" lon="5.88888">
        <ele>1689</ele>
        <time>2021-12-20T08:51:53Z</time>
      </trkpt>
      <trkpt lat="45.13345" lon="5.8889">
        <ele>1689</ele>
        <time>2021-12-20T08:51:55Z</time>
      </trkpt>
      <trkpt lat="45.13346" lon="5.88891">
        <ele>1690</ele>
        <time>2021-12-20T08:51:59Z</time>
      </trkpt>
      <trkpt lat="45.13347" lon="5.88891">
        <ele>1690</ele>
        <time>2021-12-20T08:52:07Z</time>
      </trkpt>
      <trkpt lat="45.13347" lon="5.8889">
        <ele>1691</ele>
        <time>2021-12-20T08:52:13Z</time>
      </trkpt>
      <trkpt lat="45.13352" lon="5.88895">
        <ele>1694</ele>
        <time>2021-12-20T08:52:29Z</time>
      </trkpt>
      <trkpt lat="45.13353" lon="5.88902">
        <ele>1695</ele>
        <time>2021-12-20T08:52:35Z</time>
      </trkpt>
      <trkpt lat="45.13356" lon="5.88908">
        <ele>1696</ele>
        <time>2021-12-20T08:52:41Z</time>
      </trkpt>
      <trkpt lat="45.1336" lon="5.88912">
        <ele>1698</ele>
        <time>2021-12-20T08:52:47Z</time>
      </trkpt>
      <trkpt lat="45.13364" lon="5.88919">
        <ele>1699</ele>
        <time>2021-12-20T08:52:53Z</time>
      </trkpt>
      <trkpt lat="45.13364" lon="5.88925">
        <ele>1700</ele>
        <time>2021-12-20T08:52:59Z</time>
      </trkpt>
      <trkpt lat="45.13364" lon="5.88932">
        <ele>1701</ele>
        <time>2021-12-20T08:53:07Z</time>
      </trkpt>
      <trkpt lat="45.13366" lon="5.88939">
        <ele>1701</ele>
        <time>2021-12-20T08:53:13Z</time>
      </trkpt>
      <trkpt lat="45.13367" lon="5.88946">
        <ele>1702</ele>
        <time>2021-12-20T08:53:21Z</time>
      </trkpt>
      <trkpt lat="45.13366" lon="5.88952">
        <ele>1703</ele>
        <time>2021-12-20T08:53:31Z</time>
      </trkpt>
      <trkpt lat="45.13368" lon="5.88952">
        <ele>1704</ele>
        <time>2021-12-20T08:53:35Z</time>
      </trkpt>
      <trkpt lat="45.13367" lon="5.88951">
        <ele>1705</ele>
        <time>2021-12-20T08:53:47Z</time>
      </trkpt>
      <trkpt lat="45.13365" lon="5.8895">
        <ele>1705</ele>
        <time>2021-12-20T08:53:51Z</time>
      </trkpt>
      <trkpt lat="45.1336" lon="5.8895">
        <ele>1707</ele>
        <time>2021-12-20T08:53:57Z</time>
      </trkpt>
      <trkpt lat="45.13363" lon="5.88955">
        <ele>1707</ele>
        <time>2021-12-20T08:54:05Z</time>
      </trkpt>
      <trkpt lat="45.13362" lon="5.88956">
        <ele>1707</ele>
        <time>2021-12-20T08:54:11Z</time>
      </trkpt>
      <trkpt lat="45.13362" lon="5.88954">
        <ele>1707</ele>
        <time>2021-12-20T08:54:13Z</time>
      </trkpt>
      <trkpt lat="45.13356" lon="5.88952">
        <ele>1709</ele>
        <time>2021-12-20T08:54:29Z</time>
      </trkpt>
      <trkpt lat="45.13355" lon="5.88954">
        <ele>1710</ele>
        <time>2021-12-20T08:54:37Z</time>
      </trkpt>
      <trkpt lat="45.13355" lon="5.88955">
        <ele>1710</ele>
        <time>2021-12-20T08:54:39Z</time>
      </trkpt>
      <trkpt lat="45.13356" lon="5.88957">
        <ele>1711</ele>
        <time>2021-12-20T08:54:41Z</time>
      </trkpt>
      <trkpt lat="45.13357" lon="5.88965">
        <ele>1709</ele>
        <time>2021-12-20T08:54:53Z</time>
      </trkpt>
      <trkpt lat="45.13359" lon="5.88965">
        <ele>1709</ele>
        <time>2021-12-20T08:54:57Z</time>
      </trkpt>
      <trkpt lat="45.1336" lon="5.88966">
        <ele>1710</ele>
        <time>2021-12-20T08:54:59Z</time>
      </trkpt>
      <trkpt lat="45.1336" lon="5.88967">
        <ele>1711</ele>
        <time>2021-12-20T08:55:01Z</time>
      </trkpt>
      <trkpt lat="45.1336" lon="5.88975">
        <ele>1709</ele>
        <time>2021-12-20T08:55:13Z</time>
      </trkpt>
      <trkpt lat="45.13362" lon="5.88974">
        <ele>1708</ele>
        <time>2021-12-20T08:55:19Z</time>
      </trkpt>
      <trkpt lat="45.13363" lon="5.88975">
        <ele>1709</ele>
        <time>2021-12-20T08:55:21Z</time>
      </trkpt>
      <trkpt lat="45.13365" lon="5.88974">
        <ele>1708</ele>
        <time>2021-12-20T08:55:23Z</time>
      </trkpt>
      <trkpt lat="45.13366" lon="5.88974">
        <ele>1707</ele>
        <time>2021-12-20T08:55:25Z</time>
      </trkpt>
      <trkpt lat="45.13366" lon="5.88975">
        <ele>1707</ele>
        <time>2021-12-20T08:55:29Z</time>
      </trkpt>
      <trkpt lat="45.13366" lon="5.88976">
        <ele>1707</ele>
        <time>2021-12-20T08:55:35Z</time>
      </trkpt>
      <trkpt lat="45.13367" lon="5.88977">
        <ele>1708</ele>
        <time>2021-12-20T08:55:37Z</time>
      </trkpt>
      <trkpt lat="45.13367" lon="5.88976">
        <ele>1709</ele>
        <time>2021-12-20T08:55:39Z</time>
      </trkpt>
      <trkpt lat="45.13366" lon="5.88976">
        <ele>1709</ele>
        <time>2021-12-20T08:55:43Z</time>
      </trkpt>
      <trkpt lat="45.13367" lon="5.88976">
        <ele>1710</ele>
        <time>2021-12-20T08:55:47Z</time>
      </trkpt>
      <trkpt lat="45.1337" lon="5.88982">
        <ele>1713</ele>
        <time>2021-12-20T08:56:03Z</time>
      </trkpt>
      <trkpt lat="45.13371" lon="5.88983">
        <ele>1713</ele>
        <time>2021-12-20T08:56:07Z</time>
      </trkpt>
      <trkpt lat="45.13372" lon="5.88983">
        <ele>1713</ele>
        <time>2021-12-20T08:56:09Z</time>
      </trkpt>
      <trkpt lat="45.13373" lon="5.88983">
        <ele>1712</ele>
        <time>2021-12-20T08:56:11Z</time>
      </trkpt>
      <trkpt lat="45.13374" lon="5.88983">
        <ele>1711</ele>
        <time>2021-12-20T08:56:13Z</time>
      </trkpt>
      <trkpt lat="45.13375" lon="5.88984">
        <ele>1711</ele>
        <time>2021-12-20T08:56:15Z</time>
      </trkpt>
      <trkpt lat="45.13374" lon="5.88991">
        <ele>1711</ele>
        <time>2021-12-20T08:56:25Z</time>
      </trkpt>
      <trkpt lat="45.13377" lon="5.88995">
        <ele>1712</ele>
        <time>2021-12-20T08:56:33Z</time>
      </trkpt>
      <trkpt lat="45.13377" lon="5.88996">
        <ele>1712</ele>
        <time>2021-12-20T08:56:35Z</time>
      </trkpt>
      <trkpt lat="45.13376" lon="5.88996">
        <ele>1712</ele>
        <time>2021-12-20T08:56:37Z</time>
      </trkpt>
      <trkpt lat="45.13374" lon="5.89002">
        <ele>1713</ele>
        <time>2021-12-20T08:56:49Z</time>
      </trkpt>
      <trkpt lat="45.13375" lon="5.89011">
        <ele>1714</ele>
        <time>2021-12-20T08:57:01Z</time>
      </trkpt>
      <trkpt lat="45.13377" lon="5.89016">
        <ele>1717</ele>
        <time>2021-12-20T08:57:07Z</time>
      </trkpt>
      <trkpt lat="45.13376" lon="5.89016">
        <ele>1716</ele>
        <time>2021-12-20T08:57:09Z</time>
      </trkpt>
      <trkpt lat="45.13377" lon="5.89018">
        <ele>1717</ele>
        <time>2021-12-20T08:57:11Z</time>
      </trkpt>
      <trkpt lat="45.13377" lon="5.89019">
        <ele>1718</ele>
        <time>2021-12-20T08:57:13Z</time>
      </trkpt>
      <trkpt lat="45.13377" lon="5.89021">
        <ele>1717</ele>
        <time>2021-12-20T08:57:15Z</time>
      </trkpt>
      <trkpt lat="45.13375" lon="5.89022">
        <ele>1717</ele>
        <time>2021-12-20T08:57:17Z</time>
      </trkpt>
      <trkpt lat="45.13371" lon="5.89023">
        <ele>1718</ele>
        <time>2021-12-20T08:57:31Z</time>
      </trkpt>
      <trkpt lat="45.13367" lon="5.89024">
        <ele>1717</ele>
        <time>2021-12-20T08:57:39Z</time>
      </trkpt>
      <trkpt lat="45.13366" lon="5.89024">
        <ele>1718</ele>
        <time>2021-12-20T08:57:45Z</time>
      </trkpt>
      <trkpt lat="45.13365" lon="5.89031">
        <ele>1718</ele>
        <time>2021-12-20T08:57:51Z</time>
      </trkpt>
      <trkpt lat="45.13363" lon="5.89033">
        <ele>1717</ele>
        <time>2021-12-20T08:57:57Z</time>
      </trkpt>
      <trkpt lat="45.13362" lon="5.89035">
        <ele>1716</ele>
        <time>2021-12-20T08:57:59Z</time>
      </trkpt>
      <trkpt lat="45.13362" lon="5.89036">
        <ele>1716</ele>
        <time>2021-12-20T08:58:01Z</time>
      </trkpt>
      <trkpt lat="45.13361" lon="5.89038">
        <ele>1717</ele>
        <time>2021-12-20T08:58:05Z</time>
      </trkpt>
      <trkpt lat="45.13361" lon="5.89039">
        <ele>1719</ele>
        <time>2021-12-20T08:58:07Z</time>
      </trkpt>
      <trkpt lat="45.1336" lon="5.89042">
        <ele>1718</ele>
        <time>2021-12-20T08:58:11Z</time>
      </trkpt>
      <trkpt lat="45.13359" lon="5.8905">
        <ele>1721</ele>
        <time>2021-12-20T08:58:21Z</time>
      </trkpt>
      <trkpt lat="45.13356" lon="5.89056">
        <ele>1722</ele>
        <time>2021-12-20T08:58:29Z</time>
      </trkpt>
      <trkpt lat="45.13351" lon="5.89058">
        <ele>1721</ele>
        <time>2021-12-20T08:58:41Z</time>
      </trkpt>
      <trkpt lat="45.13354" lon="5.89063">
        <ele>1722</ele>
        <time>2021-12-20T08:58:51Z</time>
      </trkpt>
      <trkpt lat="45.13354" lon="5.89064">
        <ele>1722</ele>
        <time>2021-12-20T08:58:53Z</time>
      </trkpt>
      <trkpt lat="45.13354" lon="5.89066">
        <ele>1722</ele>
        <time>2021-12-20T08:58:55Z</time>
      </trkpt>
      <trkpt lat="45.13354" lon="5.89067">
        <ele>1722</ele>
        <time>2021-12-20T08:59:07Z</time>
      </trkpt>
      <trkpt lat="45.13353" lon="5.89067">
        <ele>1722</ele>
        <time>2021-12-20T08:59:13Z</time>
      </trkpt>
      <trkpt lat="45.13354" lon="5.89074">
        <ele>1724</ele>
        <time>2021-12-20T08:59:21Z</time>
      </trkpt>
      <trkpt lat="45.13355" lon="5.8908">
        <ele>1724</ele>
        <time>2021-12-20T08:59:27Z</time>
      </trkpt>
      <trkpt lat="45.13355" lon="5.89081">
        <ele>1724</ele>
        <time>2021-12-20T08:59:29Z</time>
      </trkpt>
      <trkpt lat="45.13354" lon="5.89082">
        <ele>1723</ele>
        <time>2021-12-20T08:59:39Z</time>
      </trkpt>
      <trkpt lat="45.13354" lon="5.89083">
        <ele>1722</ele>
        <time>2021-12-20T08:59:41Z</time>
      </trkpt>
      <trkpt lat="45.13355" lon="5.89085">
        <ele>1722</ele>
        <time>2021-12-20T08:59:47Z</time>
      </trkpt>
      <trkpt lat="45.13357" lon="5.89088">
        <ele>1721</ele>
        <time>2021-12-20T08:59:55Z</time>
      </trkpt>
      <trkpt lat="45.13356" lon="5.89089">
        <ele>1721</ele>
        <time>2021-12-20T08:59:57Z</time>
      </trkpt>
      <trkpt lat="45.13356" lon="5.8909">
        <ele>1721</ele>
        <time>2021-12-20T08:59:59Z</time>
      </trkpt>
      <trkpt lat="45.13356" lon="5.89089">
        <ele>1722</ele>
        <time>2021-12-20T09:00:03Z</time>
      </trkpt>
      <trkpt lat="45.13357" lon="5.8909">
        <ele>1722</ele>
        <time>2021-12-20T09:00:07Z</time>
      </trkpt>
      <trkpt lat="45.13358" lon="5.89094">
        <ele>1724</ele>
        <time>2021-12-20T09:00:13Z</time>
      </trkpt>
      <trkpt lat="45.13357" lon="5.89094">
        <ele>1725</ele>
        <time>2021-12-20T09:00:15Z</time>
      </trkpt>
      <trkpt lat="45.13357" lon="5.89092">
        <ele>1727</ele>
        <time>2021-12-20T09:00:23Z</time>
      </trkpt>
      <trkpt lat="45.13358" lon="5.89093">
        <ele>1728</ele>
        <time>2021-12-20T09:00:29Z</time>
      </trkpt>
      <trkpt lat="45.13358" lon="5.89092">
        <ele>1728</ele>
        <time>2021-12-20T09:00:31Z</time>
      </trkpt>
      <trkpt lat="45.13358" lon="5.89094">
        <ele>1728</ele>
        <time>2021-12-20T09:00:33Z</time>
      </trkpt>
      <trkpt lat="45.13357" lon="5.89094">
        <ele>1728</ele>
        <time>2021-12-20T09:00:35Z</time>
      </trkpt>
      <trkpt lat="45.13355" lon="5.89092">
        <ele>1730</ele>
        <time>2021-12-20T09:00:39Z</time>
      </trkpt>
      <trkpt lat="45.1335" lon="5.89088">
        <ele>1731</ele>
        <time>2021-12-20T09:00:49Z</time>
      </trkpt>
      <trkpt lat="45.13349" lon="5.89088">
        <ele>1733</ele>
        <time>2021-12-20T09:00:53Z</time>
      </trkpt>
      <trkpt lat="45.13347" lon="5.89089">
        <ele>1733</ele>
        <time>2021-12-20T09:00:57Z</time>
      </trkpt>
      <trkpt lat="45.13347" lon="5.89091">
        <ele>1733</ele>
        <time>2021-12-20T09:01:17Z</time>
      </trkpt>
      <trkpt lat="45.13343" lon="5.89094">
        <ele>1732</ele>
        <time>2021-12-20T09:01:23Z</time>
      </trkpt>
      <trkpt lat="45.13342" lon="5.89093">
        <ele>1731</ele>
        <time>2021-12-20T09:01:25Z</time>
      </trkpt>
      <trkpt lat="45.1334" lon="5.89093">
        <ele>1730</ele>
        <time>2021-12-20T09:01:27Z</time>
      </trkpt>
      <trkpt lat="45.13338" lon="5.89104">
        <ele>1728</ele>
        <time>2021-12-20T09:01:33Z</time>
      </trkpt>
      <trkpt lat="45.13337" lon="5.89105">
        <ele>1728</ele>
        <time>2021-12-20T09:01:37Z</time>
      </trkpt>
      <trkpt lat="45.13336" lon="5.89105">
        <ele>1729</ele>
        <time>2021-12-20T09:01:39Z</time>
      </trkpt>
      <trkpt lat="45.13337" lon="5.89104">
        <ele>1730</ele>
        <time>2021-12-20T09:01:43Z</time>
      </trkpt>
      <trkpt lat="45.13335" lon="5.89106">
        <ele>1729</ele>
        <time>2021-12-20T09:01:45Z</time>
      </trkpt>
      <trkpt lat="45.13334" lon="5.89116">
        <ele>1728</ele>
        <time>2021-12-20T09:01:51Z</time>
      </trkpt>
      <trkpt lat="45.13334" lon="5.89117">
        <ele>1728</ele>
        <time>2021-12-20T09:01:53Z</time>
      </trkpt>
      <trkpt lat="45.13335" lon="5.89125">
        <ele>1725</ele>
        <time>2021-12-20T09:02:01Z</time>
      </trkpt>
      <trkpt lat="45.13336" lon="5.89132">
        <ele>1725</ele>
        <time>2021-12-20T09:02:06Z</time>
      </trkpt>
      <trkpt lat="45.13338" lon="5.8914">
        <ele>1726</ele>
        <time>2021-12-20T09:02:13Z</time>
      </trkpt>
      <trkpt lat="45.1334" lon="5.89147">
        <ele>1726</ele>
        <time>2021-12-20T09:02:19Z</time>
      </trkpt>
      <trkpt lat="45.13341" lon="5.89156">
        <ele>1726</ele>
        <time>2021-12-20T09:02:25Z</time>
      </trkpt>
      <trkpt lat="45.13343" lon="5.89163">
        <ele>1724</ele>
        <time>2021-12-20T09:02:31Z</time>
      </trkpt>
      <trkpt lat="45.13347" lon="5.8917">
        <ele>1726</ele>
        <time>2021-12-20T09:02:38Z</time>
      </trkpt>
      <trkpt lat="45.13348" lon="5.89178">
        <ele>1726</ele>
        <time>2021-12-20T09:02:46Z</time>
      </trkpt>
      <trkpt lat="45.13348" lon="5.89184">
        <ele>1726</ele>
        <time>2021-12-20T09:02:52Z</time>
      </trkpt>
      <trkpt lat="45.13349" lon="5.89192">
        <ele>1726</ele>
        <time>2021-12-20T09:03:00Z</time>
      </trkpt>
      <trkpt lat="45.13351" lon="5.89199">
        <ele>1725</ele>
        <time>2021-12-20T09:03:06Z</time>
      </trkpt>
      <trkpt lat="45.13351" lon="5.89205">
        <ele>1726</ele>
        <time>2021-12-20T09:03:12Z</time>
      </trkpt>
      <trkpt lat="45.13354" lon="5.89211">
        <ele>1727</ele>
        <time>2021-12-20T09:03:20Z</time>
      </trkpt>
      <trkpt lat="45.13357" lon="5.89219">
        <ele>1728</ele>
        <time>2021-12-20T09:03:30Z</time>
      </trkpt>
      <trkpt lat="45.13358" lon="5.89226">
        <ele>1732</ele>
        <time>2021-12-20T09:03:40Z</time>
      </trkpt>
      <trkpt lat="45.13358" lon="5.89228">
        <ele>1732</ele>
        <time>2021-12-20T09:03:44Z</time>
      </trkpt>
      <trkpt lat="45.13357" lon="5.89228">
        <ele>1731</ele>
        <time>2021-12-20T09:03:46Z</time>
      </trkpt>
      <trkpt lat="45.13357" lon="5.8923">
        <ele>1732</ele>
        <time>2021-12-20T09:03:48Z</time>
      </trkpt>
      <trkpt lat="45.1336" lon="5.89236">
        <ele>1734</ele>
        <time>2021-12-20T09:04:00Z</time>
      </trkpt>
      <trkpt lat="45.13362" lon="5.89243">
        <ele>1737</ele>
        <time>2021-12-20T09:04:06Z</time>
      </trkpt>
      <trkpt lat="45.13364" lon="5.89249">
        <ele>1738</ele>
        <time>2021-12-20T09:04:12Z</time>
      </trkpt>
      <trkpt lat="45.13364" lon="5.89257">
        <ele>1742</ele>
        <time>2021-12-20T09:04:22Z</time>
      </trkpt>
      <trkpt lat="45.13365" lon="5.89263">
        <ele>1743</ele>
        <time>2021-12-20T09:04:30Z</time>
      </trkpt>
      <trkpt lat="45.13366" lon="5.89265">
        <ele>1742</ele>
        <time>2021-12-20T09:04:32Z</time>
      </trkpt>
      <trkpt lat="45.13368" lon="5.89265">
        <ele>1743</ele>
        <time>2021-12-20T09:04:36Z</time>
      </trkpt>
      <trkpt lat="45.1337" lon="5.8927">
        <ele>1745</ele>
        <time>2021-12-20T09:04:42Z</time>
      </trkpt>
      <trkpt lat="45.13371" lon="5.8927">
        <ele>1746</ele>
        <time>2021-12-20T09:04:44Z</time>
      </trkpt>
      <trkpt lat="45.13372" lon="5.89271">
        <ele>1748</ele>
        <time>2021-12-20T09:04:46Z</time>
      </trkpt>
      <trkpt lat="45.13375" lon="5.89278">
        <ele>1750</ele>
        <time>2021-12-20T09:04:54Z</time>
      </trkpt>
      <trkpt lat="45.13376" lon="5.89278">
        <ele>1750</ele>
        <time>2021-12-20T09:04:56Z</time>
      </trkpt>
      <trkpt lat="45.13377" lon="5.89281">
        <ele>1753</ele>
        <time>2021-12-20T09:05:00Z</time>
      </trkpt>
      <trkpt lat="45.13379" lon="5.89285">
        <ele>1754</ele>
        <time>2021-12-20T09:05:08Z</time>
      </trkpt>
      <trkpt lat="45.13379" lon="5.89286">
        <ele>1755</ele>
        <time>2021-12-20T09:05:10Z</time>
      </trkpt>
      <trkpt lat="45.1338" lon="5.89287">
        <ele>1755</ele>
        <time>2021-12-20T09:05:12Z</time>
      </trkpt>
      <trkpt lat="45.13382" lon="5.89293">
        <ele>1755</ele>
        <time>2021-12-20T09:05:22Z</time>
      </trkpt>
      <trkpt lat="45.13386" lon="5.89297">
        <ele>1758</ele>
        <time>2021-12-20T09:05:32Z</time>
      </trkpt>
      <trkpt lat="45.13388" lon="5.89297">
        <ele>1758</ele>
        <time>2021-12-20T09:05:36Z</time>
      </trkpt>
      <trkpt lat="45.13389" lon="5.89298">
        <ele>1759</ele>
        <time>2021-12-20T09:05:38Z</time>
      </trkpt>
      <trkpt lat="45.13391" lon="5.893">
        <ele>1761</ele>
        <time>2021-12-20T09:05:42Z</time>
      </trkpt>
      <trkpt lat="45.13396" lon="5.89307">
        <ele>1761</ele>
        <time>2021-12-20T09:05:54Z</time>
      </trkpt>
      <trkpt lat="45.13401" lon="5.89309">
        <ele>1761</ele>
        <time>2021-12-20T09:05:58Z</time>
      </trkpt>
      <trkpt lat="45.13402" lon="5.89316">
        <ele>1764</ele>
        <time>2021-12-20T09:06:04Z</time>
      </trkpt>
      <trkpt lat="45.13401" lon="5.89324">
        <ele>1765</ele>
        <time>2021-12-20T09:06:10Z</time>
      </trkpt>
      <trkpt lat="45.13403" lon="5.89332">
        <ele>1764</ele>
        <time>2021-12-20T09:06:16Z</time>
      </trkpt>
      <trkpt lat="45.13402" lon="5.8934">
        <ele>1764</ele>
        <time>2021-12-20T09:06:24Z</time>
      </trkpt>
      <trkpt lat="45.13403" lon="5.89347">
        <ele>1766</ele>
        <time>2021-12-20T09:06:30Z</time>
      </trkpt>
      <trkpt lat="45.13406" lon="5.89353">
        <ele>1765</ele>
        <time>2021-12-20T09:06:36Z</time>
      </trkpt>
      <trkpt lat="45.1341" lon="5.8936">
        <ele>1766</ele>
        <time>2021-12-20T09:06:44Z</time>
      </trkpt>
      <trkpt lat="45.13414" lon="5.89365">
        <ele>1766</ele>
        <time>2021-12-20T09:06:56Z</time>
      </trkpt>
      <trkpt lat="45.13416" lon="5.89368">
        <ele>1766</ele>
        <time>2021-12-20T09:07:02Z</time>
      </trkpt>
      <trkpt lat="45.13417" lon="5.89368">
        <ele>1766</ele>
        <time>2021-12-20T09:07:04Z</time>
      </trkpt>
      <trkpt lat="45.13419" lon="5.8937">
        <ele>1766</ele>
        <time>2021-12-20T09:07:06Z</time>
      </trkpt>
      <trkpt lat="45.13421" lon="5.89376">
        <ele>1767</ele>
        <time>2021-12-20T09:07:12Z</time>
      </trkpt>
      <trkpt lat="45.13421" lon="5.89383">
        <ele>1768</ele>
        <time>2021-12-20T09:07:22Z</time>
      </trkpt>
      <trkpt lat="45.13422" lon="5.89384">
        <ele>1769</ele>
        <time>2021-12-20T09:07:24Z</time>
      </trkpt>
      <trkpt lat="45.13423" lon="5.89385">
        <ele>1770</ele>
        <time>2021-12-20T09:07:26Z</time>
      </trkpt>
      <trkpt lat="45.13422" lon="5.89385">
        <ele>1771</ele>
        <time>2021-12-20T09:08:02Z</time>
      </trkpt>
      <trkpt lat="45.13422" lon="5.89387">
        <ele>1770</ele>
        <time>2021-12-20T09:08:04Z</time>
      </trkpt>
      <trkpt lat="45.13422" lon="5.89394">
        <ele>1770</ele>
        <time>2021-12-20T09:08:10Z</time>
      </trkpt>
      <trkpt lat="45.13424" lon="5.894">
        <ele>1771</ele>
        <time>2021-12-20T09:08:16Z</time>
      </trkpt>
      <trkpt lat="45.13424" lon="5.89403">
        <ele>1771</ele>
        <time>2021-12-20T09:08:18Z</time>
      </trkpt>
      <trkpt lat="45.13424" lon="5.89404">
        <ele>1770</ele>
        <time>2021-12-20T09:08:20Z</time>
      </trkpt>
      <trkpt lat="45.13425" lon="5.89407">
        <ele>1769</ele>
        <time>2021-12-20T09:08:22Z</time>
      </trkpt>
      <trkpt lat="45.13427" lon="5.89411">
        <ele>1771</ele>
        <time>2021-12-20T09:08:30Z</time>
      </trkpt>
      <trkpt lat="45.13428" lon="5.89412">
        <ele>1771</ele>
        <time>2021-12-20T09:08:32Z</time>
      </trkpt>
      <trkpt lat="45.13429" lon="5.89414">
        <ele>1771</ele>
        <time>2021-12-20T09:08:34Z</time>
      </trkpt>
      <trkpt lat="45.13433" lon="5.8942">
        <ele>1772</ele>
        <time>2021-12-20T09:08:42Z</time>
      </trkpt>
      <trkpt lat="45.13434" lon="5.89426">
        <ele>1776</ele>
        <time>2021-12-20T09:08:52Z</time>
      </trkpt>
      <trkpt lat="45.13434" lon="5.89433">
        <ele>1776</ele>
        <time>2021-12-20T09:09:00Z</time>
      </trkpt>
      <trkpt lat="45.13436" lon="5.89442">
        <ele>1778</ele>
        <time>2021-12-20T09:09:10Z</time>
      </trkpt>
      <trkpt lat="45.13437" lon="5.89448">
        <ele>1779</ele>
        <time>2021-12-20T09:09:20Z</time>
      </trkpt>
      <trkpt lat="45.13438" lon="5.89455">
        <ele>1780</ele>
        <time>2021-12-20T09:09:26Z</time>
      </trkpt>
      <trkpt lat="45.13438" lon="5.89462">
        <ele>1778</ele>
        <time>2021-12-20T09:09:32Z</time>
      </trkpt>
      <trkpt lat="45.13438" lon="5.8947">
        <ele>1779</ele>
        <time>2021-12-20T09:09:42Z</time>
      </trkpt>
      <trkpt lat="45.13437" lon="5.89475">
        <ele>1777</ele>
        <time>2021-12-20T09:09:48Z</time>
      </trkpt>
      <trkpt lat="45.13437" lon="5.89476">
        <ele>1777</ele>
        <time>2021-12-20T09:09:54Z</time>
      </trkpt>
      <trkpt lat="45.13431" lon="5.89477">
        <ele>1778</ele>
        <time>2021-12-20T09:10:10Z</time>
      </trkpt>
      <trkpt lat="45.13426" lon="5.89478">
        <ele>1783</ele>
        <time>2021-12-20T09:10:22Z</time>
      </trkpt>
      <trkpt lat="45.13429" lon="5.89484">
        <ele>1783</ele>
        <time>2021-12-20T09:10:28Z</time>
      </trkpt>
      <trkpt lat="45.1343" lon="5.89484">
        <ele>1783</ele>
        <time>2021-12-20T09:10:30Z</time>
      </trkpt>
      <trkpt lat="45.13435" lon="5.89488">
        <ele>1782</ele>
        <time>2021-12-20T09:10:42Z</time>
      </trkpt>
      <trkpt lat="45.1344" lon="5.89491">
        <ele>1782</ele>
        <time>2021-12-20T09:10:52Z</time>
      </trkpt>
      <trkpt lat="45.13441" lon="5.89491">
        <ele>1782</ele>
        <time>2021-12-20T09:10:54Z</time>
      </trkpt>
      <trkpt lat="45.13442" lon="5.89491">
        <ele>1784</ele>
        <time>2021-12-20T09:10:58Z</time>
      </trkpt>
      <trkpt lat="45.13446" lon="5.89491">
        <ele>1784</ele>
        <time>2021-12-20T09:11:06Z</time>
      </trkpt>
      <trkpt lat="45.13447" lon="5.89492">
        <ele>1785</ele>
        <time>2021-12-20T09:11:08Z</time>
      </trkpt>
      <trkpt lat="45.1345" lon="5.89492">
        <ele>1786</ele>
        <time>2021-12-20T09:11:12Z</time>
      </trkpt>
      <trkpt lat="45.13451" lon="5.89491">
        <ele>1787</ele>
        <time>2021-12-20T09:11:14Z</time>
      </trkpt>
      <trkpt lat="45.13455" lon="5.89496">
        <ele>1786</ele>
        <time>2021-12-20T09:11:26Z</time>
      </trkpt>
      <trkpt lat="45.13457" lon="5.89497">
        <ele>1789</ele>
        <time>2021-12-20T09:11:46Z</time>
      </trkpt>
      <trkpt lat="45.13456" lon="5.89497">
        <ele>1790</ele>
        <time>2021-12-20T09:11:50Z</time>
      </trkpt>
      <trkpt lat="45.13455" lon="5.89498">
        <ele>1792</ele>
        <time>2021-12-20T09:12:02Z</time>
      </trkpt>
      <trkpt lat="45.13455" lon="5.89496">
        <ele>1792</ele>
        <time>2021-12-20T09:12:04Z</time>
      </trkpt>
      <trkpt lat="45.13456" lon="5.89497">
        <ele>1792</ele>
        <time>2021-12-20T09:12:08Z</time>
      </trkpt>
      <trkpt lat="45.13455" lon="5.89495">
        <ele>1792</ele>
        <time>2021-12-20T09:12:10Z</time>
      </trkpt>
      <trkpt lat="45.13456" lon="5.89497">
        <ele>1792</ele>
        <time>2021-12-20T09:13:08Z</time>
      </trkpt>
      <trkpt lat="45.13455" lon="5.895">
        <ele>1792</ele>
        <time>2021-12-20T09:13:10Z</time>
      </trkpt>
      <trkpt lat="45.13456" lon="5.895">
        <ele>1792</ele>
        <time>2021-12-20T09:13:12Z</time>
      </trkpt>
      <trkpt lat="45.13455" lon="5.89501">
        <ele>1791</ele>
        <time>2021-12-20T09:13:16Z</time>
      </trkpt>
      <trkpt lat="45.13454" lon="5.89501">
        <ele>1790</ele>
        <time>2021-12-20T09:13:32Z</time>
      </trkpt>
      <trkpt lat="45.13454" lon="5.89502">
        <ele>1790</ele>
        <time>2021-12-20T09:13:34Z</time>
      </trkpt>
      <trkpt lat="45.13455" lon="5.89504">
        <ele>1788</ele>
        <time>2021-12-20T09:13:38Z</time>
      </trkpt>
      <trkpt lat="45.13456" lon="5.89505">
        <ele>1789</ele>
        <time>2021-12-20T09:13:46Z</time>
      </trkpt>
      <trkpt lat="45.13459" lon="5.89508">
        <ele>1792</ele>
        <time>2021-12-20T09:14:00Z</time>
      </trkpt>
      <trkpt lat="45.13457" lon="5.89509">
        <ele>1797</ele>
        <time>2021-12-20T09:14:18Z</time>
      </trkpt>
      <trkpt lat="45.13457" lon="5.89511">
        <ele>1798</ele>
        <time>2021-12-20T09:14:20Z</time>
      </trkpt>
      <trkpt lat="45.13455" lon="5.89512">
        <ele>1798</ele>
        <time>2021-12-20T09:14:24Z</time>
      </trkpt>
      <trkpt lat="45.13451" lon="5.89517">
        <ele>1800</ele>
        <time>2021-12-20T09:14:32Z</time>
      </trkpt>
      <trkpt lat="45.13452" lon="5.89524">
        <ele>1798</ele>
        <time>2021-12-20T09:14:38Z</time>
      </trkpt>
      <trkpt lat="45.13453" lon="5.89532">
        <ele>1798</ele>
        <time>2021-12-20T09:14:46Z</time>
      </trkpt>
      <trkpt lat="45.13458" lon="5.89532">
        <ele>1802</ele>
        <time>2021-12-20T09:14:58Z</time>
      </trkpt>
      <trkpt lat="45.13461" lon="5.89531">
        <ele>1804</ele>
        <time>2021-12-20T09:15:04Z</time>
      </trkpt>
      <trkpt lat="45.1346" lon="5.89531">
        <ele>1804</ele>
        <time>2021-12-20T09:15:06Z</time>
      </trkpt>
      <trkpt lat="45.1346" lon="5.89532">
        <ele>1806</ele>
        <time>2021-12-20T09:15:12Z</time>
      </trkpt>
      <trkpt lat="45.13465" lon="5.89531">
        <ele>1808</ele>
        <time>2021-12-20T09:15:18Z</time>
      </trkpt>
      <trkpt lat="45.13471" lon="5.89532">
        <ele>1811</ele>
        <time>2021-12-20T09:15:26Z</time>
      </trkpt>
      <trkpt lat="45.13472" lon="5.89532">
        <ele>1811</ele>
        <time>2021-12-20T09:15:28Z</time>
      </trkpt>
      <trkpt lat="45.13475" lon="5.89532">
        <ele>1810</ele>
        <time>2021-12-20T09:15:42Z</time>
      </trkpt>
      <trkpt lat="45.13476" lon="5.89531">
        <ele>1811</ele>
        <time>2021-12-20T09:15:44Z</time>
      </trkpt>
      <trkpt lat="45.13477" lon="5.89531">
        <ele>1809</ele>
        <time>2021-12-20T09:15:52Z</time>
      </trkpt>
      <trkpt lat="45.13476" lon="5.89533">
        <ele>1807</ele>
        <time>2021-12-20T09:16:00Z</time>
      </trkpt>
      <trkpt lat="45.13476" lon="5.89532">
        <ele>1806</ele>
        <time>2021-12-20T09:16:04Z</time>
      </trkpt>
      <trkpt lat="45.13476" lon="5.89531">
        <ele>1806</ele>
        <time>2021-12-20T09:16:06Z</time>
      </trkpt>
      <trkpt lat="45.13476" lon="5.8953">
        <ele>1805</ele>
        <time>2021-12-20T09:16:10Z</time>
      </trkpt>
      <trkpt lat="45.13477" lon="5.89531">
        <ele>1805</ele>
        <time>2021-12-20T09:16:12Z</time>
      </trkpt>
      <trkpt lat="45.13477" lon="5.89532">
        <ele>1805</ele>
        <time>2021-12-20T09:16:20Z</time>
      </trkpt>
      <trkpt lat="45.13476" lon="5.89532">
        <ele>1806</ele>
        <time>2021-12-20T09:16:22Z</time>
      </trkpt>
      <trkpt lat="45.13476" lon="5.89534">
        <ele>1807</ele>
        <time>2021-12-20T09:16:32Z</time>
      </trkpt>
      <trkpt lat="45.13476" lon="5.89536">
        <ele>1807</ele>
        <time>2021-12-20T09:16:36Z</time>
      </trkpt>
      <trkpt lat="45.13477" lon="5.89536">
        <ele>1807</ele>
        <time>2021-12-20T09:16:38Z</time>
      </trkpt>
      <trkpt lat="45.13477" lon="5.89537">
        <ele>1808</ele>
        <time>2021-12-20T09:16:40Z</time>
      </trkpt>
      <trkpt lat="45.13476" lon="5.89542">
        <ele>1808</ele>
        <time>2021-12-20T09:16:54Z</time>
      </trkpt>
      <trkpt lat="45.13475" lon="5.89543">
        <ele>1808</ele>
        <time>2021-12-20T09:16:56Z</time>
      </trkpt>
      <trkpt lat="45.13475" lon="5.89542">
        <ele>1807</ele>
        <time>2021-12-20T09:17:00Z</time>
      </trkpt>
      <trkpt lat="45.13474" lon="5.89541">
        <ele>1807</ele>
        <time>2021-12-20T09:17:02Z</time>
      </trkpt>
      <trkpt lat="45.13473" lon="5.89542">
        <ele>1808</ele>
        <time>2021-12-20T09:17:08Z</time>
      </trkpt>
      <trkpt lat="45.13474" lon="5.89549">
        <ele>1811</ele>
        <time>2021-12-20T09:17:24Z</time>
      </trkpt>
      <trkpt lat="45.13473" lon="5.8955">
        <ele>1813</ele>
        <time>2021-12-20T09:17:36Z</time>
      </trkpt>
      <trkpt lat="45.13474" lon="5.89549">
        <ele>1814</ele>
        <time>2021-12-20T09:17:40Z</time>
      </trkpt>
      <trkpt lat="45.13473" lon="5.89557">
        <ele>1814</ele>
        <time>2021-12-20T09:17:48Z</time>
      </trkpt>
      <trkpt lat="45.13472" lon="5.89558">
        <ele>1814</ele>
        <time>2021-12-20T09:17:50Z</time>
      </trkpt>
      <trkpt lat="45.13472" lon="5.8956">
        <ele>1814</ele>
        <time>2021-12-20T09:17:52Z</time>
      </trkpt>
      <trkpt lat="45.13473" lon="5.89563">
        <ele>1813</ele>
        <time>2021-12-20T09:17:56Z</time>
      </trkpt>
      <trkpt lat="45.13473" lon="5.89564">
        <ele>1814</ele>
        <time>2021-12-20T09:18:00Z</time>
      </trkpt>
      <trkpt lat="45.13473" lon="5.89565">
        <ele>1813</ele>
        <time>2021-12-20T09:18:02Z</time>
      </trkpt>
      <trkpt lat="45.13474" lon="5.89565">
        <ele>1814</ele>
        <time>2021-12-20T09:18:04Z</time>
      </trkpt>
      <trkpt lat="45.13479" lon="5.89564">
        <ele>1818</ele>
        <time>2021-12-20T09:18:16Z</time>
      </trkpt>
      <trkpt lat="45.13483" lon="5.89568">
        <ele>1820</ele>
        <time>2021-12-20T09:18:22Z</time>
      </trkpt>
      <trkpt lat="45.13488" lon="5.89567">
        <ele>1823</ele>
        <time>2021-12-20T09:18:28Z</time>
      </trkpt>
      <trkpt lat="45.1349" lon="5.89569">
        <ele>1825</ele>
        <time>2021-12-20T09:18:34Z</time>
      </trkpt>
      <trkpt lat="45.1349" lon="5.89572">
        <ele>1824</ele>
        <time>2021-12-20T09:18:38Z</time>
      </trkpt>
      <trkpt lat="45.13494" lon="5.89578">
        <ele>1825</ele>
        <time>2021-12-20T09:18:46Z</time>
      </trkpt>
      <trkpt lat="45.13499" lon="5.89582">
        <ele>1827</ele>
        <time>2021-12-20T09:18:52Z</time>
      </trkpt>
      <trkpt lat="45.13499" lon="5.89583">
        <ele>1828</ele>
        <time>2021-12-20T09:18:56Z</time>
      </trkpt>
      <trkpt lat="45.13501" lon="5.89582">
        <ele>1829</ele>
        <time>2021-12-20T09:18:58Z</time>
      </trkpt>
      <trkpt lat="45.13505" lon="5.89582">
        <ele>1829</ele>
        <time>2021-12-20T09:19:04Z</time>
      </trkpt>
      <trkpt lat="45.13507" lon="5.89582">
        <ele>1828</ele>
        <time>2021-12-20T09:19:06Z</time>
      </trkpt>
      <trkpt lat="45.13508" lon="5.89582">
        <ele>1827</ele>
        <time>2021-12-20T09:19:08Z</time>
      </trkpt>
      <trkpt lat="45.13511" lon="5.89577">
        <ele>1827</ele>
        <time>2021-12-20T09:19:12Z</time>
      </trkpt>
      <trkpt lat="45.13516" lon="5.89573">
        <ele>1828</ele>
        <time>2021-12-20T09:19:20Z</time>
      </trkpt>
      <trkpt lat="45.13517" lon="5.89573">
        <ele>1827</ele>
        <time>2021-12-20T09:19:22Z</time>
      </trkpt>
      <trkpt lat="45.13518" lon="5.89572">
        <ele>1826</ele>
        <time>2021-12-20T09:19:24Z</time>
      </trkpt>
      <trkpt lat="45.13517" lon="5.89572">
        <ele>1827</ele>
        <time>2021-12-20T09:19:26Z</time>
      </trkpt>
      <trkpt lat="45.13519" lon="5.89571">
        <ele>1827</ele>
        <time>2021-12-20T09:19:34Z</time>
      </trkpt>
      <trkpt lat="45.13519" lon="5.8957">
        <ele>1827</ele>
        <time>2021-12-20T09:19:36Z</time>
      </trkpt>
      <trkpt lat="45.1352" lon="5.8957">
        <ele>1826</ele>
        <time>2021-12-20T09:19:40Z</time>
      </trkpt>
      <trkpt lat="45.13519" lon="5.8957">
        <ele>1827</ele>
        <time>2021-12-20T09:19:44Z</time>
      </trkpt>
      <trkpt lat="45.13519" lon="5.89569">
        <ele>1828</ele>
        <time>2021-12-20T09:19:52Z</time>
      </trkpt>
      <trkpt lat="45.13518" lon="5.8957">
        <ele>1830</ele>
        <time>2021-12-20T09:19:54Z</time>
      </trkpt>
      <trkpt lat="45.13518" lon="5.89569">
        <ele>1829</ele>
        <time>2021-12-20T09:19:56Z</time>
      </trkpt>
      <trkpt lat="45.13519" lon="5.8957">
        <ele>1829</ele>
        <time>2021-12-20T09:20:04Z</time>
      </trkpt>
      <trkpt lat="45.13521" lon="5.89569">
        <ele>1831</ele>
        <time>2021-12-20T09:20:28Z</time>
      </trkpt>
      <trkpt lat="45.13521" lon="5.89571">
        <ele>1831</ele>
        <time>2021-12-20T09:20:30Z</time>
      </trkpt>
      <trkpt lat="45.13522" lon="5.89571">
        <ele>1830</ele>
        <time>2021-12-20T09:20:32Z</time>
      </trkpt>
      <trkpt lat="45.13523" lon="5.89571">
        <ele>1830</ele>
        <time>2021-12-20T09:20:34Z</time>
      </trkpt>
      <trkpt lat="45.13523" lon="5.8957">
        <ele>1829</ele>
        <time>2021-12-20T09:20:36Z</time>
      </trkpt>
      <trkpt lat="45.13522" lon="5.89569">
        <ele>1830</ele>
        <time>2021-12-20T09:20:40Z</time>
      </trkpt>
      <trkpt lat="45.13523" lon="5.89569">
        <ele>1831</ele>
        <time>2021-12-20T09:20:44Z</time>
      </trkpt>
      <trkpt lat="45.13522" lon="5.8957">
        <ele>1832</ele>
        <time>2021-12-20T09:20:46Z</time>
      </trkpt>
      <trkpt lat="45.13522" lon="5.89569">
        <ele>1832</ele>
        <time>2021-12-20T09:20:48Z</time>
      </trkpt>
      <trkpt lat="45.13522" lon="5.89571">
        <ele>1831</ele>
        <time>2021-12-20T09:21:40Z</time>
      </trkpt>
      <trkpt lat="45.13522" lon="5.8957">
        <ele>1832</ele>
        <time>2021-12-20T09:21:44Z</time>
      </trkpt>
      <trkpt lat="45.13524" lon="5.89569">
        <ele>1831</ele>
        <time>2021-12-20T09:21:56Z</time>
      </trkpt>
      <trkpt lat="45.13524" lon="5.8957">
        <ele>1833</ele>
        <time>2021-12-20T09:21:58Z</time>
      </trkpt>
      <trkpt lat="45.13525" lon="5.8957">
        <ele>1833</ele>
        <time>2021-12-20T09:22:00Z</time>
      </trkpt>
      <trkpt lat="45.13526" lon="5.89569">
        <ele>1834</ele>
        <time>2021-12-20T09:22:18Z</time>
      </trkpt>
      <trkpt lat="45.1352" lon="5.89571">
        <ele>1836</ele>
        <time>2021-12-20T09:22:34Z</time>
      </trkpt>
      <trkpt lat="45.13517" lon="5.89571">
        <ele>1837</ele>
        <time>2021-12-20T09:22:36Z</time>
      </trkpt>
      <trkpt lat="45.13517" lon="5.89573">
        <ele>1836</ele>
        <time>2021-12-20T09:22:46Z</time>
      </trkpt>
      <trkpt lat="45.13518" lon="5.89573">
        <ele>1837</ele>
        <time>2021-12-20T09:22:50Z</time>
      </trkpt>
      <trkpt lat="45.13519" lon="5.89572">
        <ele>1837</ele>
        <time>2021-12-20T09:22:52Z</time>
      </trkpt>
      <trkpt lat="45.13519" lon="5.89571">
        <ele>1838</ele>
        <time>2021-12-20T09:23:00Z</time>
      </trkpt>
      <trkpt lat="45.1352" lon="5.89571">
        <ele>1839</ele>
        <time>2021-12-20T09:23:02Z</time>
      </trkpt>
      <trkpt lat="45.1352" lon="5.8957">
        <ele>1839</ele>
        <time>2021-12-20T09:23:04Z</time>
      </trkpt>
      <trkpt lat="45.13521" lon="5.89571">
        <ele>1840</ele>
        <time>2021-12-20T09:23:10Z</time>
      </trkpt>
      <trkpt lat="45.13521" lon="5.89572">
        <ele>1840</ele>
        <time>2021-12-20T09:23:16Z</time>
      </trkpt>
      <trkpt lat="45.13516" lon="5.89577">
        <ele>1836</ele>
        <time>2021-12-20T09:23:24Z</time>
      </trkpt>
      <trkpt lat="45.13511" lon="5.89582">
        <ele>1832</ele>
        <time>2021-12-20T09:23:30Z</time>
      </trkpt>
      <trkpt lat="45.13506" lon="5.89585">
        <ele>1828</ele>
        <time>2021-12-20T09:23:38Z</time>
      </trkpt>
      <trkpt lat="45.13506" lon="5.89595">
        <ele>1826</ele>
        <time>2021-12-20T09:23:44Z</time>
      </trkpt>
      <trkpt lat="45.13506" lon="5.89596">
        <ele>1826</ele>
        <time>2021-12-20T09:23:46Z</time>
      </trkpt>
      <trkpt lat="45.13506" lon="5.89598">
        <ele>1826</ele>
        <time>2021-12-20T09:23:48Z</time>
      </trkpt>
      <trkpt lat="45.13507" lon="5.89599">
        <ele>1827</ele>
        <time>2021-12-20T09:23:50Z</time>
      </trkpt>
      <trkpt lat="45.13507" lon="5.89602">
        <ele>1826</ele>
        <time>2021-12-20T09:23:54Z</time>
      </trkpt>
      <trkpt lat="45.13506" lon="5.89604">
        <ele>1824</ele>
        <time>2021-12-20T09:23:56Z</time>
      </trkpt>
      <trkpt lat="45.13505" lon="5.89604">
        <ele>1824</ele>
        <time>2021-12-20T09:23:58Z</time>
      </trkpt>
      <trkpt lat="45.13503" lon="5.89606">
        <ele>1825</ele>
        <time>2021-12-20T09:24:02Z</time>
      </trkpt>
      <trkpt lat="45.13502" lon="5.89606">
        <ele>1826</ele>
        <time>2021-12-20T09:24:06Z</time>
      </trkpt>
      <trkpt lat="45.13501" lon="5.89605">
        <ele>1827</ele>
        <time>2021-12-20T09:24:14Z</time>
      </trkpt>
      <trkpt lat="45.13502" lon="5.89612">
        <ele>1829</ele>
        <time>2021-12-20T09:24:24Z</time>
      </trkpt>
      <trkpt lat="45.13503" lon="5.89618">
        <ele>1830</ele>
        <time>2021-12-20T09:24:32Z</time>
      </trkpt>
      <trkpt lat="45.13503" lon="5.89619">
        <ele>1830</ele>
        <time>2021-12-20T09:24:34Z</time>
      </trkpt>
      <trkpt lat="45.13503" lon="5.8962">
        <ele>1829</ele>
        <time>2021-12-20T09:24:42Z</time>
      </trkpt>
      <trkpt lat="45.13503" lon="5.89622">
        <ele>1828</ele>
        <time>2021-12-20T09:24:44Z</time>
      </trkpt>
      <trkpt lat="45.13502" lon="5.89623">
        <ele>1829</ele>
        <time>2021-12-20T09:24:52Z</time>
      </trkpt>
      <trkpt lat="45.13501" lon="5.89624">
        <ele>1829</ele>
        <time>2021-12-20T09:24:56Z</time>
      </trkpt>
      <trkpt lat="45.135" lon="5.89624">
        <ele>1829</ele>
        <time>2021-12-20T09:24:58Z</time>
      </trkpt>
      <trkpt lat="45.135" lon="5.89625">
        <ele>1829</ele>
        <time>2021-12-20T09:25:00Z</time>
      </trkpt>
      <trkpt lat="45.135" lon="5.89624">
        <ele>1829</ele>
        <time>2021-12-20T09:25:02Z</time>
      </trkpt>
      <trkpt lat="45.13501" lon="5.89624">
        <ele>1828</ele>
        <time>2021-12-20T09:25:06Z</time>
      </trkpt>
      <trkpt lat="45.13502" lon="5.8963">
        <ele>1826</ele>
        <time>2021-12-20T09:25:18Z</time>
      </trkpt>
      <trkpt lat="45.13502" lon="5.89633">
        <ele>1824</ele>
        <time>2021-12-20T09:25:25Z</time>
      </trkpt>
      <trkpt lat="45.13503" lon="5.89635">
        <ele>1824</ele>
        <time>2021-12-20T09:25:27Z</time>
      </trkpt>
      <trkpt lat="45.13503" lon="5.89636">
        <ele>1824</ele>
        <time>2021-12-20T09:25:29Z</time>
      </trkpt>
      <trkpt lat="45.13504" lon="5.89638">
        <ele>1824</ele>
        <time>2021-12-20T09:25:31Z</time>
      </trkpt>
      <trkpt lat="45.13505" lon="5.89644">
        <ele>1824</ele>
        <time>2021-12-20T09:25:41Z</time>
      </trkpt>
      <trkpt lat="45.13507" lon="5.89644">
        <ele>1824</ele>
        <time>2021-12-20T09:25:45Z</time>
      </trkpt>
      <trkpt lat="45.13508" lon="5.89643">
        <ele>1824</ele>
        <time>2021-12-20T09:25:47Z</time>
      </trkpt>
      <trkpt lat="45.13506" lon="5.89645">
        <ele>1824</ele>
        <time>2021-12-20T09:25:49Z</time>
      </trkpt>
      <trkpt lat="45.13509" lon="5.89652">
        <ele>1824</ele>
        <time>2021-12-20T09:25:55Z</time>
      </trkpt>
      <trkpt lat="45.13511" lon="5.89658">
        <ele>1824</ele>
        <time>2021-12-20T09:25:57Z</time>
      </trkpt>
      <trkpt lat="45.13512" lon="5.89664">
        <ele>1824</ele>
        <time>2021-12-20T09:25:59Z</time>
      </trkpt>
      <trkpt lat="45.13517" lon="5.89675">
        <ele>1824</ele>
        <time>2021-12-20T09:26:03Z</time>
      </trkpt>
      <trkpt lat="45.13518" lon="5.89679">
        <ele>1823</ele>
        <time>2021-12-20T09:26:11Z</time>
      </trkpt>
      <trkpt lat="45.13518" lon="5.89678">
        <ele>1823</ele>
        <time>2021-12-20T09:26:13Z</time>
      </trkpt>
      <trkpt lat="45.13517" lon="5.8968">
        <ele>1822</ele>
        <time>2021-12-20T09:26:15Z</time>
      </trkpt>
      <trkpt lat="45.13516" lon="5.89686">
        <ele>1821</ele>
        <time>2021-12-20T09:26:21Z</time>
      </trkpt>
      <trkpt lat="45.13516" lon="5.89687">
        <ele>1821</ele>
        <time>2021-12-20T09:26:23Z</time>
      </trkpt>
      <trkpt lat="45.13516" lon="5.89693">
        <ele>1820</ele>
        <time>2021-12-20T09:26:25Z</time>
      </trkpt>
      <trkpt lat="45.13518" lon="5.89702">
        <ele>1820</ele>
        <time>2021-12-20T09:26:31Z</time>
      </trkpt>
      <trkpt lat="45.13521" lon="5.89709">
        <ele>1817</ele>
        <time>2021-12-20T09:26:37Z</time>
      </trkpt>
      <trkpt lat="45.13526" lon="5.89715">
        <ele>1815</ele>
        <time>2021-12-20T09:26:45Z</time>
      </trkpt>
      <trkpt lat="45.13527" lon="5.89718">
        <ele>1814</ele>
        <time>2021-12-20T09:26:49Z</time>
      </trkpt>
      <trkpt lat="45.13527" lon="5.89719">
        <ele>1814</ele>
        <time>2021-12-20T09:26:51Z</time>
      </trkpt>
      <trkpt lat="45.13528" lon="5.89721">
        <ele>1813</ele>
        <time>2021-12-20T09:26:53Z</time>
      </trkpt>
      <trkpt lat="45.1353" lon="5.89728">
        <ele>1811</ele>
        <time>2021-12-20T09:26:59Z</time>
      </trkpt>
      <trkpt lat="45.13533" lon="5.89733">
        <ele>1811</ele>
        <time>2021-12-20T09:27:05Z</time>
      </trkpt>
      <trkpt lat="45.13534" lon="5.89741">
        <ele>1811</ele>
        <time>2021-12-20T09:27:11Z</time>
      </trkpt>
      <trkpt lat="45.13536" lon="5.89748">
        <ele>1811</ele>
        <time>2021-12-20T09:27:19Z</time>
      </trkpt>
      <trkpt lat="45.13537" lon="5.89755">
        <ele>1811</ele>
        <time>2021-12-20T09:27:29Z</time>
      </trkpt>
      <trkpt lat="45.13538" lon="5.89763">
        <ele>1814</ele>
        <time>2021-12-20T09:27:37Z</time>
      </trkpt>
      <trkpt lat="45.1354" lon="5.89768">
        <ele>1814</ele>
        <time>2021-12-20T09:27:43Z</time>
      </trkpt>
      <trkpt lat="45.13541" lon="5.89769">
        <ele>1814</ele>
        <time>2021-12-20T09:27:45Z</time>
      </trkpt>
      <trkpt lat="45.13541" lon="5.89771">
        <ele>1813</ele>
        <time>2021-12-20T09:27:47Z</time>
      </trkpt>
      <trkpt lat="45.1354" lon="5.89779">
        <ele>1814</ele>
        <time>2021-12-20T09:27:59Z</time>
      </trkpt>
      <trkpt lat="45.13539" lon="5.89779">
        <ele>1814</ele>
        <time>2021-12-20T09:28:07Z</time>
      </trkpt>
      <trkpt lat="45.13538" lon="5.89779">
        <ele>1814</ele>
        <time>2021-12-20T09:28:09Z</time>
      </trkpt>
      <trkpt lat="45.13533" lon="5.8978">
        <ele>1817</ele>
        <time>2021-12-20T09:28:17Z</time>
      </trkpt>
      <trkpt lat="45.1353" lon="5.89785">
        <ele>1820</ele>
        <time>2021-12-20T09:28:31Z</time>
      </trkpt>
      <trkpt lat="45.13526" lon="5.89781">
        <ele>1824</ele>
        <time>2021-12-20T09:28:43Z</time>
      </trkpt>
      <trkpt lat="45.13525" lon="5.89789">
        <ele>1824</ele>
        <time>2021-12-20T09:28:53Z</time>
      </trkpt>
      <trkpt lat="45.13524" lon="5.89788">
        <ele>1825</ele>
        <time>2021-12-20T09:28:59Z</time>
      </trkpt>
      <trkpt lat="45.13524" lon="5.89787">
        <ele>1824</ele>
        <time>2021-12-20T09:29:03Z</time>
      </trkpt>
      <trkpt lat="45.13525" lon="5.89791">
        <ele>1827</ele>
        <time>2021-12-20T09:29:09Z</time>
      </trkpt>
      <trkpt lat="45.13526" lon="5.89791">
        <ele>1827</ele>
        <time>2021-12-20T09:29:11Z</time>
      </trkpt>
      <trkpt lat="45.13528" lon="5.89793">
        <ele>1828</ele>
        <time>2021-12-20T09:29:17Z</time>
      </trkpt>
      <trkpt lat="45.13528" lon="5.898">
        <ele>1830</ele>
        <time>2021-12-20T09:29:27Z</time>
      </trkpt>
      <trkpt lat="45.13527" lon="5.89802">
        <ele>1830</ele>
        <time>2021-12-20T09:29:31Z</time>
      </trkpt>
      <trkpt lat="45.13528" lon="5.89803">
        <ele>1830</ele>
        <time>2021-12-20T09:29:33Z</time>
      </trkpt>
      <trkpt lat="45.13529" lon="5.89805">
        <ele>1831</ele>
        <time>2021-12-20T09:29:37Z</time>
      </trkpt>
      <trkpt lat="45.13528" lon="5.89808">
        <ele>1831</ele>
        <time>2021-12-20T09:29:39Z</time>
      </trkpt>
      <trkpt lat="45.13528" lon="5.89809">
        <ele>1831</ele>
        <time>2021-12-20T09:29:41Z</time>
      </trkpt>
      <trkpt lat="45.13529" lon="5.8981">
        <ele>1830</ele>
        <time>2021-12-20T09:29:43Z</time>
      </trkpt>
      <trkpt lat="45.13527" lon="5.89808">
        <ele>1830</ele>
        <time>2021-12-20T09:29:49Z</time>
      </trkpt>
      <trkpt lat="45.13525" lon="5.8981">
        <ele>1832</ele>
        <time>2021-12-20T09:29:53Z</time>
      </trkpt>
      <trkpt lat="45.13523" lon="5.89817">
        <ele>1833</ele>
        <time>2021-12-20T09:30:07Z</time>
      </trkpt>
      <trkpt lat="45.13522" lon="5.89818">
        <ele>1833</ele>
        <time>2021-12-20T09:30:13Z</time>
      </trkpt>
      <trkpt lat="45.13523" lon="5.8982">
        <ele>1834</ele>
        <time>2021-12-20T09:30:15Z</time>
      </trkpt>
      <trkpt lat="45.13522" lon="5.89823">
        <ele>1833</ele>
        <time>2021-12-20T09:30:25Z</time>
      </trkpt>
      <trkpt lat="45.13521" lon="5.89823">
        <ele>1836</ele>
        <time>2021-12-20T09:30:31Z</time>
      </trkpt>
      <trkpt lat="45.1352" lon="5.89824">
        <ele>1837</ele>
        <time>2021-12-20T09:30:39Z</time>
      </trkpt>
      <trkpt lat="45.13521" lon="5.89825">
        <ele>1836</ele>
        <time>2021-12-20T09:30:49Z</time>
      </trkpt>
      <trkpt lat="45.13521" lon="5.89824">
        <ele>1837</ele>
        <time>2021-12-20T09:30:51Z</time>
      </trkpt>
      <trkpt lat="45.13521" lon="5.89823">
        <ele>1837</ele>
        <time>2021-12-20T09:30:53Z</time>
      </trkpt>
      <trkpt lat="45.1352" lon="5.89822">
        <ele>1837</ele>
        <time>2021-12-20T09:30:55Z</time>
      </trkpt>
      <trkpt lat="45.1352" lon="5.89821">
        <ele>1838</ele>
        <time>2021-12-20T09:31:21Z</time>
      </trkpt>
      <trkpt lat="45.13521" lon="5.8982">
        <ele>1839</ele>
        <time>2021-12-20T09:31:23Z</time>
      </trkpt>
      <trkpt lat="45.13521" lon="5.89819">
        <ele>1838</ele>
        <time>2021-12-20T09:31:29Z</time>
      </trkpt>
      <trkpt lat="45.1352" lon="5.8982">
        <ele>1840</ele>
        <time>2021-12-20T09:31:39Z</time>
      </trkpt>
      <trkpt lat="45.1352" lon="5.89822">
        <ele>1840</ele>
        <time>2021-12-20T09:31:41Z</time>
      </trkpt>
      <trkpt lat="45.13521" lon="5.89819">
        <ele>1842</ele>
        <time>2021-12-20T09:31:45Z</time>
      </trkpt>
      <trkpt lat="45.13521" lon="5.8982">
        <ele>1841</ele>
        <time>2021-12-20T09:31:48Z</time>
      </trkpt>
      <trkpt lat="45.13522" lon="5.8982">
        <ele>1839</ele>
        <time>2021-12-20T09:32:14Z</time>
      </trkpt>
      <trkpt lat="45.13523" lon="5.89819">
        <ele>1838</ele>
        <time>2021-12-20T09:32:18Z</time>
      </trkpt>
      <trkpt lat="45.13524" lon="5.89817">
        <ele>1838</ele>
        <time>2021-12-20T09:32:20Z</time>
      </trkpt>
      <trkpt lat="45.13525" lon="5.89817">
        <ele>1838</ele>
        <time>2021-12-20T09:32:22Z</time>
      </trkpt>
      <trkpt lat="45.13524" lon="5.89817">
        <ele>1839</ele>
        <time>2021-12-20T09:32:24Z</time>
      </trkpt>
      <trkpt lat="45.13525" lon="5.89816">
        <ele>1838</ele>
        <time>2021-12-20T09:32:26Z</time>
      </trkpt>
      <trkpt lat="45.13523" lon="5.89815">
        <ele>1841</ele>
        <time>2021-12-20T09:32:36Z</time>
      </trkpt>
      <trkpt lat="45.13522" lon="5.89815">
        <ele>1841</ele>
        <time>2021-12-20T09:32:38Z</time>
      </trkpt>
      <trkpt lat="45.13522" lon="5.89816">
        <ele>1839</ele>
        <time>2021-12-20T09:32:48Z</time>
      </trkpt>
      <trkpt lat="45.13522" lon="5.89817">
        <ele>1840</ele>
        <time>2021-12-20T09:32:50Z</time>
      </trkpt>
      <trkpt lat="45.13522" lon="5.89818">
        <ele>1840</ele>
        <time>2021-12-20T09:32:52Z</time>
      </trkpt>
      <trkpt lat="45.13522" lon="5.89819">
        <ele>1839</ele>
        <time>2021-12-20T09:33:02Z</time>
      </trkpt>
      <trkpt lat="45.13521" lon="5.89827">
        <ele>1839</ele>
        <time>2021-12-20T09:33:08Z</time>
      </trkpt>
      <trkpt lat="45.13521" lon="5.8983">
        <ele>1840</ele>
        <time>2021-12-20T09:33:14Z</time>
      </trkpt>
      <trkpt lat="45.13523" lon="5.89832">
        <ele>1841</ele>
        <time>2021-12-20T09:33:26Z</time>
      </trkpt>
      <trkpt lat="45.13522" lon="5.89831">
        <ele>1840</ele>
        <time>2021-12-20T09:33:32Z</time>
      </trkpt>
      <trkpt lat="45.13521" lon="5.89832">
        <ele>1839</ele>
        <time>2021-12-20T09:33:34Z</time>
      </trkpt>
      <trkpt lat="45.1352" lon="5.89835">
        <ele>1838</ele>
        <time>2021-12-20T09:33:36Z</time>
      </trkpt>
      <trkpt lat="45.13521" lon="5.89835">
        <ele>1838</ele>
        <time>2021-12-20T09:33:38Z</time>
      </trkpt>
      <trkpt lat="45.13519" lon="5.89835">
        <ele>1838</ele>
        <time>2021-12-20T09:33:42Z</time>
      </trkpt>
      <trkpt lat="45.1352" lon="5.89835">
        <ele>1837</ele>
        <time>2021-12-20T09:33:44Z</time>
      </trkpt>
      <trkpt lat="45.1352" lon="5.89833">
        <ele>1837</ele>
        <time>2021-12-20T09:33:50Z</time>
      </trkpt>
      <trkpt lat="45.1352" lon="5.89832">
        <ele>1838</ele>
        <time>2021-12-20T09:33:52Z</time>
      </trkpt>
      <trkpt lat="45.13521" lon="5.89833">
        <ele>1836</ele>
        <time>2021-12-20T09:33:56Z</time>
      </trkpt>
      <trkpt lat="45.13521" lon="5.89832">
        <ele>1836</ele>
        <time>2021-12-20T09:34:00Z</time>
      </trkpt>
      <trkpt lat="45.1352" lon="5.89832">
        <ele>1836</ele>
        <time>2021-12-20T09:34:02Z</time>
      </trkpt>
      <trkpt lat="45.13525" lon="5.89837">
        <ele>1836</ele>
        <time>2021-12-20T09:34:10Z</time>
      </trkpt>
      <trkpt lat="45.13533" lon="5.89844">
        <ele>1836</ele>
        <time>2021-12-20T09:34:14Z</time>
      </trkpt>
      <trkpt lat="45.13535" lon="5.89849">
        <ele>1837</ele>
        <time>2021-12-20T09:34:18Z</time>
      </trkpt>
      <trkpt lat="45.13532" lon="5.89855">
        <ele>1836</ele>
        <time>2021-12-20T09:34:22Z</time>
      </trkpt>
      <trkpt lat="45.13526" lon="5.89855">
        <ele>1835</ele>
        <time>2021-12-20T09:34:26Z</time>
      </trkpt>
      <trkpt lat="45.13521" lon="5.89855">
        <ele>1834</ele>
        <time>2021-12-20T09:34:28Z</time>
      </trkpt>
      <trkpt lat="45.13515" lon="5.89856">
        <ele>1835</ele>
        <time>2021-12-20T09:34:30Z</time>
      </trkpt>
      <trkpt lat="45.13508" lon="5.89862">
        <ele>1836</ele>
        <time>2021-12-20T09:34:32Z</time>
      </trkpt>
      <trkpt lat="45.13504" lon="5.89865">
        <ele>1835</ele>
        <time>2021-12-20T09:34:34Z</time>
      </trkpt>
      <trkpt lat="45.1351" lon="5.89868">
        <ele>1834</ele>
        <time>2021-12-20T09:34:42Z</time>
      </trkpt>
      <trkpt lat="45.13515" lon="5.89866">
        <ele>1834</ele>
        <time>2021-12-20T09:34:46Z</time>
      </trkpt>
      <trkpt lat="45.13513" lon="5.89872">
        <ele>1833</ele>
        <time>2021-12-20T09:34:54Z</time>
      </trkpt>
      <trkpt lat="45.13512" lon="5.89879">
        <ele>1832</ele>
        <time>2021-12-20T09:35:00Z</time>
      </trkpt>
      <trkpt lat="45.13515" lon="5.89888">
        <ele>1829</ele>
        <time>2021-12-20T09:35:08Z</time>
      </trkpt>
      <trkpt lat="45.13513" lon="5.89897">
        <ele>1827</ele>
        <time>2021-12-20T09:35:10Z</time>
      </trkpt>
      <trkpt lat="45.13509" lon="5.89913">
        <ele>1826</ele>
        <time>2021-12-20T09:35:12Z</time>
      </trkpt>
      <trkpt lat="45.13507" lon="5.89926">
        <ele>1824</ele>
        <time>2021-12-20T09:35:14Z</time>
      </trkpt>
      <trkpt lat="45.13504" lon="5.89931">
        <ele>1822</ele>
        <time>2021-12-20T09:35:16Z</time>
      </trkpt>
      <trkpt lat="45.13502" lon="5.89932">
        <ele>1814</ele>
        <time>2021-12-20T09:35:22Z</time>
      </trkpt>
      <trkpt lat="45.13501" lon="5.89932">
        <ele>1813</ele>
        <time>2021-12-20T09:35:24Z</time>
      </trkpt>
      <trkpt lat="45.13503" lon="5.8993">
        <ele>1812</ele>
        <time>2021-12-20T09:35:32Z</time>
      </trkpt>
      <trkpt lat="45.13503" lon="5.89931">
        <ele>1810</ele>
        <time>2021-12-20T09:35:36Z</time>
      </trkpt>
      <trkpt lat="45.13503" lon="5.8993">
        <ele>1809</ele>
        <time>2021-12-20T09:35:40Z</time>
      </trkpt>
      <trkpt lat="45.13505" lon="5.89931">
        <ele>1808</ele>
        <time>2021-12-20T09:35:48Z</time>
      </trkpt>
      <trkpt lat="45.13504" lon="5.89931">
        <ele>1808</ele>
        <time>2021-12-20T09:35:52Z</time>
      </trkpt>
      <trkpt lat="45.13503" lon="5.89939">
        <ele>1806</ele>
        <time>2021-12-20T09:35:58Z</time>
      </trkpt>
      <trkpt lat="45.13502" lon="5.89946">
        <ele>1806</ele>
        <time>2021-12-20T09:36:02Z</time>
      </trkpt>
      <trkpt lat="45.13501" lon="5.89953">
        <ele>1806</ele>
        <time>2021-12-20T09:36:08Z</time>
      </trkpt>
      <trkpt lat="45.13502" lon="5.89951">
        <ele>1807</ele>
        <time>2021-12-20T09:36:10Z</time>
      </trkpt>
      <trkpt lat="45.13501" lon="5.89953">
        <ele>1806</ele>
        <time>2021-12-20T09:36:14Z</time>
      </trkpt>
      <trkpt lat="45.13497" lon="5.89957">
        <ele>1806</ele>
        <time>2021-12-20T09:36:18Z</time>
      </trkpt>
      <trkpt lat="45.13493" lon="5.89963">
        <ele>1805</ele>
        <time>2021-12-20T09:36:24Z</time>
      </trkpt>
      <trkpt lat="45.13491" lon="5.89969">
        <ele>1804</ele>
        <time>2021-12-20T09:36:30Z</time>
      </trkpt>
      <trkpt lat="45.13488" lon="5.89975">
        <ele>1803</ele>
        <time>2021-12-20T09:36:36Z</time>
      </trkpt>
      <trkpt lat="45.13485" lon="5.89981">
        <ele>1804</ele>
        <time>2021-12-20T09:36:42Z</time>
      </trkpt>
      <trkpt lat="45.13483" lon="5.89989">
        <ele>1804</ele>
        <time>2021-12-20T09:36:50Z</time>
      </trkpt>
      <trkpt lat="45.13483" lon="5.89997">
        <ele>1805</ele>
        <time>2021-12-20T09:36:58Z</time>
      </trkpt>
      <trkpt lat="45.13483" lon="5.90002">
        <ele>1806</ele>
        <time>2021-12-20T09:37:07Z</time>
      </trkpt>
      <trkpt lat="45.13485" lon="5.89999">
        <ele>1805</ele>
        <time>2021-12-20T09:37:10Z</time>
      </trkpt>
      <trkpt lat="45.13486" lon="5.89999">
        <ele>1805</ele>
        <time>2021-12-20T09:37:26Z</time>
      </trkpt>
      <trkpt lat="45.13485" lon="5.89999">
        <ele>1805</ele>
        <time>2021-12-20T09:37:28Z</time>
      </trkpt>
      <trkpt lat="45.13483" lon="5.90005">
        <ele>1805</ele>
        <time>2021-12-20T09:37:36Z</time>
      </trkpt>
      <trkpt lat="45.13486" lon="5.90011">
        <ele>1807</ele>
        <time>2021-12-20T09:37:44Z</time>
      </trkpt>
      <trkpt lat="45.13484" lon="5.90019">
        <ele>1807</ele>
        <time>2021-12-20T09:37:52Z</time>
      </trkpt>
      <trkpt lat="45.13482" lon="5.9002">
        <ele>1805</ele>
        <time>2021-12-20T09:38:00Z</time>
      </trkpt>
      <trkpt lat="45.13482" lon="5.90021">
        <ele>1804</ele>
        <time>2021-12-20T09:38:04Z</time>
      </trkpt>
      <trkpt lat="45.13481" lon="5.90028">
        <ele>1804</ele>
        <time>2021-12-20T09:38:12Z</time>
      </trkpt>
      <trkpt lat="45.13482" lon="5.90034">
        <ele>1804</ele>
        <time>2021-12-20T09:38:18Z</time>
      </trkpt>
      <trkpt lat="45.13482" lon="5.90042">
        <ele>1807</ele>
        <time>2021-12-20T09:38:28Z</time>
      </trkpt>
      <trkpt lat="45.13481" lon="5.90049">
        <ele>1810</ele>
        <time>2021-12-20T09:38:42Z</time>
      </trkpt>
      <trkpt lat="45.13481" lon="5.90056">
        <ele>1811</ele>
        <time>2021-12-20T09:38:52Z</time>
      </trkpt>
      <trkpt lat="45.13481" lon="5.90063">
        <ele>1812</ele>
        <time>2021-12-20T09:39:02Z</time>
      </trkpt>
      <trkpt lat="45.13484" lon="5.90066">
        <ele>1815</ele>
        <time>2021-12-20T09:39:10Z</time>
      </trkpt>
      <trkpt lat="45.13485" lon="5.90066">
        <ele>1816</ele>
        <time>2021-12-20T09:39:12Z</time>
      </trkpt>
      <trkpt lat="45.13485" lon="5.90067">
        <ele>1816</ele>
        <time>2021-12-20T09:39:14Z</time>
      </trkpt>
      <trkpt lat="45.13484" lon="5.90073">
        <ele>1821</ele>
        <time>2021-12-20T09:39:28Z</time>
      </trkpt>
      <trkpt lat="45.13479" lon="5.90076">
        <ele>1825</ele>
        <time>2021-12-20T09:39:44Z</time>
      </trkpt>
      <trkpt lat="45.13477" lon="5.9008">
        <ele>1828</ele>
        <time>2021-12-20T09:39:56Z</time>
      </trkpt>
      <trkpt lat="45.13476" lon="5.90081">
        <ele>1827</ele>
        <time>2021-12-20T09:39:58Z</time>
      </trkpt>
      <trkpt lat="45.13476" lon="5.90082">
        <ele>1827</ele>
        <time>2021-12-20T09:40:00Z</time>
      </trkpt>
      <trkpt lat="45.1348" lon="5.90087">
        <ele>1829</ele>
        <time>2021-12-20T09:40:12Z</time>
      </trkpt>
      <trkpt lat="45.13481" lon="5.90094">
        <ele>1828</ele>
        <time>2021-12-20T09:40:22Z</time>
      </trkpt>
      <trkpt lat="45.13483" lon="5.90097">
        <ele>1828</ele>
        <time>2021-12-20T09:40:30Z</time>
      </trkpt>
      <trkpt lat="45.13483" lon="5.90098">
        <ele>1829</ele>
        <time>2021-12-20T09:40:32Z</time>
      </trkpt>
      <trkpt lat="45.13483" lon="5.90099">
        <ele>1829</ele>
        <time>2021-12-20T09:40:34Z</time>
      </trkpt>
      <trkpt lat="45.13487" lon="5.90103">
        <ele>1830</ele>
        <time>2021-12-20T09:40:44Z</time>
      </trkpt>
      <trkpt lat="45.13491" lon="5.90105">
        <ele>1833</ele>
        <time>2021-12-20T09:40:58Z</time>
      </trkpt>
      <trkpt lat="45.13487" lon="5.90108">
        <ele>1832</ele>
        <time>2021-12-20T09:41:18Z</time>
      </trkpt>
      <trkpt lat="45.13487" lon="5.90106">
        <ele>1835</ele>
        <time>2021-12-20T09:41:24Z</time>
      </trkpt>
      <trkpt lat="45.13486" lon="5.90107">
        <ele>1835</ele>
        <time>2021-12-20T09:41:28Z</time>
      </trkpt>
      <trkpt lat="45.13485" lon="5.9011">
        <ele>1838</ele>
        <time>2021-12-20T09:41:38Z</time>
      </trkpt>
      <trkpt lat="45.13484" lon="5.90111">
        <ele>1838</ele>
        <time>2021-12-20T09:41:40Z</time>
      </trkpt>
      <trkpt lat="45.13486" lon="5.90112">
        <ele>1838</ele>
        <time>2021-12-20T09:41:48Z</time>
      </trkpt>
      <trkpt lat="45.13486" lon="5.90113">
        <ele>1838</ele>
        <time>2021-12-20T09:41:58Z</time>
      </trkpt>
      <trkpt lat="45.13485" lon="5.90113">
        <ele>1836</ele>
        <time>2021-12-20T09:42:02Z</time>
      </trkpt>
      <trkpt lat="45.13484" lon="5.90112">
        <ele>1837</ele>
        <time>2021-12-20T09:42:22Z</time>
      </trkpt>
      <trkpt lat="45.13484" lon="5.90113">
        <ele>1837</ele>
        <time>2021-12-20T09:42:26Z</time>
      </trkpt>
      <trkpt lat="45.13484" lon="5.90114">
        <ele>1838</ele>
        <time>2021-12-20T09:42:28Z</time>
      </trkpt>
      <trkpt lat="45.13479" lon="5.90113">
        <ele>1841</ele>
        <time>2021-12-20T09:42:40Z</time>
      </trkpt>
      <trkpt lat="45.13475" lon="5.90113">
        <ele>1843</ele>
        <time>2021-12-20T09:42:48Z</time>
      </trkpt>
      <trkpt lat="45.13472" lon="5.90119">
        <ele>1844</ele>
        <time>2021-12-20T09:42:56Z</time>
      </trkpt>
      <trkpt lat="45.1347" lon="5.90125">
        <ele>1842</ele>
        <time>2021-12-20T09:43:06Z</time>
      </trkpt>
      <trkpt lat="45.13467" lon="5.90131">
        <ele>1843</ele>
        <time>2021-12-20T09:43:16Z</time>
      </trkpt>
      <trkpt lat="45.13463" lon="5.90136">
        <ele>1843</ele>
        <time>2021-12-20T09:43:22Z</time>
      </trkpt>
      <trkpt lat="45.13461" lon="5.90143">
        <ele>1844</ele>
        <time>2021-12-20T09:43:30Z</time>
      </trkpt>
      <trkpt lat="45.13461" lon="5.90146">
        <ele>1844</ele>
        <time>2021-12-20T09:43:43Z</time>
      </trkpt>
      <trkpt lat="45.13462" lon="5.90146">
        <ele>1845</ele>
        <time>2021-12-20T09:43:45Z</time>
      </trkpt>
      <trkpt lat="45.13461" lon="5.90147">
        <ele>1847</ele>
        <time>2021-12-20T09:44:29Z</time>
      </trkpt>
      <trkpt lat="45.13462" lon="5.90146">
        <ele>1848</ele>
        <time>2021-12-20T09:44:33Z</time>
      </trkpt>
      <trkpt lat="45.13466" lon="5.90152">
        <ele>1849</ele>
        <time>2021-12-20T09:44:51Z</time>
      </trkpt>
      <trkpt lat="45.13469" lon="5.90161">
        <ele>1849</ele>
        <time>2021-12-20T09:44:57Z</time>
      </trkpt>
      <trkpt lat="45.13469" lon="5.90169">
        <ele>1852</ele>
        <time>2021-12-20T09:45:03Z</time>
      </trkpt>
      <trkpt lat="45.1347" lon="5.90168">
        <ele>1851</ele>
        <time>2021-12-20T09:45:05Z</time>
      </trkpt>
      <trkpt lat="45.13469" lon="5.90168">
        <ele>1850</ele>
        <time>2021-12-20T09:45:13Z</time>
      </trkpt>
      <trkpt lat="45.13468" lon="5.90177">
        <ele>1852</ele>
        <time>2021-12-20T09:45:21Z</time>
      </trkpt>
      <trkpt lat="45.13468" lon="5.90184">
        <ele>1853</ele>
        <time>2021-12-20T09:45:27Z</time>
      </trkpt>
      <trkpt lat="45.13469" lon="5.90191">
        <ele>1853</ele>
        <time>2021-12-20T09:45:33Z</time>
      </trkpt>
      <trkpt lat="45.13468" lon="5.90199">
        <ele>1854</ele>
        <time>2021-12-20T09:45:39Z</time>
      </trkpt>
      <trkpt lat="45.13467" lon="5.90206">
        <ele>1854</ele>
        <time>2021-12-20T09:45:45Z</time>
      </trkpt>
      <trkpt lat="45.13467" lon="5.90213">
        <ele>1854</ele>
        <time>2021-12-20T09:45:51Z</time>
      </trkpt>
      <trkpt lat="45.13468" lon="5.9022">
        <ele>1855</ele>
        <time>2021-12-20T09:45:55Z</time>
      </trkpt>
      <trkpt lat="45.1347" lon="5.90226">
        <ele>1856</ele>
        <time>2021-12-20T09:46:01Z</time>
      </trkpt>
      <trkpt lat="45.13473" lon="5.90231">
        <ele>1855</ele>
        <time>2021-12-20T09:46:07Z</time>
      </trkpt>
      <trkpt lat="45.13475" lon="5.90238">
        <ele>1854</ele>
        <time>2021-12-20T09:46:11Z</time>
      </trkpt>
      <trkpt lat="45.13477" lon="5.90245">
        <ele>1855</ele>
        <time>2021-12-20T09:46:19Z</time>
      </trkpt>
      <trkpt lat="45.13477" lon="5.90252">
        <ele>1855</ele>
        <time>2021-12-20T09:46:25Z</time>
      </trkpt>
      <trkpt lat="45.13476" lon="5.90261">
        <ele>1854</ele>
        <time>2021-12-20T09:46:31Z</time>
      </trkpt>
      <trkpt lat="45.13476" lon="5.90269">
        <ele>1854</ele>
        <time>2021-12-20T09:46:37Z</time>
      </trkpt>
      <trkpt lat="45.13474" lon="5.90276">
        <ele>1853</ele>
        <time>2021-12-20T09:46:43Z</time>
      </trkpt>
      <trkpt lat="45.13474" lon="5.90285">
        <ele>1853</ele>
        <time>2021-12-20T09:46:49Z</time>
      </trkpt>
      <trkpt lat="45.13474" lon="5.90292">
        <ele>1852</ele>
        <time>2021-12-20T09:46:55Z</time>
      </trkpt>
      <trkpt lat="45.13477" lon="5.90295">
        <ele>1854</ele>
        <time>2021-12-20T09:46:59Z</time>
      </trkpt>
      <trkpt lat="45.13477" lon="5.90294">
        <ele>1854</ele>
        <time>2021-12-20T09:47:01Z</time>
      </trkpt>
      <trkpt lat="45.13477" lon="5.90295">
        <ele>1854</ele>
        <time>2021-12-20T09:47:03Z</time>
      </trkpt>
      <trkpt lat="45.13477" lon="5.90296">
        <ele>1854</ele>
        <time>2021-12-20T09:47:05Z</time>
      </trkpt>
      <trkpt lat="45.13478" lon="5.90301">
        <ele>1852</ele>
        <time>2021-12-20T09:47:13Z</time>
      </trkpt>
      <trkpt lat="45.13479" lon="5.903">
        <ele>1854</ele>
        <time>2021-12-20T09:47:23Z</time>
      </trkpt>
      <trkpt lat="45.13478" lon="5.903">
        <ele>1855</ele>
        <time>2021-12-20T09:47:29Z</time>
      </trkpt>
      <trkpt lat="45.13478" lon="5.90299">
        <ele>1852</ele>
        <time>2021-12-20T09:48:07Z</time>
      </trkpt>
      <trkpt lat="45.13479" lon="5.903">
        <ele>1853</ele>
        <time>2021-12-20T09:48:11Z</time>
      </trkpt>
      <trkpt lat="45.13479" lon="5.90299">
        <ele>1854</ele>
        <time>2021-12-20T09:48:21Z</time>
      </trkpt>
      <trkpt lat="45.1348" lon="5.90299">
        <ele>1854</ele>
        <time>2021-12-20T09:48:23Z</time>
      </trkpt>
      <trkpt lat="45.13478" lon="5.90301">
        <ele>1855</ele>
        <time>2021-12-20T09:48:41Z</time>
      </trkpt>
      <trkpt lat="45.13479" lon="5.90309">
        <ele>1856</ele>
        <time>2021-12-20T09:48:47Z</time>
      </trkpt>
      <trkpt lat="45.13477" lon="5.90317">
        <ele>1857</ele>
        <time>2021-12-20T09:48:53Z</time>
      </trkpt>
      <trkpt lat="45.13478" lon="5.90325">
        <ele>1856</ele>
        <time>2021-12-20T09:48:59Z</time>
      </trkpt>
      <trkpt lat="45.13478" lon="5.90333">
        <ele>1854</ele>
        <time>2021-12-20T09:49:05Z</time>
      </trkpt>
      <trkpt lat="45.13478" lon="5.90341">
        <ele>1854</ele>
        <time>2021-12-20T09:49:11Z</time>
      </trkpt>
      <trkpt lat="45.13478" lon="5.90349">
        <ele>1854</ele>
        <time>2021-12-20T09:49:17Z</time>
      </trkpt>
      <trkpt lat="45.13477" lon="5.90357">
        <ele>1853</ele>
        <time>2021-12-20T09:49:23Z</time>
      </trkpt>
      <trkpt lat="45.13476" lon="5.90363">
        <ele>1854</ele>
        <time>2021-12-20T09:49:29Z</time>
      </trkpt>
      <trkpt lat="45.13475" lon="5.9037">
        <ele>1855</ele>
        <time>2021-12-20T09:49:35Z</time>
      </trkpt>
      <trkpt lat="45.13472" lon="5.90378">
        <ele>1854</ele>
        <time>2021-12-20T09:49:41Z</time>
      </trkpt>
      <trkpt lat="45.13472" lon="5.90386">
        <ele>1854</ele>
        <time>2021-12-20T09:49:49Z</time>
      </trkpt>
      <trkpt lat="45.13473" lon="5.90393">
        <ele>1855</ele>
        <time>2021-12-20T09:49:55Z</time>
      </trkpt>
      <trkpt lat="45.13471" lon="5.90402">
        <ele>1853</ele>
        <time>2021-12-20T09:50:03Z</time>
      </trkpt>
      <trkpt lat="45.13472" lon="5.90408">
        <ele>1854</ele>
        <time>2021-12-20T09:50:09Z</time>
      </trkpt>
      <trkpt lat="45.13474" lon="5.90415">
        <ele>1854</ele>
        <time>2021-12-20T09:50:17Z</time>
      </trkpt>
      <trkpt lat="45.13473" lon="5.90423">
        <ele>1856</ele>
        <time>2021-12-20T09:50:25Z</time>
      </trkpt>
      <trkpt lat="45.13474" lon="5.9043">
        <ele>1858</ele>
        <time>2021-12-20T09:50:33Z</time>
      </trkpt>
      <trkpt lat="45.13479" lon="5.90433">
        <ele>1860</ele>
        <time>2021-12-20T09:50:41Z</time>
      </trkpt>
      <trkpt lat="45.13482" lon="5.90439">
        <ele>1861</ele>
        <time>2021-12-20T09:50:49Z</time>
      </trkpt>
      <trkpt lat="45.13487" lon="5.90439">
        <ele>1863</ele>
        <time>2021-12-20T09:50:55Z</time>
      </trkpt>
      <trkpt lat="45.1349" lon="5.90439">
        <ele>1865</ele>
        <time>2021-12-20T09:51:01Z</time>
      </trkpt>
      <trkpt lat="45.1349" lon="5.9044">
        <ele>1866</ele>
        <time>2021-12-20T09:51:03Z</time>
      </trkpt>
      <trkpt lat="45.13492" lon="5.90439">
        <ele>1867</ele>
        <time>2021-12-20T09:51:07Z</time>
      </trkpt>
      <trkpt lat="45.13491" lon="5.90439">
        <ele>1864</ele>
        <time>2021-12-20T09:51:15Z</time>
      </trkpt>
      <trkpt lat="45.13492" lon="5.90439">
        <ele>1864</ele>
        <time>2021-12-20T09:51:17Z</time>
      </trkpt>
      <trkpt lat="45.13492" lon="5.90438">
        <ele>1865</ele>
        <time>2021-12-20T09:51:19Z</time>
      </trkpt>
      <trkpt lat="45.13486" lon="5.90435">
        <ele>1868</ele>
        <time>2021-12-20T09:51:29Z</time>
      </trkpt>
      <trkpt lat="45.13482" lon="5.90436">
        <ele>1871</ele>
        <time>2021-12-20T09:51:37Z</time>
      </trkpt>
      <trkpt lat="45.13479" lon="5.90442">
        <ele>1870</ele>
        <time>2021-12-20T09:51:45Z</time>
      </trkpt>
      <trkpt lat="45.13475" lon="5.90446">
        <ele>1871</ele>
        <time>2021-12-20T09:51:51Z</time>
      </trkpt>
      <trkpt lat="45.13474" lon="5.90448">
        <ele>1870</ele>
        <time>2021-12-20T09:51:55Z</time>
      </trkpt>
      <trkpt lat="45.13475" lon="5.90447">
        <ele>1869</ele>
        <time>2021-12-20T09:51:57Z</time>
      </trkpt>
      <trkpt lat="45.13475" lon="5.90446">
        <ele>1870</ele>
        <time>2021-12-20T09:52:09Z</time>
      </trkpt>
      <trkpt lat="45.13476" lon="5.90445">
        <ele>1871</ele>
        <time>2021-12-20T09:52:11Z</time>
      </trkpt>
      <trkpt lat="45.13476" lon="5.9045">
        <ele>1870</ele>
        <time>2021-12-20T09:52:17Z</time>
      </trkpt>
      <trkpt lat="45.13475" lon="5.90456">
        <ele>1869</ele>
        <time>2021-12-20T09:52:23Z</time>
      </trkpt>
      <trkpt lat="45.13472" lon="5.90461">
        <ele>1870</ele>
        <time>2021-12-20T09:52:31Z</time>
      </trkpt>
      <trkpt lat="45.13469" lon="5.90468">
        <ele>1872</ele>
        <time>2021-12-20T09:52:41Z</time>
      </trkpt>
      <trkpt lat="45.13467" lon="5.90474">
        <ele>1870</ele>
        <time>2021-12-20T09:52:47Z</time>
      </trkpt>
      <trkpt lat="45.13464" lon="5.9048">
        <ele>1869</ele>
        <time>2021-12-20T09:52:55Z</time>
      </trkpt>
      <trkpt lat="45.13462" lon="5.90486">
        <ele>1870</ele>
        <time>2021-12-20T09:53:05Z</time>
      </trkpt>
      <trkpt lat="45.13462" lon="5.90487">
        <ele>1870</ele>
        <time>2021-12-20T09:53:07Z</time>
      </trkpt>
      <trkpt lat="45.13461" lon="5.90488">
        <ele>1870</ele>
        <time>2021-12-20T09:53:09Z</time>
      </trkpt>
      <trkpt lat="45.13461" lon="5.90489">
        <ele>1872</ele>
        <time>2021-12-20T09:53:13Z</time>
      </trkpt>
      <trkpt lat="45.13461" lon="5.90488">
        <ele>1873</ele>
        <time>2021-12-20T09:53:17Z</time>
      </trkpt>
      <trkpt lat="45.1346" lon="5.90488">
        <ele>1874</ele>
        <time>2021-12-20T09:53:19Z</time>
      </trkpt>
      <trkpt lat="45.13458" lon="5.90488">
        <ele>1872</ele>
        <time>2021-12-20T09:53:27Z</time>
      </trkpt>
      <trkpt lat="45.1346" lon="5.90488">
        <ele>1872</ele>
        <time>2021-12-20T09:53:29Z</time>
      </trkpt>
      <trkpt lat="45.13461" lon="5.90495">
        <ele>1871</ele>
        <time>2021-12-20T09:53:35Z</time>
      </trkpt>
      <trkpt lat="45.13461" lon="5.90501">
        <ele>1873</ele>
        <time>2021-12-20T09:53:43Z</time>
      </trkpt>
      <trkpt lat="45.13461" lon="5.90509">
        <ele>1876</ele>
        <time>2021-12-20T09:53:51Z</time>
      </trkpt>
      <trkpt lat="45.13462" lon="5.9051">
        <ele>1876</ele>
        <time>2021-12-20T09:53:53Z</time>
      </trkpt>
      <trkpt lat="45.13462" lon="5.90511">
        <ele>1876</ele>
        <time>2021-12-20T09:53:55Z</time>
      </trkpt>
      <trkpt lat="45.13462" lon="5.90512">
        <ele>1878</ele>
        <time>2021-12-20T09:53:59Z</time>
      </trkpt>
      <trkpt lat="45.13462" lon="5.90513">
        <ele>1877</ele>
        <time>2021-12-20T09:54:01Z</time>
      </trkpt>
      <trkpt lat="45.13463" lon="5.90514">
        <ele>1878</ele>
        <time>2021-12-20T09:54:03Z</time>
      </trkpt>
      <trkpt lat="45.13461" lon="5.90521">
        <ele>1879</ele>
        <time>2021-12-20T09:54:09Z</time>
      </trkpt>
      <trkpt lat="45.13461" lon="5.90528">
        <ele>1880</ele>
        <time>2021-12-20T09:54:17Z</time>
      </trkpt>
      <trkpt lat="45.13463" lon="5.90535">
        <ele>1882</ele>
        <time>2021-12-20T09:54:25Z</time>
      </trkpt>
      <trkpt lat="45.13465" lon="5.90538">
        <ele>1884</ele>
        <time>2021-12-20T09:54:35Z</time>
      </trkpt>
      <trkpt lat="45.13465" lon="5.90537">
        <ele>1885</ele>
        <time>2021-12-20T09:54:37Z</time>
      </trkpt>
      <trkpt lat="45.13464" lon="5.90537">
        <ele>1886</ele>
        <time>2021-12-20T09:54:39Z</time>
      </trkpt>
      <trkpt lat="45.13463" lon="5.90541">
        <ele>1885</ele>
        <time>2021-12-20T09:54:45Z</time>
      </trkpt>
      <trkpt lat="45.13464" lon="5.90542">
        <ele>1884</ele>
        <time>2021-12-20T09:54:47Z</time>
      </trkpt>
      <trkpt lat="45.13464" lon="5.90544">
        <ele>1884</ele>
        <time>2021-12-20T09:54:49Z</time>
      </trkpt>
      <trkpt lat="45.13466" lon="5.90548">
        <ele>1886</ele>
        <time>2021-12-20T09:55:15Z</time>
      </trkpt>
      <trkpt lat="45.13467" lon="5.90549">
        <ele>1887</ele>
        <time>2021-12-20T09:55:19Z</time>
      </trkpt>
      <trkpt lat="45.13465" lon="5.90554">
        <ele>1887</ele>
        <time>2021-12-20T09:55:39Z</time>
      </trkpt>
      <trkpt lat="45.13464" lon="5.90555">
        <ele>1887</ele>
        <time>2021-12-20T09:55:41Z</time>
      </trkpt>
      <trkpt lat="45.13463" lon="5.90555">
        <ele>1890</ele>
        <time>2021-12-20T09:55:47Z</time>
      </trkpt>
      <trkpt lat="45.13466" lon="5.9056">
        <ele>1889</ele>
        <time>2021-12-20T09:55:59Z</time>
      </trkpt>
      <trkpt lat="45.13467" lon="5.90561">
        <ele>1890</ele>
        <time>2021-12-20T09:56:03Z</time>
      </trkpt>
      <trkpt lat="45.13468" lon="5.9056">
        <ele>1891</ele>
        <time>2021-12-20T09:56:05Z</time>
      </trkpt>
      <trkpt lat="45.13468" lon="5.90559">
        <ele>1893</ele>
        <time>2021-12-20T09:56:13Z</time>
      </trkpt>
      <trkpt lat="45.13464" lon="5.90566">
        <ele>1891</ele>
        <time>2021-12-20T09:56:25Z</time>
      </trkpt>
      <trkpt lat="45.13461" lon="5.9057">
        <ele>1890</ele>
        <time>2021-12-20T09:56:33Z</time>
      </trkpt>
      <trkpt lat="45.13457" lon="5.90576">
        <ele>1889</ele>
        <time>2021-12-20T09:56:43Z</time>
      </trkpt>
      <trkpt lat="45.13453" lon="5.90582">
        <ele>1892</ele>
        <time>2021-12-20T09:56:53Z</time>
      </trkpt>
      <trkpt lat="45.13451" lon="5.90589">
        <ele>1894</ele>
        <time>2021-12-20T09:57:01Z</time>
      </trkpt>
      <trkpt lat="45.1345" lon="5.90595">
        <ele>1896</ele>
        <time>2021-12-20T09:57:09Z</time>
      </trkpt>
      <trkpt lat="45.1345" lon="5.90601">
        <ele>1898</ele>
        <time>2021-12-20T09:57:17Z</time>
      </trkpt>
      <trkpt lat="45.1345" lon="5.90602">
        <ele>1898</ele>
        <time>2021-12-20T09:57:19Z</time>
      </trkpt>
      <trkpt lat="45.1345" lon="5.90604">
        <ele>1899</ele>
        <time>2021-12-20T09:57:21Z</time>
      </trkpt>
      <trkpt lat="45.1345" lon="5.90606">
        <ele>1899</ele>
        <time>2021-12-20T09:57:23Z</time>
      </trkpt>
      <trkpt lat="45.1345" lon="5.90608">
        <ele>1900</ele>
        <time>2021-12-20T09:57:27Z</time>
      </trkpt>
      <trkpt lat="45.13451" lon="5.90613">
        <ele>1903</ele>
        <time>2021-12-20T09:57:39Z</time>
      </trkpt>
      <trkpt lat="45.13451" lon="5.90614">
        <ele>1903</ele>
        <time>2021-12-20T09:57:45Z</time>
      </trkpt>
      <trkpt lat="45.13452" lon="5.90615">
        <ele>1901</ele>
        <time>2021-12-20T09:57:47Z</time>
      </trkpt>
      <trkpt lat="45.13452" lon="5.90616">
        <ele>1901</ele>
        <time>2021-12-20T09:57:49Z</time>
      </trkpt>
      <trkpt lat="45.13452" lon="5.90614">
        <ele>1902</ele>
        <time>2021-12-20T09:57:57Z</time>
      </trkpt>
      <trkpt lat="45.13452" lon="5.90613">
        <ele>1902</ele>
        <time>2021-12-20T09:57:59Z</time>
      </trkpt>
      <trkpt lat="45.13451" lon="5.90613">
        <ele>1902</ele>
        <time>2021-12-20T09:58:01Z</time>
      </trkpt>
      <trkpt lat="45.13448" lon="5.90619">
        <ele>1903</ele>
        <time>2021-12-20T09:58:15Z</time>
      </trkpt>
      <trkpt lat="45.13447" lon="5.90625">
        <ele>1901</ele>
        <time>2021-12-20T09:58:21Z</time>
      </trkpt>
      <trkpt lat="45.13447" lon="5.90626">
        <ele>1901</ele>
        <time>2021-12-20T09:58:23Z</time>
      </trkpt>
      <trkpt lat="45.13446" lon="5.90629">
        <ele>1900</ele>
        <time>2021-12-20T09:58:25Z</time>
      </trkpt>
      <trkpt lat="45.13444" lon="5.90632">
        <ele>1900</ele>
        <time>2021-12-20T09:58:29Z</time>
      </trkpt>
      <trkpt lat="45.13443" lon="5.90633">
        <ele>1900</ele>
        <time>2021-12-20T09:58:31Z</time>
      </trkpt>
      <trkpt lat="45.13442" lon="5.90634">
        <ele>1901</ele>
        <time>2021-12-20T09:58:33Z</time>
      </trkpt>
      <trkpt lat="45.13441" lon="5.90638">
        <ele>1901</ele>
        <time>2021-12-20T09:58:37Z</time>
      </trkpt>
      <trkpt lat="45.13441" lon="5.9064">
        <ele>1902</ele>
        <time>2021-12-20T09:58:39Z</time>
      </trkpt>
      <trkpt lat="45.13441" lon="5.90641">
        <ele>1901</ele>
        <time>2021-12-20T09:58:41Z</time>
      </trkpt>
      <trkpt lat="45.13437" lon="5.90647">
        <ele>1904</ele>
        <time>2021-12-20T09:58:49Z</time>
      </trkpt>
      <trkpt lat="45.13439" lon="5.90654">
        <ele>1906</ele>
        <time>2021-12-20T09:59:05Z</time>
      </trkpt>
      <trkpt lat="45.13438" lon="5.90661">
        <ele>1908</ele>
        <time>2021-12-20T09:59:15Z</time>
      </trkpt>
      <trkpt lat="45.13437" lon="5.90667">
        <ele>1911</ele>
        <time>2021-12-20T09:59:25Z</time>
      </trkpt>
      <trkpt lat="45.13438" lon="5.90674">
        <ele>1913</ele>
        <time>2021-12-20T09:59:37Z</time>
      </trkpt>
      <trkpt lat="45.13438" lon="5.90679">
        <ele>1914</ele>
        <time>2021-12-20T09:59:45Z</time>
      </trkpt>
      <trkpt lat="45.13438" lon="5.9068">
        <ele>1914</ele>
        <time>2021-12-20T09:59:47Z</time>
      </trkpt>
      <trkpt lat="45.1344" lon="5.90682">
        <ele>1913</ele>
        <time>2021-12-20T09:59:53Z</time>
      </trkpt>
      <trkpt lat="45.13445" lon="5.90685">
        <ele>1915</ele>
        <time>2021-12-20T10:00:01Z</time>
      </trkpt>
      <trkpt lat="45.1345" lon="5.90686">
        <ele>1916</ele>
        <time>2021-12-20T10:00:09Z</time>
      </trkpt>
      <trkpt lat="45.13451" lon="5.90692">
        <ele>1920</ele>
        <time>2021-12-20T10:00:33Z</time>
      </trkpt>
      <trkpt lat="45.13453" lon="5.90701">
        <ele>1920</ele>
        <time>2021-12-20T10:00:51Z</time>
      </trkpt>
      <trkpt lat="45.13455" lon="5.90704">
        <ele>1920</ele>
        <time>2021-12-20T10:00:59Z</time>
      </trkpt>
      <trkpt lat="45.13457" lon="5.90705">
        <ele>1921</ele>
        <time>2021-12-20T10:01:01Z</time>
      </trkpt>
      <trkpt lat="45.13457" lon="5.90706">
        <ele>1922</ele>
        <time>2021-12-20T10:01:03Z</time>
      </trkpt>
      <trkpt lat="45.13458" lon="5.90708">
        <ele>1921</ele>
        <time>2021-12-20T10:01:05Z</time>
      </trkpt>
      <trkpt lat="45.13459" lon="5.90711">
        <ele>1923</ele>
        <time>2021-12-20T10:01:09Z</time>
      </trkpt>
      <trkpt lat="45.1346" lon="5.90715">
        <ele>1923</ele>
        <time>2021-12-20T10:01:13Z</time>
      </trkpt>
      <trkpt lat="45.13461" lon="5.90716">
        <ele>1923</ele>
        <time>2021-12-20T10:01:15Z</time>
      </trkpt>
      <trkpt lat="45.1346" lon="5.90719">
        <ele>1923</ele>
        <time>2021-12-20T10:01:17Z</time>
      </trkpt>
      <trkpt lat="45.13461" lon="5.90721">
        <ele>1922</ele>
        <time>2021-12-20T10:01:19Z</time>
      </trkpt>
      <trkpt lat="45.13462" lon="5.90722">
        <ele>1922</ele>
        <time>2021-12-20T10:01:21Z</time>
      </trkpt>
      <trkpt lat="45.13462" lon="5.90729">
        <ele>1924</ele>
        <time>2021-12-20T10:01:29Z</time>
      </trkpt>
      <trkpt lat="45.13463" lon="5.90737">
        <ele>1924</ele>
        <time>2021-12-20T10:01:37Z</time>
      </trkpt>
      <trkpt lat="45.13462" lon="5.90738">
        <ele>1925</ele>
        <time>2021-12-20T10:01:39Z</time>
      </trkpt>
      <trkpt lat="45.13462" lon="5.90739">
        <ele>1925</ele>
        <time>2021-12-20T10:01:41Z</time>
      </trkpt>
      <trkpt lat="45.1346" lon="5.90746">
        <ele>1924</ele>
        <time>2021-12-20T10:01:51Z</time>
      </trkpt>
      <trkpt lat="45.13461" lon="5.90747">
        <ele>1924</ele>
        <time>2021-12-20T10:01:53Z</time>
      </trkpt>
      <trkpt lat="45.13461" lon="5.90749">
        <ele>1924</ele>
        <time>2021-12-20T10:01:55Z</time>
      </trkpt>
      <trkpt lat="45.1346" lon="5.90751">
        <ele>1925</ele>
        <time>2021-12-20T10:01:59Z</time>
      </trkpt>
      <trkpt lat="45.13457" lon="5.90756">
        <ele>1926</ele>
        <time>2021-12-20T10:02:07Z</time>
      </trkpt>
      <trkpt lat="45.13456" lon="5.90757">
        <ele>1927</ele>
        <time>2021-12-20T10:02:09Z</time>
      </trkpt>
      <trkpt lat="45.13456" lon="5.90759">
        <ele>1928</ele>
        <time>2021-12-20T10:02:11Z</time>
      </trkpt>
      <trkpt lat="45.13453" lon="5.90766">
        <ele>1931</ele>
        <time>2021-12-20T10:02:21Z</time>
      </trkpt>
      <trkpt lat="45.13452" lon="5.90767">
        <ele>1932</ele>
        <time>2021-12-20T10:02:23Z</time>
      </trkpt>
      <trkpt lat="45.13451" lon="5.90768">
        <ele>1932</ele>
        <time>2021-12-20T10:02:27Z</time>
      </trkpt>
      <trkpt lat="45.13447" lon="5.90774">
        <ele>1932</ele>
        <time>2021-12-20T10:02:37Z</time>
      </trkpt>
      <trkpt lat="45.13448" lon="5.9078">
        <ele>1934</ele>
        <time>2021-12-20T10:02:49Z</time>
      </trkpt>
      <trkpt lat="45.13449" lon="5.90787">
        <ele>1933</ele>
        <time>2021-12-20T10:02:59Z</time>
      </trkpt>
      <trkpt lat="45.13447" lon="5.90795">
        <ele>1938</ele>
        <time>2021-12-20T10:03:11Z</time>
      </trkpt>
      <trkpt lat="45.13448" lon="5.90802">
        <ele>1941</ele>
        <time>2021-12-20T10:03:21Z</time>
      </trkpt>
      <trkpt lat="45.13446" lon="5.90807">
        <ele>1942</ele>
        <time>2021-12-20T10:03:27Z</time>
      </trkpt>
      <trkpt lat="45.13447" lon="5.90808">
        <ele>1942</ele>
        <time>2021-12-20T10:03:29Z</time>
      </trkpt>
      <trkpt lat="45.13447" lon="5.9081">
        <ele>1941</ele>
        <time>2021-12-20T10:03:33Z</time>
      </trkpt>
      <trkpt lat="45.13446" lon="5.90811">
        <ele>1942</ele>
        <time>2021-12-20T10:03:35Z</time>
      </trkpt>
      <trkpt lat="45.13446" lon="5.90812">
        <ele>1943</ele>
        <time>2021-12-20T10:03:37Z</time>
      </trkpt>
      <trkpt lat="45.13445" lon="5.90814">
        <ele>1944</ele>
        <time>2021-12-20T10:03:39Z</time>
      </trkpt>
      <trkpt lat="45.13445" lon="5.90815">
        <ele>1943</ele>
        <time>2021-12-20T10:03:41Z</time>
      </trkpt>
      <trkpt lat="45.13445" lon="5.90816">
        <ele>1945</ele>
        <time>2021-12-20T10:03:47Z</time>
      </trkpt>
      <trkpt lat="45.13445" lon="5.90815">
        <ele>1946</ele>
        <time>2021-12-20T10:03:51Z</time>
      </trkpt>
      <trkpt lat="45.13446" lon="5.90817">
        <ele>1947</ele>
        <time>2021-12-20T10:04:05Z</time>
      </trkpt>
      <trkpt lat="45.13446" lon="5.90824">
        <ele>1945</ele>
        <time>2021-12-20T10:04:11Z</time>
      </trkpt>
      <trkpt lat="45.13444" lon="5.90831">
        <ele>1947</ele>
        <time>2021-12-20T10:04:19Z</time>
      </trkpt>
      <trkpt lat="45.13444" lon="5.90832">
        <ele>1947</ele>
        <time>2021-12-20T10:04:21Z</time>
      </trkpt>
      <trkpt lat="45.13444" lon="5.90834">
        <ele>1948</ele>
        <time>2021-12-20T10:04:23Z</time>
      </trkpt>
      <trkpt lat="45.13444" lon="5.90836">
        <ele>1948</ele>
        <time>2021-12-20T10:04:27Z</time>
      </trkpt>
      <trkpt lat="45.13444" lon="5.90838">
        <ele>1948</ele>
        <time>2021-12-20T10:04:29Z</time>
      </trkpt>
      <trkpt lat="45.13443" lon="5.90841">
        <ele>1949</ele>
        <time>2021-12-20T10:04:33Z</time>
      </trkpt>
      <trkpt lat="45.13444" lon="5.90844">
        <ele>1949</ele>
        <time>2021-12-20T10:04:37Z</time>
      </trkpt>
      <trkpt lat="45.13444" lon="5.90845">
        <ele>1950</ele>
        <time>2021-12-20T10:04:39Z</time>
      </trkpt>
      <trkpt lat="45.13442" lon="5.90847">
        <ele>1950</ele>
        <time>2021-12-20T10:04:42Z</time>
      </trkpt>
      <trkpt lat="45.13438" lon="5.90852">
        <ele>1952</ele>
        <time>2021-12-20T10:04:55Z</time>
      </trkpt>
      <trkpt lat="45.13436" lon="5.9086">
        <ele>1952</ele>
        <time>2021-12-20T10:05:02Z</time>
      </trkpt>
      <trkpt lat="45.13441" lon="5.90859">
        <ele>1954</ele>
        <time>2021-12-20T10:05:08Z</time>
      </trkpt>
      <trkpt lat="45.13444" lon="5.90861">
        <ele>1955</ele>
        <time>2021-12-20T10:05:14Z</time>
      </trkpt>
      <trkpt lat="45.13445" lon="5.9086">
        <ele>1956</ele>
        <time>2021-12-20T10:05:16Z</time>
      </trkpt>
      <trkpt lat="45.13447" lon="5.90859">
        <ele>1957</ele>
        <time>2021-12-20T10:05:18Z</time>
      </trkpt>
      <trkpt lat="45.13452" lon="5.9086">
        <ele>1956</ele>
        <time>2021-12-20T10:05:27Z</time>
      </trkpt>
      <trkpt lat="45.13453" lon="5.9086">
        <ele>1958</ele>
        <time>2021-12-20T10:05:33Z</time>
      </trkpt>
      <trkpt lat="45.13452" lon="5.9086">
        <ele>1958</ele>
        <time>2021-12-20T10:05:39Z</time>
      </trkpt>
      <trkpt lat="45.13452" lon="5.90859">
        <ele>1957</ele>
        <time>2021-12-20T10:05:41Z</time>
      </trkpt>
      <trkpt lat="45.13452" lon="5.90862">
        <ele>1959</ele>
        <time>2021-12-20T10:05:51Z</time>
      </trkpt>
      <trkpt lat="45.13454" lon="5.90862">
        <ele>1959</ele>
        <time>2021-12-20T10:05:53Z</time>
      </trkpt>
      <trkpt lat="45.13453" lon="5.9086">
        <ele>1960</ele>
        <time>2021-12-20T10:05:57Z</time>
      </trkpt>
      <trkpt lat="45.13455" lon="5.90861">
        <ele>1961</ele>
        <time>2021-12-20T10:07:35Z</time>
      </trkpt>
      <trkpt lat="45.13453" lon="5.90868">
        <ele>1961</ele>
        <time>2021-12-20T10:07:45Z</time>
      </trkpt>
      <trkpt lat="45.13454" lon="5.90876">
        <ele>1965</ele>
        <time>2021-12-20T10:07:55Z</time>
      </trkpt>
      <trkpt lat="45.13454" lon="5.90877">
        <ele>1964</ele>
        <time>2021-12-20T10:07:57Z</time>
      </trkpt>
      <trkpt lat="45.13453" lon="5.90878">
        <ele>1964</ele>
        <time>2021-12-20T10:07:59Z</time>
      </trkpt>
      <trkpt lat="45.13453" lon="5.90885">
        <ele>1963</ele>
        <time>2021-12-20T10:08:11Z</time>
      </trkpt>
      <trkpt lat="45.13452" lon="5.90889">
        <ele>1965</ele>
        <time>2021-12-20T10:08:19Z</time>
      </trkpt>
      <trkpt lat="45.13451" lon="5.9089">
        <ele>1964</ele>
        <time>2021-12-20T10:08:23Z</time>
      </trkpt>
      <trkpt lat="45.13447" lon="5.90894">
        <ele>1965</ele>
        <time>2021-12-20T10:08:33Z</time>
      </trkpt>
      <trkpt lat="45.13444" lon="5.90897">
        <ele>1969</ele>
        <time>2021-12-20T10:08:41Z</time>
      </trkpt>
      <trkpt lat="45.13443" lon="5.90898">
        <ele>1970</ele>
        <time>2021-12-20T10:08:43Z</time>
      </trkpt>
      <trkpt lat="45.13442" lon="5.90899">
        <ele>1971</ele>
        <time>2021-12-20T10:08:45Z</time>
      </trkpt>
      <trkpt lat="45.13438" lon="5.90901">
        <ele>1972</ele>
        <time>2021-12-20T10:08:53Z</time>
      </trkpt>
      <trkpt lat="45.13434" lon="5.90908">
        <ele>1975</ele>
        <time>2021-12-20T10:09:03Z</time>
      </trkpt>
      <trkpt lat="45.13429" lon="5.90912">
        <ele>1975</ele>
        <time>2021-12-20T10:09:17Z</time>
      </trkpt>
      <trkpt lat="45.13425" lon="5.90916">
        <ele>1975</ele>
        <time>2021-12-20T10:09:27Z</time>
      </trkpt>
      <trkpt lat="45.13421" lon="5.90921">
        <ele>1976</ele>
        <time>2021-12-20T10:09:33Z</time>
      </trkpt>
      <trkpt lat="45.13422" lon="5.90927">
        <ele>1977</ele>
        <time>2021-12-20T10:09:45Z</time>
      </trkpt>
      <trkpt lat="45.13424" lon="5.90933">
        <ele>1978</ele>
        <time>2021-12-20T10:09:55Z</time>
      </trkpt>
      <trkpt lat="45.13426" lon="5.90935">
        <ele>1978</ele>
        <time>2021-12-20T10:10:11Z</time>
      </trkpt>
      <trkpt lat="45.1343" lon="5.90938">
        <ele>1980</ele>
        <time>2021-12-20T10:10:19Z</time>
      </trkpt>
      <trkpt lat="45.13434" lon="5.90941">
        <ele>1982</ele>
        <time>2021-12-20T10:10:25Z</time>
      </trkpt>
      <trkpt lat="45.13435" lon="5.90941">
        <ele>1983</ele>
        <time>2021-12-20T10:10:29Z</time>
      </trkpt>
      <trkpt lat="45.13436" lon="5.90943">
        <ele>1983</ele>
        <time>2021-12-20T10:10:33Z</time>
      </trkpt>
      <trkpt lat="45.13437" lon="5.90943">
        <ele>1986</ele>
        <time>2021-12-20T10:10:37Z</time>
      </trkpt>
      <trkpt lat="45.13439" lon="5.90947">
        <ele>1986</ele>
        <time>2021-12-20T10:10:43Z</time>
      </trkpt>
      <trkpt lat="45.1344" lon="5.90948">
        <ele>1987</ele>
        <time>2021-12-20T10:10:45Z</time>
      </trkpt>
      <trkpt lat="45.13441" lon="5.90949">
        <ele>1988</ele>
        <time>2021-12-20T10:10:47Z</time>
      </trkpt>
      <trkpt lat="45.13441" lon="5.9095">
        <ele>1988</ele>
        <time>2021-12-20T10:10:51Z</time>
      </trkpt>
      <trkpt lat="45.13442" lon="5.90948">
        <ele>1989</ele>
        <time>2021-12-20T10:11:09Z</time>
      </trkpt>
      <trkpt lat="45.13441" lon="5.90948">
        <ele>1989</ele>
        <time>2021-12-20T10:11:11Z</time>
      </trkpt>
      <trkpt lat="45.13441" lon="5.90949">
        <ele>1989</ele>
        <time>2021-12-20T10:11:19Z</time>
      </trkpt>
      <trkpt lat="45.1344" lon="5.9095">
        <ele>1989</ele>
        <time>2021-12-20T10:11:49Z</time>
      </trkpt>
      <trkpt lat="45.13446" lon="5.90952">
        <ele>1991</ele>
        <time>2021-12-20T10:11:57Z</time>
      </trkpt>
      <trkpt lat="45.1345" lon="5.90955">
        <ele>1990</ele>
        <time>2021-12-20T10:12:03Z</time>
      </trkpt>
      <trkpt lat="45.13455" lon="5.90956">
        <ele>1988</ele>
        <time>2021-12-20T10:12:09Z</time>
      </trkpt>
      <trkpt lat="45.13458" lon="5.90961">
        <ele>1987</ele>
        <time>2021-12-20T10:12:13Z</time>
      </trkpt>
      <trkpt lat="45.13462" lon="5.90967">
        <ele>1988</ele>
        <time>2021-12-20T10:12:21Z</time>
      </trkpt>
      <trkpt lat="45.13462" lon="5.90969">
        <ele>1988</ele>
        <time>2021-12-20T10:12:23Z</time>
      </trkpt>
      <trkpt lat="45.13463" lon="5.9097">
        <ele>1988</ele>
        <time>2021-12-20T10:12:25Z</time>
      </trkpt>
      <trkpt lat="45.13465" lon="5.90977">
        <ele>1989</ele>
        <time>2021-12-20T10:12:35Z</time>
      </trkpt>
      <trkpt lat="45.13466" lon="5.90979">
        <ele>1989</ele>
        <time>2021-12-20T10:12:41Z</time>
      </trkpt>
      <trkpt lat="45.13466" lon="5.9098">
        <ele>1989</ele>
        <time>2021-12-20T10:12:43Z</time>
      </trkpt>
      <trkpt lat="45.13468" lon="5.90982">
        <ele>1990</ele>
        <time>2021-12-20T10:12:45Z</time>
      </trkpt>
      <trkpt lat="45.13469" lon="5.90989">
        <ele>1991</ele>
        <time>2021-12-20T10:12:57Z</time>
      </trkpt>
      <trkpt lat="45.13469" lon="5.90996">
        <ele>1993</ele>
        <time>2021-12-20T10:13:07Z</time>
      </trkpt>
      <trkpt lat="45.13468" lon="5.91002">
        <ele>1993</ele>
        <time>2021-12-20T10:13:19Z</time>
      </trkpt>
      <trkpt lat="45.13468" lon="5.91009">
        <ele>1995</ele>
        <time>2021-12-20T10:13:29Z</time>
      </trkpt>
      <trkpt lat="45.13467" lon="5.91016">
        <ele>1996</ele>
        <time>2021-12-20T10:13:39Z</time>
      </trkpt>
      <trkpt lat="45.13469" lon="5.91023">
        <ele>1998</ele>
        <time>2021-12-20T10:13:49Z</time>
      </trkpt>
      <trkpt lat="45.13471" lon="5.9103">
        <ele>1998</ele>
        <time>2021-12-20T10:13:59Z</time>
      </trkpt>
      <trkpt lat="45.13475" lon="5.91034">
        <ele>1999</ele>
        <time>2021-12-20T10:14:05Z</time>
      </trkpt>
      <trkpt lat="45.13477" lon="5.9104">
        <ele>1999</ele>
        <time>2021-12-20T10:14:13Z</time>
      </trkpt>
      <trkpt lat="45.13478" lon="5.91041">
        <ele>2000</ele>
        <time>2021-12-20T10:14:15Z</time>
      </trkpt>
      <trkpt lat="45.13478" lon="5.91042">
        <ele>2000</ele>
        <time>2021-12-20T10:14:17Z</time>
      </trkpt>
      <trkpt lat="45.13479" lon="5.91043">
        <ele>2000</ele>
        <time>2021-12-20T10:14:19Z</time>
      </trkpt>
      <trkpt lat="45.13482" lon="5.91048">
        <ele>2001</ele>
        <time>2021-12-20T10:14:27Z</time>
      </trkpt>
      <trkpt lat="45.13483" lon="5.91049">
        <ele>2002</ele>
        <time>2021-12-20T10:14:29Z</time>
      </trkpt>
      <trkpt lat="45.13485" lon="5.91049">
        <ele>2003</ele>
        <time>2021-12-20T10:14:31Z</time>
      </trkpt>
      <trkpt lat="45.13486" lon="5.9105">
        <ele>2003</ele>
        <time>2021-12-20T10:14:33Z</time>
      </trkpt>
      <trkpt lat="45.13488" lon="5.91052">
        <ele>2005</ele>
        <time>2021-12-20T10:14:41Z</time>
      </trkpt>
      <trkpt lat="45.13489" lon="5.91052">
        <ele>2005</ele>
        <time>2021-12-20T10:14:43Z</time>
      </trkpt>
      <trkpt lat="45.1349" lon="5.91053">
        <ele>2005</ele>
        <time>2021-12-20T10:14:45Z</time>
      </trkpt>
      <trkpt lat="45.13491" lon="5.91054">
        <ele>2006</ele>
        <time>2021-12-20T10:14:47Z</time>
      </trkpt>
      <trkpt lat="45.13493" lon="5.91055">
        <ele>2005</ele>
        <time>2021-12-20T10:14:51Z</time>
      </trkpt>
      <trkpt lat="45.13494" lon="5.91056">
        <ele>2006</ele>
        <time>2021-12-20T10:14:53Z</time>
      </trkpt>
      <trkpt lat="45.13496" lon="5.91057">
        <ele>2007</ele>
        <time>2021-12-20T10:14:57Z</time>
      </trkpt>
      <trkpt lat="45.13501" lon="5.9106">
        <ele>2006</ele>
        <time>2021-12-20T10:15:03Z</time>
      </trkpt>
      <trkpt lat="45.13505" lon="5.91062">
        <ele>2010</ele>
        <time>2021-12-20T10:15:13Z</time>
      </trkpt>
      <trkpt lat="45.1351" lon="5.91063">
        <ele>2012</ele>
        <time>2021-12-20T10:15:29Z</time>
      </trkpt>
      <trkpt lat="45.13513" lon="5.91061">
        <ele>2013</ele>
        <time>2021-12-20T10:15:37Z</time>
      </trkpt>
      <trkpt lat="45.13514" lon="5.91061">
        <ele>2014</ele>
        <time>2021-12-20T10:15:39Z</time>
      </trkpt>
      <trkpt lat="45.13515" lon="5.91061">
        <ele>2013</ele>
        <time>2021-12-20T10:15:41Z</time>
      </trkpt>
      <trkpt lat="45.13518" lon="5.91056">
        <ele>2014</ele>
        <time>2021-12-20T10:15:51Z</time>
      </trkpt>
      <trkpt lat="45.13522" lon="5.91052">
        <ele>2014</ele>
        <time>2021-12-20T10:16:03Z</time>
      </trkpt>
      <trkpt lat="45.13524" lon="5.91051">
        <ele>2014</ele>
        <time>2021-12-20T10:16:07Z</time>
      </trkpt>
      <trkpt lat="45.13525" lon="5.91052">
        <ele>2015</ele>
        <time>2021-12-20T10:16:15Z</time>
      </trkpt>
      <trkpt lat="45.1353" lon="5.91046">
        <ele>2016</ele>
        <time>2021-12-20T10:16:27Z</time>
      </trkpt>
      <trkpt lat="45.13527" lon="5.91039">
        <ele>2016</ele>
        <time>2021-12-20T10:16:35Z</time>
      </trkpt>
      <trkpt lat="45.13526" lon="5.91039">
        <ele>2015</ele>
        <time>2021-12-20T10:16:37Z</time>
      </trkpt>
      <trkpt lat="45.13527" lon="5.91038">
        <ele>2015</ele>
        <time>2021-12-20T10:16:45Z</time>
      </trkpt>
      <trkpt lat="45.13526" lon="5.91038">
        <ele>2013</ele>
        <time>2021-12-20T10:16:47Z</time>
      </trkpt>
      <trkpt lat="45.13526" lon="5.91039">
        <ele>2015</ele>
        <time>2021-12-20T10:16:49Z</time>
      </trkpt>
      <trkpt lat="45.13526" lon="5.91038">
        <ele>2015</ele>
        <time>2021-12-20T10:16:55Z</time>
      </trkpt>
      <trkpt lat="45.13526" lon="5.91036">
        <ele>2015</ele>
        <time>2021-12-20T10:17:01Z</time>
      </trkpt>
      <trkpt lat="45.13526" lon="5.91035">
        <ele>2013</ele>
        <time>2021-12-20T10:17:05Z</time>
      </trkpt>
      <trkpt lat="45.13524" lon="5.91035">
        <ele>2016</ele>
        <time>2021-12-20T10:17:13Z</time>
      </trkpt>
      <trkpt lat="45.13524" lon="5.91036">
        <ele>2016</ele>
        <time>2021-12-20T10:17:15Z</time>
      </trkpt>
      <trkpt lat="45.13525" lon="5.91036">
        <ele>2016</ele>
        <time>2021-12-20T10:18:13Z</time>
      </trkpt>
      <trkpt lat="45.13526" lon="5.91037">
        <ele>2016</ele>
        <time>2021-12-20T10:18:21Z</time>
      </trkpt>
      <trkpt lat="45.13527" lon="5.91039">
        <ele>2016</ele>
        <time>2021-12-20T10:19:35Z</time>
      </trkpt>
      <trkpt lat="45.13528" lon="5.91038">
        <ele>2015</ele>
        <time>2021-12-20T10:19:37Z</time>
      </trkpt>
      <trkpt lat="45.13529" lon="5.91038">
        <ele>2014</ele>
        <time>2021-12-20T10:19:39Z</time>
      </trkpt>
      <trkpt lat="45.13529" lon="5.91037">
        <ele>2015</ele>
        <time>2021-12-20T10:19:41Z</time>
      </trkpt>
      <trkpt lat="45.13527" lon="5.91038">
        <ele>2016</ele>
        <time>2021-12-20T10:19:43Z</time>
      </trkpt>
      <trkpt lat="45.13527" lon="5.91039">
        <ele>2016</ele>
        <time>2021-12-20T10:19:53Z</time>
      </trkpt>
      <trkpt lat="45.13526" lon="5.91037">
        <ele>2014</ele>
        <time>2021-12-20T10:20:01Z</time>
      </trkpt>
      <trkpt lat="45.13527" lon="5.91036">
        <ele>2014</ele>
        <time>2021-12-20T10:20:03Z</time>
      </trkpt>
      <trkpt lat="45.13527" lon="5.91037">
        <ele>2012</ele>
        <time>2021-12-20T10:20:43Z</time>
      </trkpt>
      <trkpt lat="45.13526" lon="5.91036">
        <ele>2013</ele>
        <time>2021-12-20T10:20:47Z</time>
      </trkpt>
      <trkpt lat="45.13525" lon="5.91037">
        <ele>2011</ele>
        <time>2021-12-20T10:20:53Z</time>
      </trkpt>
      <trkpt lat="45.13525" lon="5.91039">
        <ele>2012</ele>
        <time>2021-12-20T10:20:55Z</time>
      </trkpt>
      <trkpt lat="45.13524" lon="5.91039">
        <ele>2013</ele>
        <time>2021-12-20T10:20:57Z</time>
      </trkpt>
      <trkpt lat="45.13524" lon="5.9104">
        <ele>2014</ele>
        <time>2021-12-20T10:20:59Z</time>
      </trkpt>
      <trkpt lat="45.13524" lon="5.91041">
        <ele>2014</ele>
        <time>2021-12-20T10:21:05Z</time>
      </trkpt>
      <trkpt lat="45.13524" lon="5.91044">
        <ele>2014</ele>
        <time>2021-12-20T10:21:19Z</time>
      </trkpt>
      <trkpt lat="45.13525" lon="5.91044">
        <ele>2016</ele>
        <time>2021-12-20T10:21:43Z</time>
      </trkpt>
      <trkpt lat="45.13526" lon="5.91052">
        <ele>2016</ele>
        <time>2021-12-20T10:21:53Z</time>
      </trkpt>
      <trkpt lat="45.13528" lon="5.91058">
        <ele>2018</ele>
        <time>2021-12-20T10:22:01Z</time>
      </trkpt>
      <trkpt lat="45.1353" lon="5.91064">
        <ele>2017</ele>
        <time>2021-12-20T10:22:09Z</time>
      </trkpt>
      <trkpt lat="45.13535" lon="5.91066">
        <ele>2018</ele>
        <time>2021-12-20T10:22:17Z</time>
      </trkpt>
      <trkpt lat="45.13537" lon="5.91067">
        <ele>2021</ele>
        <time>2021-12-20T10:22:27Z</time>
      </trkpt>
      <trkpt lat="45.13538" lon="5.91068">
        <ele>2022</ele>
        <time>2021-12-20T10:22:37Z</time>
      </trkpt>
      <trkpt lat="45.1354" lon="5.91068">
        <ele>2022</ele>
        <time>2021-12-20T10:22:39Z</time>
      </trkpt>
      <trkpt lat="45.1354" lon="5.9107">
        <ele>2022</ele>
        <time>2021-12-20T10:22:41Z</time>
      </trkpt>
      <trkpt lat="45.13541" lon="5.9107">
        <ele>2023</ele>
        <time>2021-12-20T10:22:45Z</time>
      </trkpt>
      <trkpt lat="45.13542" lon="5.91071">
        <ele>2024</ele>
        <time>2021-12-20T10:22:47Z</time>
      </trkpt>
      <trkpt lat="45.13543" lon="5.91072">
        <ele>2025</ele>
        <time>2021-12-20T10:22:49Z</time>
      </trkpt>
      <trkpt lat="45.13544" lon="5.91074">
        <ele>2025</ele>
        <time>2021-12-20T10:22:51Z</time>
      </trkpt>
      <trkpt lat="45.13545" lon="5.91073">
        <ele>2026</ele>
        <time>2021-12-20T10:22:53Z</time>
      </trkpt>
      <trkpt lat="45.13546" lon="5.91073">
        <ele>2027</ele>
        <time>2021-12-20T10:22:55Z</time>
      </trkpt>
      <trkpt lat="45.13547" lon="5.91074">
        <ele>2026</ele>
        <time>2021-12-20T10:22:57Z</time>
      </trkpt>
      <trkpt lat="45.13548" lon="5.91075">
        <ele>2028</ele>
        <time>2021-12-20T10:22:59Z</time>
      </trkpt>
      <trkpt lat="45.13549" lon="5.91074">
        <ele>2029</ele>
        <time>2021-12-20T10:23:01Z</time>
      </trkpt>
      <trkpt lat="45.1355" lon="5.91074">
        <ele>2028</ele>
        <time>2021-12-20T10:23:03Z</time>
      </trkpt>
      <trkpt lat="45.13555" lon="5.91076">
        <ele>2025</ele>
        <time>2021-12-20T10:23:11Z</time>
      </trkpt>
      <trkpt lat="45.13557" lon="5.91077">
        <ele>2026</ele>
        <time>2021-12-20T10:23:15Z</time>
      </trkpt>
      <trkpt lat="45.13558" lon="5.91078">
        <ele>2027</ele>
        <time>2021-12-20T10:23:21Z</time>
      </trkpt>
      <trkpt lat="45.13558" lon="5.91079">
        <ele>2026</ele>
        <time>2021-12-20T10:23:31Z</time>
      </trkpt>
      <trkpt lat="45.13556" lon="5.91079">
        <ele>2027</ele>
        <time>2021-12-20T10:23:35Z</time>
      </trkpt>
      <trkpt lat="45.13554" lon="5.91084">
        <ele>2026</ele>
        <time>2021-12-20T10:23:43Z</time>
      </trkpt>
      <trkpt lat="45.13551" lon="5.91086">
        <ele>2028</ele>
        <time>2021-12-20T10:23:51Z</time>
      </trkpt>
      <trkpt lat="45.13551" lon="5.91087">
        <ele>2029</ele>
        <time>2021-12-20T10:23:53Z</time>
      </trkpt>
      <trkpt lat="45.13551" lon="5.91088">
        <ele>2029</ele>
        <time>2021-12-20T10:23:55Z</time>
      </trkpt>
      <trkpt lat="45.13547" lon="5.91095">
        <ele>2031</ele>
        <time>2021-12-20T10:24:05Z</time>
      </trkpt>
      <trkpt lat="45.13544" lon="5.91099">
        <ele>2033</ele>
        <time>2021-12-20T10:24:15Z</time>
      </trkpt>
      <trkpt lat="45.13539" lon="5.91104">
        <ele>2033</ele>
        <time>2021-12-20T10:24:27Z</time>
      </trkpt>
      <trkpt lat="45.13539" lon="5.91105">
        <ele>2033</ele>
        <time>2021-12-20T10:24:29Z</time>
      </trkpt>
      <trkpt lat="45.13537" lon="5.91111">
        <ele>2034</ele>
        <time>2021-12-20T10:24:41Z</time>
      </trkpt>
      <trkpt lat="45.13537" lon="5.91112">
        <ele>2034</ele>
        <time>2021-12-20T10:24:43Z</time>
      </trkpt>
      <trkpt lat="45.13535" lon="5.91115">
        <ele>2033</ele>
        <time>2021-12-20T10:24:49Z</time>
      </trkpt>
      <trkpt lat="45.13535" lon="5.91116">
        <ele>2035</ele>
        <time>2021-12-20T10:24:51Z</time>
      </trkpt>
      <trkpt lat="45.13532" lon="5.91123">
        <ele>2035</ele>
        <time>2021-12-20T10:24:59Z</time>
      </trkpt>
      <trkpt lat="45.1353" lon="5.91129">
        <ele>2036</ele>
        <time>2021-12-20T10:25:11Z</time>
      </trkpt>
      <trkpt lat="45.13527" lon="5.91135">
        <ele>2038</ele>
        <time>2021-12-20T10:25:21Z</time>
      </trkpt>
      <trkpt lat="45.13526" lon="5.91142">
        <ele>2040</ele>
        <time>2021-12-20T10:25:33Z</time>
      </trkpt>
      <trkpt lat="45.13524" lon="5.91147">
        <ele>2039</ele>
        <time>2021-12-20T10:25:39Z</time>
      </trkpt>
      <trkpt lat="45.13524" lon="5.91148">
        <ele>2039</ele>
        <time>2021-12-20T10:25:41Z</time>
      </trkpt>
      <trkpt lat="45.13523" lon="5.91149">
        <ele>2039</ele>
        <time>2021-12-20T10:25:43Z</time>
      </trkpt>
      <trkpt lat="45.1352" lon="5.91152">
        <ele>2043</ele>
        <time>2021-12-20T10:25:57Z</time>
      </trkpt>
      <trkpt lat="45.1352" lon="5.91153">
        <ele>2043</ele>
        <time>2021-12-20T10:25:59Z</time>
      </trkpt>
      <trkpt lat="45.1352" lon="5.91155">
        <ele>2043</ele>
        <time>2021-12-20T10:26:01Z</time>
      </trkpt>
      <trkpt lat="45.13516" lon="5.91154">
        <ele>2049</ele>
        <time>2021-12-20T10:26:15Z</time>
      </trkpt>
      <trkpt lat="45.13515" lon="5.91154">
        <ele>2049</ele>
        <time>2021-12-20T10:26:17Z</time>
      </trkpt>
      <trkpt lat="45.13515" lon="5.91152">
        <ele>2049</ele>
        <time>2021-12-20T10:26:21Z</time>
      </trkpt>
      <trkpt lat="45.13514" lon="5.91151">
        <ele>2050</ele>
        <time>2021-12-20T10:26:25Z</time>
      </trkpt>
      <trkpt lat="45.13513" lon="5.91151">
        <ele>2051</ele>
        <time>2021-12-20T10:26:27Z</time>
      </trkpt>
      <trkpt lat="45.13512" lon="5.91151">
        <ele>2052</ele>
        <time>2021-12-20T10:26:31Z</time>
      </trkpt>
      <trkpt lat="45.1351" lon="5.91149">
        <ele>2054</ele>
        <time>2021-12-20T10:26:37Z</time>
      </trkpt>
      <trkpt lat="45.13509" lon="5.91149">
        <ele>2056</ele>
        <time>2021-12-20T10:26:41Z</time>
      </trkpt>
      <trkpt lat="45.1351" lon="5.91153">
        <ele>2059</ele>
        <time>2021-12-20T10:26:53Z</time>
      </trkpt>
      <trkpt lat="45.13511" lon="5.91153">
        <ele>2060</ele>
        <time>2021-12-20T10:26:55Z</time>
      </trkpt>
      <trkpt lat="45.13511" lon="5.91154">
        <ele>2061</ele>
        <time>2021-12-20T10:26:57Z</time>
      </trkpt>
      <trkpt lat="45.13515" lon="5.91158">
        <ele>2060</ele>
        <time>2021-12-20T10:27:03Z</time>
      </trkpt>
      <trkpt lat="45.13515" lon="5.91159">
        <ele>2060</ele>
        <time>2021-12-20T10:27:05Z</time>
      </trkpt>
      <trkpt lat="45.13515" lon="5.9116">
        <ele>2059</ele>
        <time>2021-12-20T10:27:07Z</time>
      </trkpt>
      <trkpt lat="45.13518" lon="5.9116">
        <ele>2060</ele>
        <time>2021-12-20T10:27:13Z</time>
      </trkpt>
      <trkpt lat="45.13519" lon="5.91161">
        <ele>2061</ele>
        <time>2021-12-20T10:27:15Z</time>
      </trkpt>
      <trkpt lat="45.1352" lon="5.91161">
        <ele>2060</ele>
        <time>2021-12-20T10:27:17Z</time>
      </trkpt>
      <trkpt lat="45.13521" lon="5.91162">
        <ele>2061</ele>
        <time>2021-12-20T10:27:19Z</time>
      </trkpt>
      <trkpt lat="45.13523" lon="5.91163">
        <ele>2061</ele>
        <time>2021-12-20T10:27:23Z</time>
      </trkpt>
      <trkpt lat="45.13527" lon="5.91166">
        <ele>2061</ele>
        <time>2021-12-20T10:27:31Z</time>
      </trkpt>
      <trkpt lat="45.13528" lon="5.91166">
        <ele>2061</ele>
        <time>2021-12-20T10:27:33Z</time>
      </trkpt>
      <trkpt lat="45.13528" lon="5.91167">
        <ele>2060</ele>
        <time>2021-12-20T10:27:35Z</time>
      </trkpt>
      <trkpt lat="45.1353" lon="5.91167">
        <ele>2059</ele>
        <time>2021-12-20T10:27:39Z</time>
      </trkpt>
      <trkpt lat="45.13531" lon="5.91168">
        <ele>2059</ele>
        <time>2021-12-20T10:27:41Z</time>
      </trkpt>
      <trkpt lat="45.13533" lon="5.9117">
        <ele>2059</ele>
        <time>2021-12-20T10:27:45Z</time>
      </trkpt>
      <trkpt lat="45.13534" lon="5.9117">
        <ele>2059</ele>
        <time>2021-12-20T10:27:49Z</time>
      </trkpt>
      <trkpt lat="45.13536" lon="5.91168">
        <ele>2059</ele>
        <time>2021-12-20T10:27:57Z</time>
      </trkpt>
      <trkpt lat="45.13536" lon="5.91169">
        <ele>2060</ele>
        <time>2021-12-20T10:27:59Z</time>
      </trkpt>
      <trkpt lat="45.13536" lon="5.91168">
        <ele>2060</ele>
        <time>2021-12-20T10:28:09Z</time>
      </trkpt>
      <trkpt lat="45.13536" lon="5.91169">
        <ele>2060</ele>
        <time>2021-12-20T10:28:11Z</time>
      </trkpt>
      <trkpt lat="45.13537" lon="5.9117">
        <ele>2060</ele>
        <time>2021-12-20T10:28:17Z</time>
      </trkpt>
      <trkpt lat="45.13537" lon="5.91171">
        <ele>2060</ele>
        <time>2021-12-20T10:28:19Z</time>
      </trkpt>
      <trkpt lat="45.13536" lon="5.91172">
        <ele>2059</ele>
        <time>2021-12-20T10:28:23Z</time>
      </trkpt>
      <trkpt lat="45.13537" lon="5.91173">
        <ele>2059</ele>
        <time>2021-12-20T10:28:25Z</time>
      </trkpt>
      <trkpt lat="45.13538" lon="5.91173">
        <ele>2058</ele>
        <time>2021-12-20T10:28:29Z</time>
      </trkpt>
      <trkpt lat="45.13537" lon="5.91173">
        <ele>2058</ele>
        <time>2021-12-20T10:28:31Z</time>
      </trkpt>
      <trkpt lat="45.13537" lon="5.91172">
        <ele>2058</ele>
        <time>2021-12-20T10:28:45Z</time>
      </trkpt>
      <trkpt lat="45.13537" lon="5.91173">
        <ele>2058</ele>
        <time>2021-12-20T10:28:51Z</time>
      </trkpt>
      <trkpt lat="45.13536" lon="5.91174">
        <ele>2059</ele>
        <time>2021-12-20T10:28:53Z</time>
      </trkpt>
      <trkpt lat="45.13535" lon="5.91175">
        <ele>2060</ele>
        <time>2021-12-20T10:28:55Z</time>
      </trkpt>
      <trkpt lat="45.13534" lon="5.91176">
        <ele>2059</ele>
        <time>2021-12-20T10:28:59Z</time>
      </trkpt>
      <trkpt lat="45.13533" lon="5.91176">
        <ele>2059</ele>
        <time>2021-12-20T10:29:01Z</time>
      </trkpt>
      <trkpt lat="45.13533" lon="5.91177">
        <ele>2059</ele>
        <time>2021-12-20T10:29:03Z</time>
      </trkpt>
      <trkpt lat="45.1353" lon="5.91181">
        <ele>2062</ele>
        <time>2021-12-20T10:29:13Z</time>
      </trkpt>
      <trkpt lat="45.1353" lon="5.91182">
        <ele>2062</ele>
        <time>2021-12-20T10:29:15Z</time>
      </trkpt>
      <trkpt lat="45.13529" lon="5.91183">
        <ele>2063</ele>
        <time>2021-12-20T10:29:17Z</time>
      </trkpt>
      <trkpt lat="45.13527" lon="5.9119">
        <ele>2066</ele>
        <time>2021-12-20T10:29:31Z</time>
      </trkpt>
      <trkpt lat="45.13522" lon="5.91194">
        <ele>2066</ele>
        <time>2021-12-20T10:29:43Z</time>
      </trkpt>
      <trkpt lat="45.13518" lon="5.91194">
        <ele>2068</ele>
        <time>2021-12-20T10:29:51Z</time>
      </trkpt>
      <trkpt lat="45.13513" lon="5.91193">
        <ele>2068</ele>
        <time>2021-12-20T10:30:05Z</time>
      </trkpt>
      <trkpt lat="45.13511" lon="5.91197">
        <ele>2070</ele>
        <time>2021-12-20T10:30:13Z</time>
      </trkpt>
      <trkpt lat="45.13512" lon="5.91198">
        <ele>2069</ele>
        <time>2021-12-20T10:30:15Z</time>
      </trkpt>
      <trkpt lat="45.13513" lon="5.91198">
        <ele>2071</ele>
        <time>2021-12-20T10:30:17Z</time>
      </trkpt>
      <trkpt lat="45.13516" lon="5.91202">
        <ele>2070</ele>
        <time>2021-12-20T10:30:25Z</time>
      </trkpt>
      <trkpt lat="45.13518" lon="5.91207">
        <ele>2071</ele>
        <time>2021-12-20T10:30:39Z</time>
      </trkpt>
      <trkpt lat="45.13519" lon="5.91208">
        <ele>2071</ele>
        <time>2021-12-20T10:30:41Z</time>
      </trkpt>
      <trkpt lat="45.1352" lon="5.91209">
        <ele>2071</ele>
        <time>2021-12-20T10:30:43Z</time>
      </trkpt>
      <trkpt lat="45.13522" lon="5.91213">
        <ele>2068</ele>
        <time>2021-12-20T10:30:49Z</time>
      </trkpt>
      <trkpt lat="45.13523" lon="5.91214">
        <ele>2068</ele>
        <time>2021-12-20T10:30:51Z</time>
      </trkpt>
      <trkpt lat="45.13524" lon="5.91216">
        <ele>2068</ele>
        <time>2021-12-20T10:30:53Z</time>
      </trkpt>
      <trkpt lat="45.13529" lon="5.9122">
        <ele>2068</ele>
        <time>2021-12-20T10:31:01Z</time>
      </trkpt>
      <trkpt lat="45.1353" lon="5.9122">
        <ele>2069</ele>
        <time>2021-12-20T10:31:05Z</time>
      </trkpt>
      <trkpt lat="45.13532" lon="5.91221">
        <ele>2069</ele>
        <time>2021-12-20T10:31:09Z</time>
      </trkpt>
      <trkpt lat="45.13534" lon="5.91222">
        <ele>2068</ele>
        <time>2021-12-20T10:31:13Z</time>
      </trkpt>
      <trkpt lat="45.13534" lon="5.91223">
        <ele>2068</ele>
        <time>2021-12-20T10:31:15Z</time>
      </trkpt>
      <trkpt lat="45.13535" lon="5.91223">
        <ele>2068</ele>
        <time>2021-12-20T10:31:17Z</time>
      </trkpt>
      <trkpt lat="45.13535" lon="5.91225">
        <ele>2068</ele>
        <time>2021-12-20T10:31:19Z</time>
      </trkpt>
      <trkpt lat="45.13534" lon="5.91226">
        <ele>2069</ele>
        <time>2021-12-20T10:31:25Z</time>
      </trkpt>
      <trkpt lat="45.13533" lon="5.91226">
        <ele>2069</ele>
        <time>2021-12-20T10:31:27Z</time>
      </trkpt>
      <trkpt lat="45.13532" lon="5.91226">
        <ele>2068</ele>
        <time>2021-12-20T10:31:29Z</time>
      </trkpt>
      <trkpt lat="45.13531" lon="5.91228">
        <ele>2069</ele>
        <time>2021-12-20T10:31:31Z</time>
      </trkpt>
      <trkpt lat="45.13527" lon="5.91229">
        <ele>2070</ele>
        <time>2021-12-20T10:31:37Z</time>
      </trkpt>
      <trkpt lat="45.13526" lon="5.91229">
        <ele>2069</ele>
        <time>2021-12-20T10:31:41Z</time>
      </trkpt>
      <trkpt lat="45.13526" lon="5.9123">
        <ele>2070</ele>
        <time>2021-12-20T10:31:43Z</time>
      </trkpt>
      <trkpt lat="45.13524" lon="5.9123">
        <ele>2070</ele>
        <time>2021-12-20T10:31:45Z</time>
      </trkpt>
      <trkpt lat="45.13523" lon="5.9123">
        <ele>2070</ele>
        <time>2021-12-20T10:31:47Z</time>
      </trkpt>
      <trkpt lat="45.1352" lon="5.91232">
        <ele>2071</ele>
        <time>2021-12-20T10:31:51Z</time>
      </trkpt>
      <trkpt lat="45.13519" lon="5.91232">
        <ele>2072</ele>
        <time>2021-12-20T10:31:53Z</time>
      </trkpt>
      <trkpt lat="45.13517" lon="5.91235">
        <ele>2073</ele>
        <time>2021-12-20T10:32:05Z</time>
      </trkpt>
      <trkpt lat="45.13516" lon="5.91235">
        <ele>2073</ele>
        <time>2021-12-20T10:32:07Z</time>
      </trkpt>
      <trkpt lat="45.13514" lon="5.91234">
        <ele>2073</ele>
        <time>2021-12-20T10:32:09Z</time>
      </trkpt>
      <trkpt lat="45.13513" lon="5.91234">
        <ele>2073</ele>
        <time>2021-12-20T10:32:11Z</time>
      </trkpt>
      <trkpt lat="45.13512" lon="5.91235">
        <ele>2073</ele>
        <time>2021-12-20T10:32:13Z</time>
      </trkpt>
      <trkpt lat="45.13509" lon="5.91234">
        <ele>2074</ele>
        <time>2021-12-20T10:32:17Z</time>
      </trkpt>
      <trkpt lat="45.13504" lon="5.91234">
        <ele>2074</ele>
        <time>2021-12-20T10:32:27Z</time>
      </trkpt>
      <trkpt lat="45.13499" lon="5.91237">
        <ele>2076</ele>
        <time>2021-12-20T10:32:35Z</time>
      </trkpt>
      <trkpt lat="45.13496" lon="5.9124">
        <ele>2079</ele>
        <time>2021-12-20T10:32:43Z</time>
      </trkpt>
      <trkpt lat="45.1349" lon="5.91242">
        <ele>2081</ele>
        <time>2021-12-20T10:32:51Z</time>
      </trkpt>
      <trkpt lat="45.13488" lon="5.91245">
        <ele>2082</ele>
        <time>2021-12-20T10:32:57Z</time>
      </trkpt>
      <trkpt lat="45.13488" lon="5.91244">
        <ele>2082</ele>
        <time>2021-12-20T10:33:13Z</time>
      </trkpt>
      <trkpt lat="45.13487" lon="5.91244">
        <ele>2082</ele>
        <time>2021-12-20T10:33:15Z</time>
      </trkpt>
      <trkpt lat="45.13486" lon="5.91244">
        <ele>2083</ele>
        <time>2021-12-20T10:33:17Z</time>
      </trkpt>
      <trkpt lat="45.13485" lon="5.91248">
        <ele>2083</ele>
        <time>2021-12-20T10:33:31Z</time>
      </trkpt>
      <trkpt lat="45.1348" lon="5.91253">
        <ele>2084</ele>
        <time>2021-12-20T10:33:39Z</time>
      </trkpt>
      <trkpt lat="45.13478" lon="5.9126">
        <ele>2085</ele>
        <time>2021-12-20T10:33:47Z</time>
      </trkpt>
      <trkpt lat="45.13476" lon="5.91261">
        <ele>2085</ele>
        <time>2021-12-20T10:33:51Z</time>
      </trkpt>
      <trkpt lat="45.13476" lon="5.91262">
        <ele>2086</ele>
        <time>2021-12-20T10:34:03Z</time>
      </trkpt>
      <trkpt lat="45.13476" lon="5.91263">
        <ele>2088</ele>
        <time>2021-12-20T10:34:05Z</time>
      </trkpt>
      <trkpt lat="45.13471" lon="5.91267">
        <ele>2089</ele>
        <time>2021-12-20T10:34:12Z</time>
      </trkpt>
      <trkpt lat="45.13467" lon="5.91272">
        <ele>2089</ele>
        <time>2021-12-20T10:34:19Z</time>
      </trkpt>
      <trkpt lat="45.13465" lon="5.91279">
        <ele>2091</ele>
        <time>2021-12-20T10:34:28Z</time>
      </trkpt>
      <trkpt lat="45.13464" lon="5.91281">
        <ele>2092</ele>
        <time>2021-12-20T10:34:38Z</time>
      </trkpt>
      <trkpt lat="45.13464" lon="5.91282">
        <ele>2091</ele>
        <time>2021-12-20T10:34:40Z</time>
      </trkpt>
      <trkpt lat="45.13464" lon="5.91283">
        <ele>2091</ele>
        <time>2021-12-20T10:34:44Z</time>
      </trkpt>
      <trkpt lat="45.13466" lon="5.91283">
        <ele>2090</ele>
        <time>2021-12-20T10:34:46Z</time>
      </trkpt>
      <trkpt lat="45.13466" lon="5.91282">
        <ele>2091</ele>
        <time>2021-12-20T10:34:49Z</time>
      </trkpt>
      <trkpt lat="45.13465" lon="5.91282">
        <ele>2091</ele>
        <time>2021-12-20T10:34:59Z</time>
      </trkpt>
      <trkpt lat="45.13465" lon="5.91283">
        <ele>2092</ele>
        <time>2021-12-20T10:35:26Z</time>
      </trkpt>
      <trkpt lat="45.13464" lon="5.91282">
        <ele>2091</ele>
        <time>2021-12-20T10:35:28Z</time>
      </trkpt>
      <trkpt lat="45.13464" lon="5.91283">
        <ele>2090</ele>
        <time>2021-12-20T10:35:30Z</time>
      </trkpt>
      <trkpt lat="45.13463" lon="5.91284">
        <ele>2091</ele>
        <time>2021-12-20T10:35:36Z</time>
      </trkpt>
      <trkpt lat="45.13464" lon="5.91284">
        <ele>2091</ele>
        <time>2021-12-20T10:35:38Z</time>
      </trkpt>
      <trkpt lat="45.13465" lon="5.91284">
        <ele>2091</ele>
        <time>2021-12-20T10:35:42Z</time>
      </trkpt>
      <trkpt lat="45.13464" lon="5.91284">
        <ele>2091</ele>
        <time>2021-12-20T10:36:14Z</time>
      </trkpt>
      <trkpt lat="45.13465" lon="5.91285">
        <ele>2090</ele>
        <time>2021-12-20T10:36:26Z</time>
      </trkpt>
      <trkpt lat="45.13464" lon="5.91285">
        <ele>2090</ele>
        <time>2021-12-20T10:36:28Z</time>
      </trkpt>
      <trkpt lat="45.13461" lon="5.91285">
        <ele>2090</ele>
        <time>2021-12-20T10:36:36Z</time>
      </trkpt>
      <trkpt lat="45.13461" lon="5.91286">
        <ele>2090</ele>
        <time>2021-12-20T10:36:38Z</time>
      </trkpt>
      <trkpt lat="45.13461" lon="5.91285">
        <ele>2090</ele>
        <time>2021-12-20T10:36:40Z</time>
      </trkpt>
      <trkpt lat="45.13461" lon="5.91287">
        <ele>2090</ele>
        <time>2021-12-20T10:36:42Z</time>
      </trkpt>
      <trkpt lat="45.13456" lon="5.91291">
        <ele>2088</ele>
        <time>2021-12-20T10:36:50Z</time>
      </trkpt>
      <trkpt lat="45.13455" lon="5.91293">
        <ele>2089</ele>
        <time>2021-12-20T10:36:52Z</time>
      </trkpt>
      <trkpt lat="45.13454" lon="5.91294">
        <ele>2089</ele>
        <time>2021-12-20T10:36:54Z</time>
      </trkpt>
      <trkpt lat="45.13453" lon="5.91296">
        <ele>2089</ele>
        <time>2021-12-20T10:36:56Z</time>
      </trkpt>
      <trkpt lat="45.13448" lon="5.91299">
        <ele>2088</ele>
        <time>2021-12-20T10:37:02Z</time>
      </trkpt>
      <trkpt lat="45.13445" lon="5.91307">
        <ele>2090</ele>
        <time>2021-12-20T10:37:08Z</time>
      </trkpt>
      <trkpt lat="45.13442" lon="5.91312">
        <ele>2090</ele>
        <time>2021-12-20T10:37:14Z</time>
      </trkpt>
      <trkpt lat="45.13439" lon="5.91318">
        <ele>2091</ele>
        <time>2021-12-20T10:37:20Z</time>
      </trkpt>
      <trkpt lat="45.13435" lon="5.91324">
        <ele>2091</ele>
        <time>2021-12-20T10:37:30Z</time>
      </trkpt>
      <trkpt lat="45.13432" lon="5.9133">
        <ele>2092</ele>
        <time>2021-12-20T10:37:36Z</time>
      </trkpt>
      <trkpt lat="45.13428" lon="5.91336">
        <ele>2092</ele>
        <time>2021-12-20T10:37:42Z</time>
      </trkpt>
      <trkpt lat="45.13424" lon="5.91342">
        <ele>2092</ele>
        <time>2021-12-20T10:37:48Z</time>
      </trkpt>
      <trkpt lat="45.1342" lon="5.91347">
        <ele>2092</ele>
        <time>2021-12-20T10:37:54Z</time>
      </trkpt>
      <trkpt lat="45.13416" lon="5.91354">
        <ele>2092</ele>
        <time>2021-12-20T10:38:00Z</time>
      </trkpt>
      <trkpt lat="45.13412" lon="5.91362">
        <ele>2092</ele>
        <time>2021-12-20T10:38:06Z</time>
      </trkpt>
      <trkpt lat="45.13409" lon="5.91367">
        <ele>2092</ele>
        <time>2021-12-20T10:38:16Z</time>
      </trkpt>
      <trkpt lat="45.13409" lon="5.91375">
        <ele>2094</ele>
        <time>2021-12-20T10:38:24Z</time>
      </trkpt>
      <trkpt lat="45.1341" lon="5.91382">
        <ele>2094</ele>
        <time>2021-12-20T10:38:32Z</time>
      </trkpt>
      <trkpt lat="45.13411" lon="5.91388">
        <ele>2095</ele>
        <time>2021-12-20T10:38:40Z</time>
      </trkpt>
      <trkpt lat="45.13411" lon="5.91395">
        <ele>2095</ele>
        <time>2021-12-20T10:38:50Z</time>
      </trkpt>
      <trkpt lat="45.1341" lon="5.914">
        <ele>2095</ele>
        <time>2021-12-20T10:38:58Z</time>
      </trkpt>
      <trkpt lat="45.13411" lon="5.91401">
        <ele>2095</ele>
        <time>2021-12-20T10:39:00Z</time>
      </trkpt>
      <trkpt lat="45.1341" lon="5.91403">
        <ele>2095</ele>
        <time>2021-12-20T10:39:02Z</time>
      </trkpt>
      <trkpt lat="45.13411" lon="5.91405">
        <ele>2094</ele>
        <time>2021-12-20T10:39:04Z</time>
      </trkpt>
      <trkpt lat="45.13411" lon="5.91406">
        <ele>2094</ele>
        <time>2021-12-20T10:39:06Z</time>
      </trkpt>
      <trkpt lat="45.1341" lon="5.91414">
        <ele>2095</ele>
        <time>2021-12-20T10:39:18Z</time>
      </trkpt>
      <trkpt lat="45.13407" lon="5.91421">
        <ele>2094</ele>
        <time>2021-12-20T10:39:26Z</time>
      </trkpt>
      <trkpt lat="45.13405" lon="5.91428">
        <ele>2094</ele>
        <time>2021-12-20T10:39:36Z</time>
      </trkpt>
      <trkpt lat="45.13403" lon="5.91434">
        <ele>2094</ele>
        <time>2021-12-20T10:39:48Z</time>
      </trkpt>
      <trkpt lat="45.13401" lon="5.91441">
        <ele>2095</ele>
        <time>2021-12-20T10:40:00Z</time>
      </trkpt>
      <trkpt lat="45.13401" lon="5.91442">
        <ele>2095</ele>
        <time>2021-12-20T10:40:02Z</time>
      </trkpt>
      <trkpt lat="45.13401" lon="5.91444">
        <ele>2095</ele>
        <time>2021-12-20T10:40:06Z</time>
      </trkpt>
      <trkpt lat="45.13401" lon="5.91445">
        <ele>2094</ele>
        <time>2021-12-20T10:40:08Z</time>
      </trkpt>
      <trkpt lat="45.13399" lon="5.91448">
        <ele>2093</ele>
        <time>2021-12-20T10:40:14Z</time>
      </trkpt>
      <trkpt lat="45.13399" lon="5.91449">
        <ele>2093</ele>
        <time>2021-12-20T10:40:16Z</time>
      </trkpt>
      <trkpt lat="45.13398" lon="5.91451">
        <ele>2093</ele>
        <time>2021-12-20T10:40:20Z</time>
      </trkpt>
      <trkpt lat="45.13397" lon="5.91452">
        <ele>2093</ele>
        <time>2021-12-20T10:40:22Z</time>
      </trkpt>
      <trkpt lat="45.13397" lon="5.91455">
        <ele>2093</ele>
        <time>2021-12-20T10:40:26Z</time>
      </trkpt>
      <trkpt lat="45.13392" lon="5.91461">
        <ele>2093</ele>
        <time>2021-12-20T10:40:36Z</time>
      </trkpt>
      <trkpt lat="45.13391" lon="5.91467">
        <ele>2089</ele>
        <time>2021-12-20T10:40:44Z</time>
      </trkpt>
      <trkpt lat="45.1339" lon="5.91474">
        <ele>2087</ele>
        <time>2021-12-20T10:40:52Z</time>
      </trkpt>
      <trkpt lat="45.13389" lon="5.91481">
        <ele>2087</ele>
        <time>2021-12-20T10:41:02Z</time>
      </trkpt>
      <trkpt lat="45.13389" lon="5.91489">
        <ele>2086</ele>
        <time>2021-12-20T10:41:12Z</time>
      </trkpt>
      <trkpt lat="45.13387" lon="5.91495">
        <ele>2084</ele>
        <time>2021-12-20T10:41:18Z</time>
      </trkpt>
      <trkpt lat="45.13386" lon="5.91503">
        <ele>2084</ele>
        <time>2021-12-20T10:41:22Z</time>
      </trkpt>
      <trkpt lat="45.13384" lon="5.91512">
        <ele>2083</ele>
        <time>2021-12-20T10:41:26Z</time>
      </trkpt>
      <trkpt lat="45.1338" lon="5.91516">
        <ele>2081</ele>
        <time>2021-12-20T10:41:34Z</time>
      </trkpt>
      <trkpt lat="45.13377" lon="5.91522">
        <ele>2080</ele>
        <time>2021-12-20T10:41:42Z</time>
      </trkpt>
      <trkpt lat="45.13373" lon="5.91531">
        <ele>2081</ele>
        <time>2021-12-20T10:41:48Z</time>
      </trkpt>
      <trkpt lat="45.13369" lon="5.91536">
        <ele>2081</ele>
        <time>2021-12-20T10:41:52Z</time>
      </trkpt>
      <trkpt lat="45.13365" lon="5.9154">
        <ele>2083</ele>
        <time>2021-12-20T10:42:06Z</time>
      </trkpt>
      <trkpt lat="45.13364" lon="5.91547">
        <ele>2080</ele>
        <time>2021-12-20T10:42:12Z</time>
      </trkpt>
      <trkpt lat="45.13362" lon="5.91554">
        <ele>2080</ele>
        <time>2021-12-20T10:42:20Z</time>
      </trkpt>
      <trkpt lat="45.1336" lon="5.91562">
        <ele>2077</ele>
        <time>2021-12-20T10:42:28Z</time>
      </trkpt>
      <trkpt lat="45.1336" lon="5.91567">
        <ele>2078</ele>
        <time>2021-12-20T10:42:36Z</time>
      </trkpt>
      <trkpt lat="45.13361" lon="5.91567">
        <ele>2078</ele>
        <time>2021-12-20T10:42:38Z</time>
      </trkpt>
      <trkpt lat="45.1336" lon="5.91569">
        <ele>2079</ele>
        <time>2021-12-20T10:42:40Z</time>
      </trkpt>
      <trkpt lat="45.1336" lon="5.91576">
        <ele>2079</ele>
        <time>2021-12-20T10:42:46Z</time>
      </trkpt>
      <trkpt lat="45.1336" lon="5.91583">
        <ele>2079</ele>
        <time>2021-12-20T10:42:50Z</time>
      </trkpt>
      <trkpt lat="45.13359" lon="5.91591">
        <ele>2078</ele>
        <time>2021-12-20T10:42:58Z</time>
      </trkpt>
      <trkpt lat="45.13357" lon="5.91597">
        <ele>2078</ele>
        <time>2021-12-20T10:43:04Z</time>
      </trkpt>
      <trkpt lat="45.13358" lon="5.91605">
        <ele>2076</ele>
        <time>2021-12-20T10:43:10Z</time>
      </trkpt>
      <trkpt lat="45.13358" lon="5.91613">
        <ele>2077</ele>
        <time>2021-12-20T10:43:20Z</time>
      </trkpt>
      <trkpt lat="45.13358" lon="5.91621">
        <ele>2075</ele>
        <time>2021-12-20T10:43:30Z</time>
      </trkpt>
      <trkpt lat="45.13359" lon="5.91625">
        <ele>2075</ele>
        <time>2021-12-20T10:43:36Z</time>
      </trkpt>
      <trkpt lat="45.1336" lon="5.91625">
        <ele>2075</ele>
        <time>2021-12-20T10:43:38Z</time>
      </trkpt>
      <trkpt lat="45.13359" lon="5.91627">
        <ele>2075</ele>
        <time>2021-12-20T10:43:40Z</time>
      </trkpt>
      <trkpt lat="45.13359" lon="5.91634">
        <ele>2076</ele>
        <time>2021-12-20T10:43:54Z</time>
      </trkpt>
      <trkpt lat="45.13358" lon="5.91642">
        <ele>2077</ele>
        <time>2021-12-20T10:44:00Z</time>
      </trkpt>
      <trkpt lat="45.13354" lon="5.91655">
        <ele>2074</ele>
        <time>2021-12-20T10:44:04Z</time>
      </trkpt>
      <trkpt lat="45.13347" lon="5.91663">
        <ele>2071</ele>
        <time>2021-12-20T10:44:06Z</time>
      </trkpt>
      <trkpt lat="45.13342" lon="5.91667">
        <ele>2070</ele>
        <time>2021-12-20T10:44:12Z</time>
      </trkpt>
      <trkpt lat="45.13337" lon="5.91669">
        <ele>2065</ele>
        <time>2021-12-20T10:44:20Z</time>
      </trkpt>
      <trkpt lat="45.13336" lon="5.91669">
        <ele>2064</ele>
        <time>2021-12-20T10:44:32Z</time>
      </trkpt>
      <trkpt lat="45.13337" lon="5.9167">
        <ele>2064</ele>
        <time>2021-12-20T10:44:42Z</time>
      </trkpt>
      <trkpt lat="45.13336" lon="5.9167">
        <ele>2065</ele>
        <time>2021-12-20T10:44:46Z</time>
      </trkpt>
      <trkpt lat="45.13336" lon="5.91671">
        <ele>2065</ele>
        <time>2021-12-20T10:44:52Z</time>
      </trkpt>
      <trkpt lat="45.13338" lon="5.91671">
        <ele>2063</ele>
        <time>2021-12-20T10:45:00Z</time>
      </trkpt>
      <trkpt lat="45.13339" lon="5.9167">
        <ele>2063</ele>
        <time>2021-12-20T10:45:06Z</time>
      </trkpt>
      <trkpt lat="45.13339" lon="5.91671">
        <ele>2063</ele>
        <time>2021-12-20T10:45:08Z</time>
      </trkpt>
      <trkpt lat="45.13339" lon="5.9167">
        <ele>2062</ele>
        <time>2021-12-20T10:45:16Z</time>
      </trkpt>
      <trkpt lat="45.13339" lon="5.91669">
        <ele>2062</ele>
        <time>2021-12-20T10:45:18Z</time>
      </trkpt>
      <trkpt lat="45.13338" lon="5.9167">
        <ele>2065</ele>
        <time>2021-12-20T10:45:54Z</time>
      </trkpt>
      <trkpt lat="45.13339" lon="5.9167">
        <ele>2065</ele>
        <time>2021-12-20T10:46:00Z</time>
      </trkpt>
      <trkpt lat="45.13339" lon="5.91669">
        <ele>2067</ele>
        <time>2021-12-20T10:47:22Z</time>
      </trkpt>
      <trkpt lat="45.13338" lon="5.91668">
        <ele>2069</ele>
        <time>2021-12-20T10:47:26Z</time>
      </trkpt>
      <trkpt lat="45.13338" lon="5.91669">
        <ele>2071</ele>
        <time>2021-12-20T10:48:40Z</time>
      </trkpt>
      <trkpt lat="45.13338" lon="5.91669">
        <ele>2071</ele>
        <time>2021-12-20T10:49:02Z</time>
      </trkpt>
      <trkpt lat="45.13338" lon="5.9167">
        <ele>2070</ele>
        <time>2021-12-20T10:49:04Z</time>
      </trkpt>
      <trkpt lat="45.13339" lon="5.9167">
        <ele>2070</ele>
        <time>2021-12-20T10:49:06Z</time>
      </trkpt>
      <trkpt lat="45.13339" lon="5.91667">
        <ele>2071</ele>
        <time>2021-12-20T10:49:16Z</time>
      </trkpt>
      <trkpt lat="45.13332" lon="5.91667">
        <ele>2071</ele>
        <time>2021-12-20T10:49:26Z</time>
      </trkpt>
      <trkpt lat="45.13323" lon="5.91667">
        <ele>2070</ele>
        <time>2021-12-20T10:49:30Z</time>
      </trkpt>
      <trkpt lat="45.13315" lon="5.91666">
        <ele>2067</ele>
        <time>2021-12-20T10:49:32Z</time>
      </trkpt>
      <trkpt lat="45.13305" lon="5.91664">
        <ele>2066</ele>
        <time>2021-12-20T10:49:34Z</time>
      </trkpt>
      <trkpt lat="45.13298" lon="5.91663">
        <ele>2063</ele>
        <time>2021-12-20T10:49:36Z</time>
      </trkpt>
      <trkpt lat="45.13292" lon="5.91663">
        <ele>2062</ele>
        <time>2021-12-20T10:49:40Z</time>
      </trkpt>
      <trkpt lat="45.13287" lon="5.91665">
        <ele>2062</ele>
        <time>2021-12-20T10:49:44Z</time>
      </trkpt>
      <trkpt lat="45.13282" lon="5.9167">
        <ele>2061</ele>
        <time>2021-12-20T10:49:50Z</time>
      </trkpt>
      <trkpt lat="45.13278" lon="5.91676">
        <ele>2060</ele>
        <time>2021-12-20T10:49:56Z</time>
      </trkpt>
      <trkpt lat="45.13272" lon="5.9168">
        <ele>2060</ele>
        <time>2021-12-20T10:50:02Z</time>
      </trkpt>
      <trkpt lat="45.1327" lon="5.91681">
        <ele>2060</ele>
        <time>2021-12-20T10:50:08Z</time>
      </trkpt>
      <trkpt lat="45.1327" lon="5.91685">
        <ele>2060</ele>
        <time>2021-12-20T10:50:12Z</time>
      </trkpt>
      <trkpt lat="45.13265" lon="5.9169">
        <ele>2059</ele>
        <time>2021-12-20T10:50:18Z</time>
      </trkpt>
      <trkpt lat="45.13265" lon="5.91696">
        <ele>2060</ele>
        <time>2021-12-20T10:50:26Z</time>
      </trkpt>
      <trkpt lat="45.13268" lon="5.91702">
        <ele>2060</ele>
        <time>2021-12-20T10:50:30Z</time>
      </trkpt>
      <trkpt lat="45.13272" lon="5.91707">
        <ele>2062</ele>
        <time>2021-12-20T10:50:36Z</time>
      </trkpt>
      <trkpt lat="45.13271" lon="5.91713">
        <ele>2061</ele>
        <time>2021-12-20T10:50:44Z</time>
      </trkpt>
      <trkpt lat="45.13265" lon="5.91717">
        <ele>2061</ele>
        <time>2021-12-20T10:50:46Z</time>
      </trkpt>
      <trkpt lat="45.13258" lon="5.9172">
        <ele>2060</ele>
        <time>2021-12-20T10:50:48Z</time>
      </trkpt>
      <trkpt lat="45.13253" lon="5.91722">
        <ele>2060</ele>
        <time>2021-12-20T10:50:52Z</time>
      </trkpt>
      <trkpt lat="45.13248" lon="5.91725">
        <ele>2059</ele>
        <time>2021-12-20T10:50:56Z</time>
      </trkpt>
      <trkpt lat="45.13243" lon="5.91724">
        <ele>2059</ele>
        <time>2021-12-20T10:51:00Z</time>
      </trkpt>
      <trkpt lat="45.13237" lon="5.91725">
        <ele>2057</ele>
        <time>2021-12-20T10:51:04Z</time>
      </trkpt>
      <trkpt lat="45.13233" lon="5.91726">
        <ele>2057</ele>
        <time>2021-12-20T10:51:08Z</time>
      </trkpt>
      <trkpt lat="45.13227" lon="5.91729">
        <ele>2056</ele>
        <time>2021-12-20T10:51:14Z</time>
      </trkpt>
      <trkpt lat="45.13222" lon="5.9173">
        <ele>2055</ele>
        <time>2021-12-20T10:51:18Z</time>
      </trkpt>
      <trkpt lat="45.13217" lon="5.91731">
        <ele>2054</ele>
        <time>2021-12-20T10:51:22Z</time>
      </trkpt>
      <trkpt lat="45.13211" lon="5.9173">
        <ele>2054</ele>
        <time>2021-12-20T10:51:26Z</time>
      </trkpt>
      <trkpt lat="45.13205" lon="5.9173">
        <ele>2054</ele>
        <time>2021-12-20T10:51:30Z</time>
      </trkpt>
      <trkpt lat="45.13197" lon="5.91731">
        <ele>2054</ele>
        <time>2021-12-20T10:51:34Z</time>
      </trkpt>
      <trkpt lat="45.1319" lon="5.9173">
        <ele>2053</ele>
        <time>2021-12-20T10:51:36Z</time>
      </trkpt>
      <trkpt lat="45.13185" lon="5.9173">
        <ele>2052</ele>
        <time>2021-12-20T10:51:42Z</time>
      </trkpt>
      <trkpt lat="45.13179" lon="5.91727">
        <ele>2053</ele>
        <time>2021-12-20T10:51:46Z</time>
      </trkpt>
      <trkpt lat="45.13174" lon="5.91726">
        <ele>2052</ele>
        <time>2021-12-20T10:51:51Z</time>
      </trkpt>
      <trkpt lat="45.13168" lon="5.91725">
        <ele>2051</ele>
        <time>2021-12-20T10:51:57Z</time>
      </trkpt>
      <trkpt lat="45.13162" lon="5.91724">
        <ele>2051</ele>
        <time>2021-12-20T10:52:05Z</time>
      </trkpt>
      <trkpt lat="45.13156" lon="5.91723">
        <ele>2052</ele>
        <time>2021-12-20T10:52:13Z</time>
      </trkpt>
      <trkpt lat="45.13151" lon="5.91722">
        <ele>2052</ele>
        <time>2021-12-20T10:52:19Z</time>
      </trkpt>
      <trkpt lat="45.13145" lon="5.91721">
        <ele>2051</ele>
        <time>2021-12-20T10:52:25Z</time>
      </trkpt>
      <trkpt lat="45.13139" lon="5.91724">
        <ele>2052</ele>
        <time>2021-12-20T10:52:29Z</time>
      </trkpt>
      <trkpt lat="45.13133" lon="5.91726">
        <ele>2051</ele>
        <time>2021-12-20T10:52:35Z</time>
      </trkpt>
      <trkpt lat="45.13128" lon="5.91727">
        <ele>2051</ele>
        <time>2021-12-20T10:52:39Z</time>
      </trkpt>
      <trkpt lat="45.13123" lon="5.91731">
        <ele>2050</ele>
        <time>2021-12-20T10:52:45Z</time>
      </trkpt>
      <trkpt lat="45.13117" lon="5.91733">
        <ele>2050</ele>
        <time>2021-12-20T10:52:49Z</time>
      </trkpt>
      <trkpt lat="45.13111" lon="5.91737">
        <ele>2050</ele>
        <time>2021-12-20T10:52:55Z</time>
      </trkpt>
      <trkpt lat="45.13106" lon="5.91741">
        <ele>2050</ele>
        <time>2021-12-20T10:52:59Z</time>
      </trkpt>
      <trkpt lat="45.13102" lon="5.91747">
        <ele>2050</ele>
        <time>2021-12-20T10:53:05Z</time>
      </trkpt>
      <trkpt lat="45.13099" lon="5.9175">
        <ele>2049</ele>
        <time>2021-12-20T10:53:09Z</time>
      </trkpt>
      <trkpt lat="45.13093" lon="5.91752">
        <ele>2048</ele>
        <time>2021-12-20T10:53:15Z</time>
      </trkpt>
      <trkpt lat="45.13087" lon="5.91754">
        <ele>2049</ele>
        <time>2021-12-20T10:53:23Z</time>
      </trkpt>
      <trkpt lat="45.13084" lon="5.91756">
        <ele>2046</ele>
        <time>2021-12-20T10:53:35Z</time>
      </trkpt>
      <trkpt lat="45.13084" lon="5.91757">
        <ele>2046</ele>
        <time>2021-12-20T10:53:37Z</time>
      </trkpt>
      <trkpt lat="45.1308" lon="5.9176">
        <ele>2045</ele>
        <time>2021-12-20T10:53:47Z</time>
      </trkpt>
      <trkpt lat="45.1308" lon="5.91761">
        <ele>2044</ele>
        <time>2021-12-20T10:53:49Z</time>
      </trkpt>
      <trkpt lat="45.13079" lon="5.91761">
        <ele>2045</ele>
        <time>2021-12-20T10:54:15Z</time>
      </trkpt>
      <trkpt lat="45.13074" lon="5.91766">
        <ele>2047</ele>
        <time>2021-12-20T10:54:23Z</time>
      </trkpt>
      <trkpt lat="45.13068" lon="5.9177">
        <ele>2046</ele>
        <time>2021-12-20T10:54:29Z</time>
      </trkpt>
      <trkpt lat="45.13063" lon="5.91775">
        <ele>2048</ele>
        <time>2021-12-20T10:54:35Z</time>
      </trkpt>
      <trkpt lat="45.13064" lon="5.91777">
        <ele>2048</ele>
        <time>2021-12-20T10:54:37Z</time>
      </trkpt>
      <trkpt lat="45.13062" lon="5.91775">
        <ele>2047</ele>
        <time>2021-12-20T10:54:41Z</time>
      </trkpt>
      <trkpt lat="45.13058" lon="5.91779">
        <ele>2048</ele>
        <time>2021-12-20T10:54:49Z</time>
      </trkpt>
      <trkpt lat="45.13053" lon="5.91784">
        <ele>2049</ele>
        <time>2021-12-20T10:54:55Z</time>
      </trkpt>
      <trkpt lat="45.13047" lon="5.91787">
        <ele>2051</ele>
        <time>2021-12-20T10:55:01Z</time>
      </trkpt>
      <trkpt lat="45.13041" lon="5.91791">
        <ele>2052</ele>
        <time>2021-12-20T10:55:09Z</time>
      </trkpt>
      <trkpt lat="45.13037" lon="5.91795">
        <ele>2052</ele>
        <time>2021-12-20T10:55:15Z</time>
      </trkpt>
      <trkpt lat="45.13031" lon="5.91797">
        <ele>2053</ele>
        <time>2021-12-20T10:55:21Z</time>
      </trkpt>
      <trkpt lat="45.13027" lon="5.91801">
        <ele>2053</ele>
        <time>2021-12-20T10:55:29Z</time>
      </trkpt>
      <trkpt lat="45.13023" lon="5.91805">
        <ele>2052</ele>
        <time>2021-12-20T10:55:47Z</time>
      </trkpt>
      <trkpt lat="45.1302" lon="5.9181">
        <ele>2053</ele>
        <time>2021-12-20T10:55:55Z</time>
      </trkpt>
      <trkpt lat="45.13016" lon="5.91816">
        <ele>2056</ele>
        <time>2021-12-20T10:56:05Z</time>
      </trkpt>
      <trkpt lat="45.13016" lon="5.91823">
        <ele>2058</ele>
        <time>2021-12-20T10:56:13Z</time>
      </trkpt>
      <trkpt lat="45.13013" lon="5.91828">
        <ele>2059</ele>
        <time>2021-12-20T10:56:23Z</time>
      </trkpt>
      <trkpt lat="45.1301" lon="5.91835">
        <ele>2059</ele>
        <time>2021-12-20T10:56:31Z</time>
      </trkpt>
      <trkpt lat="45.13008" lon="5.9184">
        <ele>2060</ele>
        <time>2021-12-20T10:56:41Z</time>
      </trkpt>
      <trkpt lat="45.13003" lon="5.91842">
        <ele>2060</ele>
        <time>2021-12-20T10:56:51Z</time>
      </trkpt>
      <trkpt lat="45.13002" lon="5.9184">
        <ele>2061</ele>
        <time>2021-12-20T10:56:57Z</time>
      </trkpt>
      <trkpt lat="45.13001" lon="5.91838">
        <ele>2062</ele>
        <time>2021-12-20T10:57:07Z</time>
      </trkpt>
      <trkpt lat="45.12999" lon="5.91836">
        <ele>2064</ele>
        <time>2021-12-20T10:57:13Z</time>
      </trkpt>
      <trkpt lat="45.12998" lon="5.91836">
        <ele>2064</ele>
        <time>2021-12-20T10:57:17Z</time>
      </trkpt>
      <trkpt lat="45.12994" lon="5.91834">
        <ele>2064</ele>
        <time>2021-12-20T10:57:25Z</time>
      </trkpt>
      <trkpt lat="45.12989" lon="5.91832">
        <ele>2066</ele>
        <time>2021-12-20T10:57:35Z</time>
      </trkpt>
      <trkpt lat="45.12984" lon="5.9183">
        <ele>2068</ele>
        <time>2021-12-20T10:57:41Z</time>
      </trkpt>
      <trkpt lat="45.12982" lon="5.91829">
        <ele>2068</ele>
        <time>2021-12-20T10:57:47Z</time>
      </trkpt>
      <trkpt lat="45.12982" lon="5.91828">
        <ele>2067</ele>
        <time>2021-12-20T10:57:49Z</time>
      </trkpt>
      <trkpt lat="45.12982" lon="5.91827">
        <ele>2068</ele>
        <time>2021-12-20T10:57:51Z</time>
      </trkpt>
      <trkpt lat="45.12981" lon="5.91826">
        <ele>2069</ele>
        <time>2021-12-20T10:57:55Z</time>
      </trkpt>
      <trkpt lat="45.12979" lon="5.91832">
        <ele>2068</ele>
        <time>2021-12-20T10:58:03Z</time>
      </trkpt>
      <trkpt lat="45.12978" lon="5.91835">
        <ele>2069</ele>
        <time>2021-12-20T10:58:11Z</time>
      </trkpt>
      <trkpt lat="45.12978" lon="5.91836">
        <ele>2069</ele>
        <time>2021-12-20T10:58:13Z</time>
      </trkpt>
      <trkpt lat="45.12978" lon="5.91838">
        <ele>2069</ele>
        <time>2021-12-20T10:58:15Z</time>
      </trkpt>
      <trkpt lat="45.12978" lon="5.91839">
        <ele>2068</ele>
        <time>2021-12-20T10:58:19Z</time>
      </trkpt>
      <trkpt lat="45.12978" lon="5.91842">
        <ele>2070</ele>
        <time>2021-12-20T10:58:21Z</time>
      </trkpt>
      <trkpt lat="45.12978" lon="5.91845">
        <ele>2070</ele>
        <time>2021-12-20T10:58:27Z</time>
      </trkpt>
      <trkpt lat="45.12978" lon="5.91847">
        <ele>2071</ele>
        <time>2021-12-20T10:58:29Z</time>
      </trkpt>
      <trkpt lat="45.12977" lon="5.91849">
        <ele>2072</ele>
        <time>2021-12-20T10:58:31Z</time>
      </trkpt>
      <trkpt lat="45.12977" lon="5.91852">
        <ele>2073</ele>
        <time>2021-12-20T10:58:35Z</time>
      </trkpt>
      <trkpt lat="45.12977" lon="5.91854">
        <ele>2073</ele>
        <time>2021-12-20T10:58:37Z</time>
      </trkpt>
      <trkpt lat="45.12976" lon="5.91857">
        <ele>2075</ele>
        <time>2021-12-20T10:58:41Z</time>
      </trkpt>
      <trkpt lat="45.12976" lon="5.91859">
        <ele>2075</ele>
        <time>2021-12-20T10:58:43Z</time>
      </trkpt>
      <trkpt lat="45.12977" lon="5.91862">
        <ele>2076</ele>
        <time>2021-12-20T10:58:47Z</time>
      </trkpt>
      <trkpt lat="45.12976" lon="5.91865">
        <ele>2076</ele>
        <time>2021-12-20T10:58:51Z</time>
      </trkpt>
      <trkpt lat="45.12976" lon="5.91867">
        <ele>2075</ele>
        <time>2021-12-20T10:58:55Z</time>
      </trkpt>
      <trkpt lat="45.12977" lon="5.91874">
        <ele>2078</ele>
        <time>2021-12-20T10:59:05Z</time>
      </trkpt>
      <trkpt lat="45.12978" lon="5.91878">
        <ele>2078</ele>
        <time>2021-12-20T10:59:09Z</time>
      </trkpt>
      <trkpt lat="45.12978" lon="5.91879">
        <ele>2078</ele>
        <time>2021-12-20T10:59:11Z</time>
      </trkpt>
      <trkpt lat="45.12978" lon="5.91881">
        <ele>2079</ele>
        <time>2021-12-20T10:59:13Z</time>
      </trkpt>
      <trkpt lat="45.1298" lon="5.91887">
        <ele>2082</ele>
        <time>2021-12-20T10:59:25Z</time>
      </trkpt>
      <trkpt lat="45.12982" lon="5.9189">
        <ele>2083</ele>
        <time>2021-12-20T10:59:31Z</time>
      </trkpt>
      <trkpt lat="45.12985" lon="5.91895">
        <ele>2084</ele>
        <time>2021-12-20T10:59:41Z</time>
      </trkpt>
      <trkpt lat="45.12985" lon="5.91894">
        <ele>2084</ele>
        <time>2021-12-20T10:59:43Z</time>
      </trkpt>
      <trkpt lat="45.12985" lon="5.91897">
        <ele>2084</ele>
        <time>2021-12-20T10:59:45Z</time>
      </trkpt>
      <trkpt lat="45.12985" lon="5.91901">
        <ele>2085</ele>
        <time>2021-12-20T10:59:53Z</time>
      </trkpt>
      <trkpt lat="45.12986" lon="5.91902">
        <ele>2085</ele>
        <time>2021-12-20T10:59:55Z</time>
      </trkpt>
      <trkpt lat="45.12986" lon="5.91904">
        <ele>2087</ele>
        <time>2021-12-20T10:59:59Z</time>
      </trkpt>
      <trkpt lat="45.12988" lon="5.91906">
        <ele>2088</ele>
        <time>2021-12-20T11:00:03Z</time>
      </trkpt>
      <trkpt lat="45.12988" lon="5.9191">
        <ele>2088</ele>
        <time>2021-12-20T11:00:11Z</time>
      </trkpt>
      <trkpt lat="45.12988" lon="5.91912">
        <ele>2089</ele>
        <time>2021-12-20T11:00:15Z</time>
      </trkpt>
      <trkpt lat="45.12988" lon="5.91916">
        <ele>2091</ele>
        <time>2021-12-20T11:00:21Z</time>
      </trkpt>
      <trkpt lat="45.12988" lon="5.91919">
        <ele>2091</ele>
        <time>2021-12-20T11:00:25Z</time>
      </trkpt>
      <trkpt lat="45.12989" lon="5.91926">
        <ele>2092</ele>
        <time>2021-12-20T11:00:35Z</time>
      </trkpt>
      <trkpt lat="45.12987" lon="5.91931">
        <ele>2091</ele>
        <time>2021-12-20T11:00:45Z</time>
      </trkpt>
      <trkpt lat="45.12988" lon="5.91934">
        <ele>2092</ele>
        <time>2021-12-20T11:00:47Z</time>
      </trkpt>
      <trkpt lat="45.12987" lon="5.91936">
        <ele>2092</ele>
        <time>2021-12-20T11:00:51Z</time>
      </trkpt>
      <trkpt lat="45.12985" lon="5.91941">
        <ele>2091</ele>
        <time>2021-12-20T11:00:57Z</time>
      </trkpt>
      <trkpt lat="45.12985" lon="5.91942">
        <ele>2091</ele>
        <time>2021-12-20T11:00:59Z</time>
      </trkpt>
      <trkpt lat="45.12983" lon="5.91943">
        <ele>2090</ele>
        <time>2021-12-20T11:01:01Z</time>
      </trkpt>
      <trkpt lat="45.12983" lon="5.91946">
        <ele>2092</ele>
        <time>2021-12-20T11:01:05Z</time>
      </trkpt>
      <trkpt lat="45.12983" lon="5.91947">
        <ele>2092</ele>
        <time>2021-12-20T11:01:07Z</time>
      </trkpt>
      <trkpt lat="45.12983" lon="5.91949">
        <ele>2092</ele>
        <time>2021-12-20T11:01:11Z</time>
      </trkpt>
      <trkpt lat="45.1298" lon="5.91955">
        <ele>2091</ele>
        <time>2021-12-20T11:01:21Z</time>
      </trkpt>
      <trkpt lat="45.1298" lon="5.91956">
        <ele>2090</ele>
        <time>2021-12-20T11:01:23Z</time>
      </trkpt>
      <trkpt lat="45.12979" lon="5.91959">
        <ele>2091</ele>
        <time>2021-12-20T11:01:25Z</time>
      </trkpt>
      <trkpt lat="45.12979" lon="5.91961">
        <ele>2091</ele>
        <time>2021-12-20T11:01:27Z</time>
      </trkpt>
      <trkpt lat="45.1298" lon="5.91962">
        <ele>2091</ele>
        <time>2021-12-20T11:01:29Z</time>
      </trkpt>
      <trkpt lat="45.12979" lon="5.91963">
        <ele>2092</ele>
        <time>2021-12-20T11:01:33Z</time>
      </trkpt>
      <trkpt lat="45.12977" lon="5.91969">
        <ele>2093</ele>
        <time>2021-12-20T11:01:41Z</time>
      </trkpt>
      <trkpt lat="45.12975" lon="5.91977">
        <ele>2096</ele>
        <time>2021-12-20T11:01:51Z</time>
      </trkpt>
      <trkpt lat="45.12975" lon="5.91979">
        <ele>2096</ele>
        <time>2021-12-20T11:01:55Z</time>
      </trkpt>
      <trkpt lat="45.12976" lon="5.91982">
        <ele>2098</ele>
        <time>2021-12-20T11:01:59Z</time>
      </trkpt>
      <trkpt lat="45.12976" lon="5.91985">
        <ele>2099</ele>
        <time>2021-12-20T11:02:05Z</time>
      </trkpt>
      <trkpt lat="45.12976" lon="5.91987">
        <ele>2100</ele>
        <time>2021-12-20T11:02:07Z</time>
      </trkpt>
      <trkpt lat="45.12976" lon="5.91989">
        <ele>2100</ele>
        <time>2021-12-20T11:02:09Z</time>
      </trkpt>
      <trkpt lat="45.12975" lon="5.91993">
        <ele>2102</ele>
        <time>2021-12-20T11:02:13Z</time>
      </trkpt>
      <trkpt lat="45.12974" lon="5.91996">
        <ele>2100</ele>
        <time>2021-12-20T11:02:27Z</time>
      </trkpt>
      <trkpt lat="45.12975" lon="5.91997">
        <ele>2100</ele>
        <time>2021-12-20T11:02:29Z</time>
      </trkpt>
      <trkpt lat="45.12975" lon="5.91998">
        <ele>2100</ele>
        <time>2021-12-20T11:02:35Z</time>
      </trkpt>
      <trkpt lat="45.12977" lon="5.92001">
        <ele>2104</ele>
        <time>2021-12-20T11:02:45Z</time>
      </trkpt>
      <trkpt lat="45.12977" lon="5.92002">
        <ele>2105</ele>
        <time>2021-12-20T11:02:47Z</time>
      </trkpt>
      <trkpt lat="45.12978" lon="5.92002">
        <ele>2106</ele>
        <time>2021-12-20T11:02:51Z</time>
      </trkpt>
      <trkpt lat="45.12979" lon="5.92003">
        <ele>2108</ele>
        <time>2021-12-20T11:02:57Z</time>
      </trkpt>
      <trkpt lat="45.12978" lon="5.92001">
        <ele>2109</ele>
        <time>2021-12-20T11:02:59Z</time>
      </trkpt>
      <trkpt lat="45.12978" lon="5.92">
        <ele>2108</ele>
        <time>2021-12-20T11:03:01Z</time>
      </trkpt>
      <trkpt lat="45.12977" lon="5.91998">
        <ele>2107</ele>
        <time>2021-12-20T11:03:03Z</time>
      </trkpt>
      <trkpt lat="45.12977" lon="5.91997">
        <ele>2107</ele>
        <time>2021-12-20T11:03:05Z</time>
      </trkpt>
      <trkpt lat="45.12976" lon="5.91994">
        <ele>2109</ele>
        <time>2021-12-20T11:03:09Z</time>
      </trkpt>
      <trkpt lat="45.12972" lon="5.91988">
        <ele>2109</ele>
        <time>2021-12-20T11:03:19Z</time>
      </trkpt>
      <trkpt lat="45.12969" lon="5.91985">
        <ele>2109</ele>
        <time>2021-12-20T11:03:25Z</time>
      </trkpt>
      <trkpt lat="45.12966" lon="5.91979">
        <ele>2106</ele>
        <time>2021-12-20T11:03:35Z</time>
      </trkpt>
      <trkpt lat="45.12961" lon="5.91976">
        <ele>2106</ele>
        <time>2021-12-20T11:03:43Z</time>
      </trkpt>
      <trkpt lat="45.12956" lon="5.91972">
        <ele>2104</ele>
        <time>2021-12-20T11:03:51Z</time>
      </trkpt>
      <trkpt lat="45.12951" lon="5.91971">
        <ele>2104</ele>
        <time>2021-12-20T11:04:01Z</time>
      </trkpt>
      <trkpt lat="45.12951" lon="5.91969">
        <ele>2104</ele>
        <time>2021-12-20T11:04:03Z</time>
      </trkpt>
      <trkpt lat="45.1295" lon="5.91968">
        <ele>2105</ele>
        <time>2021-12-20T11:04:05Z</time>
      </trkpt>
      <trkpt lat="45.12947" lon="5.91962">
        <ele>2107</ele>
        <time>2021-12-20T11:04:15Z</time>
      </trkpt>
      <trkpt lat="45.12946" lon="5.91961">
        <ele>2107</ele>
        <time>2021-12-20T11:04:19Z</time>
      </trkpt>
      <trkpt lat="45.12946" lon="5.9196">
        <ele>2108</ele>
        <time>2021-12-20T11:04:21Z</time>
      </trkpt>
      <trkpt lat="45.12945" lon="5.91959">
        <ele>2109</ele>
        <time>2021-12-20T11:04:23Z</time>
      </trkpt>
      <trkpt lat="45.12944" lon="5.91964">
        <ele>2110</ele>
        <time>2021-12-20T11:04:35Z</time>
      </trkpt>
      <trkpt lat="45.12943" lon="5.91965">
        <ele>2109</ele>
        <time>2021-12-20T11:04:37Z</time>
      </trkpt>
      <trkpt lat="45.12944" lon="5.91967">
        <ele>2111</ele>
        <time>2021-12-20T11:04:43Z</time>
      </trkpt>
      <trkpt lat="45.12944" lon="5.91968">
        <ele>2111</ele>
        <time>2021-12-20T11:04:45Z</time>
      </trkpt>
      <trkpt lat="45.12944" lon="5.91971">
        <ele>2110</ele>
        <time>2021-12-20T11:04:49Z</time>
      </trkpt>
      <trkpt lat="45.12944" lon="5.91973">
        <ele>2111</ele>
        <time>2021-12-20T11:04:51Z</time>
      </trkpt>
      <trkpt lat="45.12944" lon="5.91975">
        <ele>2109</ele>
        <time>2021-12-20T11:04:53Z</time>
      </trkpt>
      <trkpt lat="45.12944" lon="5.91977">
        <ele>2110</ele>
        <time>2021-12-20T11:04:57Z</time>
      </trkpt>
      <trkpt lat="45.12943" lon="5.91978">
        <ele>2110</ele>
        <time>2021-12-20T11:04:59Z</time>
      </trkpt>
      <trkpt lat="45.12943" lon="5.91979">
        <ele>2111</ele>
        <time>2021-12-20T11:05:01Z</time>
      </trkpt>
      <trkpt lat="45.12944" lon="5.9198">
        <ele>2111</ele>
        <time>2021-12-20T11:05:03Z</time>
      </trkpt>
      <trkpt lat="45.12944" lon="5.91983">
        <ele>2112</ele>
        <time>2021-12-20T11:05:07Z</time>
      </trkpt>
      <trkpt lat="45.12946" lon="5.91991">
        <ele>2113</ele>
        <time>2021-12-20T11:05:17Z</time>
      </trkpt>
      <trkpt lat="45.12945" lon="5.91991">
        <ele>2114</ele>
        <time>2021-12-20T11:05:19Z</time>
      </trkpt>
      <trkpt lat="45.12946" lon="5.91994">
        <ele>2114</ele>
        <time>2021-12-20T11:05:25Z</time>
      </trkpt>
      <trkpt lat="45.12945" lon="5.91997">
        <ele>2114</ele>
        <time>2021-12-20T11:05:28Z</time>
      </trkpt>
      <trkpt lat="45.12947" lon="5.92">
        <ele>2116</ele>
        <time>2021-12-20T11:05:32Z</time>
      </trkpt>
      <trkpt lat="45.12947" lon="5.92002">
        <ele>2117</ele>
        <time>2021-12-20T11:05:34Z</time>
      </trkpt>
      <trkpt lat="45.12948" lon="5.92005">
        <ele>2118</ele>
        <time>2021-12-20T11:05:38Z</time>
      </trkpt>
      <trkpt lat="45.12949" lon="5.92006">
        <ele>2117</ele>
        <time>2021-12-20T11:05:40Z</time>
      </trkpt>
      <trkpt lat="45.12946" lon="5.92001">
        <ele>2120</ele>
        <time>2021-12-20T11:05:56Z</time>
      </trkpt>
      <trkpt lat="45.12943" lon="5.91995">
        <ele>2118</ele>
        <time>2021-12-20T11:06:04Z</time>
      </trkpt>
      <trkpt lat="45.12939" lon="5.91989">
        <ele>2119</ele>
        <time>2021-12-20T11:06:14Z</time>
      </trkpt>
      <trkpt lat="45.12936" lon="5.91984">
        <ele>2122</ele>
        <time>2021-12-20T11:06:24Z</time>
      </trkpt>
      <trkpt lat="45.12935" lon="5.9199">
        <ele>2124</ele>
        <time>2021-12-20T11:06:36Z</time>
      </trkpt>
      <trkpt lat="45.12936" lon="5.91989">
        <ele>2125</ele>
        <time>2021-12-20T11:06:38Z</time>
      </trkpt>
      <trkpt lat="45.12936" lon="5.91992">
        <ele>2125</ele>
        <time>2021-12-20T11:06:40Z</time>
      </trkpt>
      <trkpt lat="45.12936" lon="5.91995">
        <ele>2124</ele>
        <time>2021-12-20T11:06:44Z</time>
      </trkpt>
      <trkpt lat="45.12936" lon="5.91997">
        <ele>2125</ele>
        <time>2021-12-20T11:06:46Z</time>
      </trkpt>
      <trkpt lat="45.12937" lon="5.91999">
        <ele>2125</ele>
        <time>2021-12-20T11:06:48Z</time>
      </trkpt>
      <trkpt lat="45.12938" lon="5.92007">
        <ele>2126</ele>
        <time>2021-12-20T11:06:58Z</time>
      </trkpt>
      <trkpt lat="45.12937" lon="5.92005">
        <ele>2128</ele>
        <time>2021-12-20T11:07:04Z</time>
      </trkpt>
      <trkpt lat="45.12935" lon="5.92">
        <ele>2130</ele>
        <time>2021-12-20T11:07:18Z</time>
      </trkpt>
      <trkpt lat="45.1293" lon="5.91997">
        <ele>2131</ele>
        <time>2021-12-20T11:07:28Z</time>
      </trkpt>
      <trkpt lat="45.12924" lon="5.91995">
        <ele>2129</ele>
        <time>2021-12-20T11:07:38Z</time>
      </trkpt>
      <trkpt lat="45.1292" lon="5.91991">
        <ele>2129</ele>
        <time>2021-12-20T11:07:52Z</time>
      </trkpt>
      <trkpt lat="45.1292" lon="5.9199">
        <ele>2130</ele>
        <time>2021-12-20T11:07:54Z</time>
      </trkpt>
      <trkpt lat="45.12919" lon="5.9199">
        <ele>2129</ele>
        <time>2021-12-20T11:07:56Z</time>
      </trkpt>
      <trkpt lat="45.1292" lon="5.91989">
        <ele>2129</ele>
        <time>2021-12-20T11:07:58Z</time>
      </trkpt>
      <trkpt lat="45.12921" lon="5.91987">
        <ele>2129</ele>
        <time>2021-12-20T11:08:02Z</time>
      </trkpt>
      <trkpt lat="45.12917" lon="5.91991">
        <ele>2132</ele>
        <time>2021-12-20T11:08:22Z</time>
      </trkpt>
      <trkpt lat="45.12917" lon="5.91992">
        <ele>2132</ele>
        <time>2021-12-20T11:08:24Z</time>
      </trkpt>
      <trkpt lat="45.12918" lon="5.91993">
        <ele>2132</ele>
        <time>2021-12-20T11:08:26Z</time>
      </trkpt>
      <trkpt lat="45.12917" lon="5.91997">
        <ele>2131</ele>
        <time>2021-12-20T11:08:32Z</time>
      </trkpt>
      <trkpt lat="45.12917" lon="5.92">
        <ele>2131</ele>
        <time>2021-12-20T11:08:34Z</time>
      </trkpt>
      <trkpt lat="45.12916" lon="5.92001">
        <ele>2131</ele>
        <time>2021-12-20T11:08:38Z</time>
      </trkpt>
      <trkpt lat="45.12916" lon="5.92002">
        <ele>2132</ele>
        <time>2021-12-20T11:08:40Z</time>
      </trkpt>
      <trkpt lat="45.12917" lon="5.92003">
        <ele>2133</ele>
        <time>2021-12-20T11:08:42Z</time>
      </trkpt>
      <trkpt lat="45.1292" lon="5.92007">
        <ele>2137</ele>
        <time>2021-12-20T11:08:52Z</time>
      </trkpt>
      <trkpt lat="45.12921" lon="5.92009">
        <ele>2137</ele>
        <time>2021-12-20T11:08:54Z</time>
      </trkpt>
      <trkpt lat="45.12921" lon="5.92012">
        <ele>2138</ele>
        <time>2021-12-20T11:09:00Z</time>
      </trkpt>
      <trkpt lat="45.12922" lon="5.92012">
        <ele>2139</ele>
        <time>2021-12-20T11:09:04Z</time>
      </trkpt>
      <trkpt lat="45.12921" lon="5.92012">
        <ele>2140</ele>
        <time>2021-12-20T11:09:08Z</time>
      </trkpt>
      <trkpt lat="45.12918" lon="5.92008">
        <ele>2143</ele>
        <time>2021-12-20T11:09:20Z</time>
      </trkpt>
      <trkpt lat="45.12912" lon="5.92004">
        <ele>2142</ele>
        <time>2021-12-20T11:09:28Z</time>
      </trkpt>
      <trkpt lat="45.12907" lon="5.91999">
        <ele>2140</ele>
        <time>2021-12-20T11:09:36Z</time>
      </trkpt>
      <trkpt lat="45.12903" lon="5.91996">
        <ele>2137</ele>
        <time>2021-12-20T11:09:44Z</time>
      </trkpt>
      <trkpt lat="45.12903" lon="5.91995">
        <ele>2138</ele>
        <time>2021-12-20T11:09:46Z</time>
      </trkpt>
      <trkpt lat="45.12902" lon="5.91996">
        <ele>2138</ele>
        <time>2021-12-20T11:09:48Z</time>
      </trkpt>
      <trkpt lat="45.12902" lon="5.91995">
        <ele>2137</ele>
        <time>2021-12-20T11:09:54Z</time>
      </trkpt>
      <trkpt lat="45.12901" lon="5.91995">
        <ele>2137</ele>
        <time>2021-12-20T11:09:56Z</time>
      </trkpt>
      <trkpt lat="45.12901" lon="5.91994">
        <ele>2137</ele>
        <time>2021-12-20T11:09:58Z</time>
      </trkpt>
      <trkpt lat="45.12902" lon="5.91994">
        <ele>2138</ele>
        <time>2021-12-20T11:10:00Z</time>
      </trkpt>
      <trkpt lat="45.12901" lon="5.91994">
        <ele>2138</ele>
        <time>2021-12-20T11:10:02Z</time>
      </trkpt>
      <trkpt lat="45.12898" lon="5.91992">
        <ele>2140</ele>
        <time>2021-12-20T11:10:06Z</time>
      </trkpt>
      <trkpt lat="45.12899" lon="5.91993">
        <ele>2140</ele>
        <time>2021-12-20T11:10:08Z</time>
      </trkpt>
      <trkpt lat="45.12898" lon="5.91992">
        <ele>2140</ele>
        <time>2021-12-20T11:10:10Z</time>
      </trkpt>
      <trkpt lat="45.12898" lon="5.91991">
        <ele>2142</ele>
        <time>2021-12-20T11:10:16Z</time>
      </trkpt>
      <trkpt lat="45.12897" lon="5.91988">
        <ele>2142</ele>
        <time>2021-12-20T11:10:20Z</time>
      </trkpt>
      <trkpt lat="45.12896" lon="5.91987">
        <ele>2143</ele>
        <time>2021-12-20T11:10:22Z</time>
      </trkpt>
      <trkpt lat="45.12897" lon="5.91986">
        <ele>2144</ele>
        <time>2021-12-20T11:10:24Z</time>
      </trkpt>
      <trkpt lat="45.12896" lon="5.91986">
        <ele>2145</ele>
        <time>2021-12-20T11:10:30Z</time>
      </trkpt>
      <trkpt lat="45.12895" lon="5.91978">
        <ele>2146</ele>
        <time>2021-12-20T11:10:45Z</time>
      </trkpt>
      <trkpt lat="45.12891" lon="5.91973">
        <ele>2147</ele>
        <time>2021-12-20T11:10:51Z</time>
      </trkpt>
      <trkpt lat="45.12886" lon="5.9197">
        <ele>2149</ele>
        <time>2021-12-20T11:11:03Z</time>
      </trkpt>
      <trkpt lat="45.12885" lon="5.91968">
        <ele>2150</ele>
        <time>2021-12-20T11:11:05Z</time>
      </trkpt>
      <trkpt lat="45.12884" lon="5.91969">
        <ele>2150</ele>
        <time>2021-12-20T11:11:09Z</time>
      </trkpt>
      <trkpt lat="45.12879" lon="5.91967">
        <ele>2150</ele>
        <time>2021-12-20T11:11:19Z</time>
      </trkpt>
      <trkpt lat="45.12875" lon="5.91967">
        <ele>2149</ele>
        <time>2021-12-20T11:11:27Z</time>
      </trkpt>
      <trkpt lat="45.12874" lon="5.91968">
        <ele>2149</ele>
        <time>2021-12-20T11:11:29Z</time>
      </trkpt>
      <trkpt lat="45.12873" lon="5.91967">
        <ele>2150</ele>
        <time>2021-12-20T11:11:31Z</time>
      </trkpt>
      <trkpt lat="45.1287" lon="5.91967">
        <ele>2151</ele>
        <time>2021-12-20T11:11:37Z</time>
      </trkpt>
      <trkpt lat="45.12869" lon="5.91966">
        <ele>2152</ele>
        <time>2021-12-20T11:11:41Z</time>
      </trkpt>
      <trkpt lat="45.12865" lon="5.91967">
        <ele>2152</ele>
        <time>2021-12-20T11:11:49Z</time>
      </trkpt>
      <trkpt lat="45.12864" lon="5.91966">
        <ele>2152</ele>
        <time>2021-12-20T11:11:51Z</time>
      </trkpt>
      <trkpt lat="45.12863" lon="5.91967">
        <ele>2152</ele>
        <time>2021-12-20T11:11:55Z</time>
      </trkpt>
      <trkpt lat="45.12861" lon="5.91968">
        <ele>2152</ele>
        <time>2021-12-20T11:11:59Z</time>
      </trkpt>
      <trkpt lat="45.1286" lon="5.91969">
        <ele>2153</ele>
        <time>2021-12-20T11:12:01Z</time>
      </trkpt>
      <trkpt lat="45.12858" lon="5.91968">
        <ele>2153</ele>
        <time>2021-12-20T11:12:05Z</time>
      </trkpt>
      <trkpt lat="45.12855" lon="5.91967">
        <ele>2153</ele>
        <time>2021-12-20T11:12:09Z</time>
      </trkpt>
      <trkpt lat="45.12854" lon="5.91967">
        <ele>2153</ele>
        <time>2021-12-20T11:12:11Z</time>
      </trkpt>
      <trkpt lat="45.12852" lon="5.91966">
        <ele>2153</ele>
        <time>2021-12-20T11:12:15Z</time>
      </trkpt>
      <trkpt lat="45.12847" lon="5.91962">
        <ele>2154</ele>
        <time>2021-12-20T11:12:21Z</time>
      </trkpt>
      <trkpt lat="45.12843" lon="5.91958">
        <ele>2155</ele>
        <time>2021-12-20T11:12:29Z</time>
      </trkpt>
      <trkpt lat="45.12838" lon="5.91953">
        <ele>2156</ele>
        <time>2021-12-20T11:12:41Z</time>
      </trkpt>
      <trkpt lat="45.12838" lon="5.91946">
        <ele>2155</ele>
        <time>2021-12-20T11:12:55Z</time>
      </trkpt>
      <trkpt lat="45.12837" lon="5.9194">
        <ele>2156</ele>
        <time>2021-12-20T11:13:03Z</time>
      </trkpt>
      <trkpt lat="45.12836" lon="5.9194">
        <ele>2157</ele>
        <time>2021-12-20T11:13:11Z</time>
      </trkpt>
      <trkpt lat="45.12837" lon="5.9194">
        <ele>2157</ele>
        <time>2021-12-20T11:13:13Z</time>
      </trkpt>
      <trkpt lat="45.12837" lon="5.91941">
        <ele>2157</ele>
        <time>2021-12-20T11:13:15Z</time>
      </trkpt>
      <trkpt lat="45.12838" lon="5.91943">
        <ele>2157</ele>
        <time>2021-12-20T11:13:17Z</time>
      </trkpt>
      <trkpt lat="45.12837" lon="5.91942">
        <ele>2157</ele>
        <time>2021-12-20T11:13:19Z</time>
      </trkpt>
      <trkpt lat="45.12837" lon="5.91941">
        <ele>2157</ele>
        <time>2021-12-20T11:13:21Z</time>
      </trkpt>
      <trkpt lat="45.12838" lon="5.91942">
        <ele>2155</ele>
        <time>2021-12-20T11:13:31Z</time>
      </trkpt>
      <trkpt lat="45.12837" lon="5.91941">
        <ele>2155</ele>
        <time>2021-12-20T11:13:37Z</time>
      </trkpt>
      <trkpt lat="45.12838" lon="5.91941">
        <ele>2155</ele>
        <time>2021-12-20T11:13:39Z</time>
      </trkpt>
      <trkpt lat="45.12837" lon="5.9194">
        <ele>2156</ele>
        <time>2021-12-20T11:13:43Z</time>
      </trkpt>
      <trkpt lat="45.12835" lon="5.9194">
        <ele>2157</ele>
        <time>2021-12-20T11:13:49Z</time>
      </trkpt>
      <trkpt lat="45.12834" lon="5.91939">
        <ele>2157</ele>
        <time>2021-12-20T11:13:53Z</time>
      </trkpt>
      <trkpt lat="45.12834" lon="5.9194">
        <ele>2158</ele>
        <time>2021-12-20T11:14:05Z</time>
      </trkpt>
      <trkpt lat="45.12834" lon="5.91941">
        <ele>2157</ele>
        <time>2021-12-20T11:14:07Z</time>
      </trkpt>
      <trkpt lat="45.12835" lon="5.91939">
        <ele>2157</ele>
        <time>2021-12-20T11:14:09Z</time>
      </trkpt>
      <trkpt lat="45.12834" lon="5.9194">
        <ele>2159</ele>
        <time>2021-12-20T11:14:33Z</time>
      </trkpt>
      <trkpt lat="45.12845" lon="5.91958">
        <ele>2124</ele>
        <time>2021-12-20T11:32:55Z</time>
      </trkpt>
      <trkpt lat="45.12842" lon="5.91953">
        <ele>2131</ele>
        <time>2021-12-20T11:32:57Z</time>
      </trkpt>
      <trkpt lat="45.1284" lon="5.91947">
        <ele>2140</ele>
        <time>2021-12-20T11:33:01Z</time>
      </trkpt>
      <trkpt lat="45.12836" lon="5.91943">
        <ele>2144</ele>
        <time>2021-12-20T11:33:15Z</time>
      </trkpt>
      <trkpt lat="45.12836" lon="5.91941">
        <ele>2147</ele>
        <time>2021-12-20T11:33:21Z</time>
      </trkpt>
      <trkpt lat="45.12837" lon="5.9194">
        <ele>2151</ele>
        <time>2021-12-20T11:33:59Z</time>
      </trkpt>
      <trkpt lat="45.12837" lon="5.91937">
        <ele>2151</ele>
        <time>2021-12-20T11:34:01Z</time>
      </trkpt>
      <trkpt lat="45.12836" lon="5.91937">
        <ele>2150</ele>
        <time>2021-12-20T11:34:03Z</time>
      </trkpt>
      <trkpt lat="45.12835" lon="5.91936">
        <ele>2150</ele>
        <time>2021-12-20T11:34:05Z</time>
      </trkpt>
      <trkpt lat="45.12836" lon="5.91938">
        <ele>2151</ele>
        <time>2021-12-20T11:34:13Z</time>
      </trkpt>
      <trkpt lat="45.12835" lon="5.91938">
        <ele>2152</ele>
        <time>2021-12-20T11:34:19Z</time>
      </trkpt>
      <trkpt lat="45.12834" lon="5.91937">
        <ele>2152</ele>
        <time>2021-12-20T11:34:21Z</time>
      </trkpt>
      <trkpt lat="45.12834" lon="5.91938">
        <ele>2152</ele>
        <time>2021-12-20T11:34:33Z</time>
      </trkpt>
      <trkpt lat="45.12834" lon="5.91939">
        <ele>2152</ele>
        <time>2021-12-20T11:34:39Z</time>
      </trkpt>
      <trkpt lat="45.12834" lon="5.91932">
        <ele>2152</ele>
        <time>2021-12-20T11:34:47Z</time>
      </trkpt>
      <trkpt lat="45.12833" lon="5.91926">
        <ele>2154</ele>
        <time>2021-12-20T11:34:57Z</time>
      </trkpt>
      <trkpt lat="45.12829" lon="5.91924">
        <ele>2154</ele>
        <time>2021-12-20T11:35:03Z</time>
      </trkpt>
      <trkpt lat="45.12825" lon="5.91928">
        <ele>2153</ele>
        <time>2021-12-20T11:35:11Z</time>
      </trkpt>
      <trkpt lat="45.1282" lon="5.91926">
        <ele>2152</ele>
        <time>2021-12-20T11:35:19Z</time>
      </trkpt>
      <trkpt lat="45.12815" lon="5.91921">
        <ele>2150</ele>
        <time>2021-12-20T11:35:31Z</time>
      </trkpt>
      <trkpt lat="45.12812" lon="5.91916">
        <ele>2150</ele>
        <time>2021-12-20T11:35:37Z</time>
      </trkpt>
      <trkpt lat="45.12811" lon="5.91915">
        <ele>2148</ele>
        <time>2021-12-20T11:35:39Z</time>
      </trkpt>
      <trkpt lat="45.12811" lon="5.91914">
        <ele>2149</ele>
        <time>2021-12-20T11:35:45Z</time>
      </trkpt>
      <trkpt lat="45.12809" lon="5.91913">
        <ele>2148</ele>
        <time>2021-12-20T11:35:47Z</time>
      </trkpt>
      <trkpt lat="45.12805" lon="5.91908">
        <ele>2149</ele>
        <time>2021-12-20T11:35:55Z</time>
      </trkpt>
      <trkpt lat="45.12799" lon="5.91902">
        <ele>2150</ele>
        <time>2021-12-20T11:36:01Z</time>
      </trkpt>
      <trkpt lat="45.12795" lon="5.91895">
        <ele>2150</ele>
        <time>2021-12-20T11:36:05Z</time>
      </trkpt>
      <trkpt lat="45.12789" lon="5.91887">
        <ele>2149</ele>
        <time>2021-12-20T11:36:09Z</time>
      </trkpt>
      <trkpt lat="45.12784" lon="5.91877">
        <ele>2146</ele>
        <time>2021-12-20T11:36:13Z</time>
      </trkpt>
      <trkpt lat="45.12779" lon="5.91868">
        <ele>2146</ele>
        <time>2021-12-20T11:36:15Z</time>
      </trkpt>
      <trkpt lat="45.12774" lon="5.91866">
        <ele>2145</ele>
        <time>2021-12-20T11:36:21Z</time>
      </trkpt>
      <trkpt lat="45.12769" lon="5.9186">
        <ele>2143</ele>
        <time>2021-12-20T11:36:35Z</time>
      </trkpt>
      <trkpt lat="45.12764" lon="5.91857">
        <ele>2142</ele>
        <time>2021-12-20T11:36:41Z</time>
      </trkpt>
      <trkpt lat="45.12764" lon="5.91856">
        <ele>2143</ele>
        <time>2021-12-20T11:36:43Z</time>
      </trkpt>
      <trkpt lat="45.12764" lon="5.91855">
        <ele>2142</ele>
        <time>2021-12-20T11:36:49Z</time>
      </trkpt>
      <trkpt lat="45.1276" lon="5.91849">
        <ele>2142</ele>
        <time>2021-12-20T11:36:55Z</time>
      </trkpt>
      <trkpt lat="45.12755" lon="5.91842">
        <ele>2142</ele>
        <time>2021-12-20T11:37:01Z</time>
      </trkpt>
      <trkpt lat="45.12749" lon="5.91841">
        <ele>2141</ele>
        <time>2021-12-20T11:37:07Z</time>
      </trkpt>
      <trkpt lat="45.12745" lon="5.91837">
        <ele>2141</ele>
        <time>2021-12-20T11:37:13Z</time>
      </trkpt>
      <trkpt lat="45.12741" lon="5.91834">
        <ele>2140</ele>
        <time>2021-12-20T11:37:17Z</time>
      </trkpt>
      <trkpt lat="45.12737" lon="5.91829">
        <ele>2140</ele>
        <time>2021-12-20T11:37:21Z</time>
      </trkpt>
      <trkpt lat="45.12732" lon="5.91826">
        <ele>2139</ele>
        <time>2021-12-20T11:37:27Z</time>
      </trkpt>
      <trkpt lat="45.12728" lon="5.91822">
        <ele>2139</ele>
        <time>2021-12-20T11:37:31Z</time>
      </trkpt>
      <trkpt lat="45.12723" lon="5.91816">
        <ele>2138</ele>
        <time>2021-12-20T11:37:37Z</time>
      </trkpt>
      <trkpt lat="45.12719" lon="5.91812">
        <ele>2139</ele>
        <time>2021-12-20T11:37:43Z</time>
      </trkpt>
      <trkpt lat="45.12716" lon="5.91803">
        <ele>2140</ele>
        <time>2021-12-20T11:37:49Z</time>
      </trkpt>
      <trkpt lat="45.12712" lon="5.91797">
        <ele>2138</ele>
        <time>2021-12-20T11:37:55Z</time>
      </trkpt>
      <trkpt lat="45.1271" lon="5.91791">
        <ele>2138</ele>
        <time>2021-12-20T11:38:01Z</time>
      </trkpt>
      <trkpt lat="45.12708" lon="5.91785">
        <ele>2137</ele>
        <time>2021-12-20T11:38:07Z</time>
      </trkpt>
      <trkpt lat="45.12707" lon="5.91777">
        <ele>2137</ele>
        <time>2021-12-20T11:38:13Z</time>
      </trkpt>
      <trkpt lat="45.12704" lon="5.9177">
        <ele>2136</ele>
        <time>2021-12-20T11:38:19Z</time>
      </trkpt>
      <trkpt lat="45.12702" lon="5.91763">
        <ele>2136</ele>
        <time>2021-12-20T11:38:27Z</time>
      </trkpt>
      <trkpt lat="45.12699" lon="5.91756">
        <ele>2135</ele>
        <time>2021-12-20T11:38:33Z</time>
      </trkpt>
      <trkpt lat="45.12697" lon="5.91749">
        <ele>2132</ele>
        <time>2021-12-20T11:38:41Z</time>
      </trkpt>
      <trkpt lat="45.12694" lon="5.91744">
        <ele>2132</ele>
        <time>2021-12-20T11:38:49Z</time>
      </trkpt>
      <trkpt lat="45.12691" lon="5.91737">
        <ele>2132</ele>
        <time>2021-12-20T11:38:57Z</time>
      </trkpt>
      <trkpt lat="45.12688" lon="5.91732">
        <ele>2132</ele>
        <time>2021-12-20T11:39:05Z</time>
      </trkpt>
      <trkpt lat="45.12685" lon="5.91725">
        <ele>2134</ele>
        <time>2021-12-20T11:39:15Z</time>
      </trkpt>
      <trkpt lat="45.12683" lon="5.91717">
        <ele>2135</ele>
        <time>2021-12-20T11:39:25Z</time>
      </trkpt>
      <trkpt lat="45.12679" lon="5.91711">
        <ele>2135</ele>
        <time>2021-12-20T11:39:35Z</time>
      </trkpt>
      <trkpt lat="45.12676" lon="5.91705">
        <ele>2135</ele>
        <time>2021-12-20T11:39:43Z</time>
      </trkpt>
      <trkpt lat="45.12674" lon="5.91698">
        <ele>2135</ele>
        <time>2021-12-20T11:39:51Z</time>
      </trkpt>
      <trkpt lat="45.12672" lon="5.91697">
        <ele>2136</ele>
        <time>2021-12-20T11:39:55Z</time>
      </trkpt>
      <trkpt lat="45.12673" lon="5.91697">
        <ele>2136</ele>
        <time>2021-12-20T11:40:09Z</time>
      </trkpt>
      <trkpt lat="45.12673" lon="5.91696">
        <ele>2137</ele>
        <time>2021-12-20T11:40:11Z</time>
      </trkpt>
      <trkpt lat="45.12671" lon="5.91691">
        <ele>2139</ele>
        <time>2021-12-20T11:40:19Z</time>
      </trkpt>
      <trkpt lat="45.12668" lon="5.91686">
        <ele>2141</ele>
        <time>2021-12-20T11:40:29Z</time>
      </trkpt>
      <trkpt lat="45.12665" lon="5.9168">
        <ele>2143</ele>
        <time>2021-12-20T11:40:37Z</time>
      </trkpt>
      <trkpt lat="45.12662" lon="5.91674">
        <ele>2146</ele>
        <time>2021-12-20T11:40:45Z</time>
      </trkpt>
      <trkpt lat="45.1266" lon="5.91668">
        <ele>2146</ele>
        <time>2021-12-20T11:40:55Z</time>
      </trkpt>
      <trkpt lat="45.12658" lon="5.91661">
        <ele>2148</ele>
        <time>2021-12-20T11:41:07Z</time>
      </trkpt>
      <trkpt lat="45.12656" lon="5.91655">
        <ele>2147</ele>
        <time>2021-12-20T11:41:17Z</time>
      </trkpt>
      <trkpt lat="45.12653" lon="5.91648">
        <ele>2151</ele>
        <time>2021-12-20T11:41:27Z</time>
      </trkpt>
      <trkpt lat="45.12652" lon="5.91641">
        <ele>2153</ele>
        <time>2021-12-20T11:41:37Z</time>
      </trkpt>
      <trkpt lat="45.12652" lon="5.91634">
        <ele>2152</ele>
        <time>2021-12-20T11:41:43Z</time>
      </trkpt>
      <trkpt lat="45.12648" lon="5.9163">
        <ele>2152</ele>
        <time>2021-12-20T11:41:53Z</time>
      </trkpt>
      <trkpt lat="45.12646" lon="5.91623">
        <ele>2155</ele>
        <time>2021-12-20T11:42:03Z</time>
      </trkpt>
      <trkpt lat="45.12645" lon="5.91616">
        <ele>2154</ele>
        <time>2021-12-20T11:42:11Z</time>
      </trkpt>
      <trkpt lat="45.12645" lon="5.91609">
        <ele>2155</ele>
        <time>2021-12-20T11:42:23Z</time>
      </trkpt>
      <trkpt lat="45.12643" lon="5.91601">
        <ele>2154</ele>
        <time>2021-12-20T11:42:31Z</time>
      </trkpt>
      <trkpt lat="45.12642" lon="5.91595">
        <ele>2155</ele>
        <time>2021-12-20T11:42:39Z</time>
      </trkpt>
      <trkpt lat="45.12642" lon="5.91588">
        <ele>2157</ele>
        <time>2021-12-20T11:42:45Z</time>
      </trkpt>
      <trkpt lat="45.12642" lon="5.9158">
        <ele>2156</ele>
        <time>2021-12-20T11:42:53Z</time>
      </trkpt>
      <trkpt lat="45.12641" lon="5.91572">
        <ele>2157</ele>
        <time>2021-12-20T11:43:01Z</time>
      </trkpt>
      <trkpt lat="45.12639" lon="5.91566">
        <ele>2156</ele>
        <time>2021-12-20T11:43:09Z</time>
      </trkpt>
      <trkpt lat="45.12639" lon="5.91559">
        <ele>2156</ele>
        <time>2021-12-20T11:43:17Z</time>
      </trkpt>
      <trkpt lat="45.12638" lon="5.91553">
        <ele>2157</ele>
        <time>2021-12-20T11:43:25Z</time>
      </trkpt>
      <trkpt lat="45.12636" lon="5.91545">
        <ele>2155</ele>
        <time>2021-12-20T11:43:33Z</time>
      </trkpt>
      <trkpt lat="45.12635" lon="5.91537">
        <ele>2154</ele>
        <time>2021-12-20T11:43:39Z</time>
      </trkpt>
      <trkpt lat="45.12634" lon="5.9153">
        <ele>2156</ele>
        <time>2021-12-20T11:43:47Z</time>
      </trkpt>
      <trkpt lat="45.12632" lon="5.91523">
        <ele>2157</ele>
        <time>2021-12-20T11:43:55Z</time>
      </trkpt>
      <trkpt lat="45.12632" lon="5.91519">
        <ele>2158</ele>
        <time>2021-12-20T11:44:00Z</time>
      </trkpt>
      <trkpt lat="45.12632" lon="5.91518">
        <ele>2159</ele>
        <time>2021-12-20T11:44:02Z</time>
      </trkpt>
      <trkpt lat="45.12632" lon="5.91516">
        <ele>2160</ele>
        <time>2021-12-20T11:44:04Z</time>
      </trkpt>
      <trkpt lat="45.1263" lon="5.9151">
        <ele>2161</ele>
        <time>2021-12-20T11:44:12Z</time>
      </trkpt>
      <trkpt lat="45.12628" lon="5.91503">
        <ele>2160</ele>
        <time>2021-12-20T11:44:20Z</time>
      </trkpt>
      <trkpt lat="45.12625" lon="5.91496">
        <ele>2161</ele>
        <time>2021-12-20T11:44:30Z</time>
      </trkpt>
      <trkpt lat="45.12624" lon="5.91489">
        <ele>2162</ele>
        <time>2021-12-20T11:44:36Z</time>
      </trkpt>
      <trkpt lat="45.12623" lon="5.91485">
        <ele>2161</ele>
        <time>2021-12-20T11:44:44Z</time>
      </trkpt>
      <trkpt lat="45.12623" lon="5.91484">
        <ele>2161</ele>
        <time>2021-12-20T11:44:46Z</time>
      </trkpt>
      <trkpt lat="45.12623" lon="5.91481">
        <ele>2162</ele>
        <time>2021-12-20T11:44:50Z</time>
      </trkpt>
      <trkpt lat="45.1262" lon="5.91474">
        <ele>2163</ele>
        <time>2021-12-20T11:44:58Z</time>
      </trkpt>
      <trkpt lat="45.12617" lon="5.91469">
        <ele>2165</ele>
        <time>2021-12-20T11:45:08Z</time>
      </trkpt>
      <trkpt lat="45.12613" lon="5.91462">
        <ele>2166</ele>
        <time>2021-12-20T11:45:14Z</time>
      </trkpt>
      <trkpt lat="45.12611" lon="5.91456">
        <ele>2167</ele>
        <time>2021-12-20T11:45:20Z</time>
      </trkpt>
      <trkpt lat="45.12608" lon="5.91449">
        <ele>2166</ele>
        <time>2021-12-20T11:45:28Z</time>
      </trkpt>
      <trkpt lat="45.12609" lon="5.91448">
        <ele>2166</ele>
        <time>2021-12-20T11:45:30Z</time>
      </trkpt>
      <trkpt lat="45.12608" lon="5.91447">
        <ele>2165</ele>
        <time>2021-12-20T11:45:32Z</time>
      </trkpt>
      <trkpt lat="45.12608" lon="5.91445">
        <ele>2165</ele>
        <time>2021-12-20T11:45:34Z</time>
      </trkpt>
      <trkpt lat="45.12604" lon="5.91441">
        <ele>2167</ele>
        <time>2021-12-20T11:45:44Z</time>
      </trkpt>
      <trkpt lat="45.126" lon="5.91435">
        <ele>2168</ele>
        <time>2021-12-20T11:45:54Z</time>
      </trkpt>
      <trkpt lat="45.12595" lon="5.91428">
        <ele>2169</ele>
        <time>2021-12-20T11:46:04Z</time>
      </trkpt>
      <trkpt lat="45.12591" lon="5.91424">
        <ele>2168</ele>
        <time>2021-12-20T11:46:14Z</time>
      </trkpt>
      <trkpt lat="45.12591" lon="5.91423">
        <ele>2167</ele>
        <time>2021-12-20T11:46:16Z</time>
      </trkpt>
      <trkpt lat="45.1259" lon="5.91421">
        <ele>2167</ele>
        <time>2021-12-20T11:46:22Z</time>
      </trkpt>
      <trkpt lat="45.12587" lon="5.91416">
        <ele>2167</ele>
        <time>2021-12-20T11:46:32Z</time>
      </trkpt>
      <trkpt lat="45.12583" lon="5.9141">
        <ele>2167</ele>
        <time>2021-12-20T11:46:42Z</time>
      </trkpt>
      <trkpt lat="45.12581" lon="5.91403">
        <ele>2168</ele>
        <time>2021-12-20T11:46:49Z</time>
      </trkpt>
      <trkpt lat="45.1258" lon="5.91397">
        <ele>2169</ele>
        <time>2021-12-20T11:46:59Z</time>
      </trkpt>
      <trkpt lat="45.12579" lon="5.91391">
        <ele>2167</ele>
        <time>2021-12-20T11:47:07Z</time>
      </trkpt>
      <trkpt lat="45.12577" lon="5.91388">
        <ele>2167</ele>
        <time>2021-12-20T11:47:13Z</time>
      </trkpt>
      <trkpt lat="45.12577" lon="5.91386">
        <ele>2167</ele>
        <time>2021-12-20T11:47:15Z</time>
      </trkpt>
      <trkpt lat="45.12576" lon="5.91386">
        <ele>2168</ele>
        <time>2021-12-20T11:47:17Z</time>
      </trkpt>
      <trkpt lat="45.12574" lon="5.91382">
        <ele>2168</ele>
        <time>2021-12-20T11:47:21Z</time>
      </trkpt>
      <trkpt lat="45.12575" lon="5.9138">
        <ele>2168</ele>
        <time>2021-12-20T11:47:23Z</time>
      </trkpt>
      <trkpt lat="45.12573" lon="5.9138">
        <ele>2168</ele>
        <time>2021-12-20T11:47:25Z</time>
      </trkpt>
      <trkpt lat="45.12573" lon="5.91379">
        <ele>2168</ele>
        <time>2021-12-20T11:47:27Z</time>
      </trkpt>
      <trkpt lat="45.12571" lon="5.91375">
        <ele>2168</ele>
        <time>2021-12-20T11:47:31Z</time>
      </trkpt>
      <trkpt lat="45.1257" lon="5.91373">
        <ele>2167</ele>
        <time>2021-12-20T11:47:33Z</time>
      </trkpt>
      <trkpt lat="45.12569" lon="5.91372">
        <ele>2167</ele>
        <time>2021-12-20T11:47:35Z</time>
      </trkpt>
      <trkpt lat="45.12568" lon="5.9137">
        <ele>2167</ele>
        <time>2021-12-20T11:47:39Z</time>
      </trkpt>
      <trkpt lat="45.12568" lon="5.91369">
        <ele>2167</ele>
        <time>2021-12-20T11:47:41Z</time>
      </trkpt>
      <trkpt lat="45.12566" lon="5.91368">
        <ele>2167</ele>
        <time>2021-12-20T11:47:43Z</time>
      </trkpt>
      <trkpt lat="45.12566" lon="5.91367">
        <ele>2167</ele>
        <time>2021-12-20T11:47:45Z</time>
      </trkpt>
      <trkpt lat="45.12566" lon="5.91365">
        <ele>2167</ele>
        <time>2021-12-20T11:47:47Z</time>
      </trkpt>
      <trkpt lat="45.12564" lon="5.91364">
        <ele>2166</ele>
        <time>2021-12-20T11:47:53Z</time>
      </trkpt>
      <trkpt lat="45.12564" lon="5.91362">
        <ele>2167</ele>
        <time>2021-12-20T11:47:55Z</time>
      </trkpt>
      <trkpt lat="45.12562" lon="5.9136">
        <ele>2167</ele>
        <time>2021-12-20T11:47:59Z</time>
      </trkpt>
      <trkpt lat="45.12559" lon="5.91356">
        <ele>2166</ele>
        <time>2021-12-20T11:48:09Z</time>
      </trkpt>
      <trkpt lat="45.12557" lon="5.91353">
        <ele>2169</ele>
        <time>2021-12-20T11:48:17Z</time>
      </trkpt>
      <trkpt lat="45.12556" lon="5.91352">
        <ele>2170</ele>
        <time>2021-12-20T11:48:19Z</time>
      </trkpt>
      <trkpt lat="45.12555" lon="5.91349">
        <ele>2170</ele>
        <time>2021-12-20T11:48:25Z</time>
      </trkpt>
      <trkpt lat="45.12554" lon="5.91348">
        <ele>2171</ele>
        <time>2021-12-20T11:48:27Z</time>
      </trkpt>
      <trkpt lat="45.12554" lon="5.91347">
        <ele>2171</ele>
        <time>2021-12-20T11:48:29Z</time>
      </trkpt>
      <trkpt lat="45.12553" lon="5.91344">
        <ele>2172</ele>
        <time>2021-12-20T11:48:33Z</time>
      </trkpt>
      <trkpt lat="45.12553" lon="5.91342">
        <ele>2173</ele>
        <time>2021-12-20T11:48:35Z</time>
      </trkpt>
      <trkpt lat="45.12552" lon="5.91341">
        <ele>2174</ele>
        <time>2021-12-20T11:48:39Z</time>
      </trkpt>
      <trkpt lat="45.1255" lon="5.91335">
        <ele>2176</ele>
        <time>2021-12-20T11:48:47Z</time>
      </trkpt>
      <trkpt lat="45.12546" lon="5.9133">
        <ele>2178</ele>
        <time>2021-12-20T11:48:55Z</time>
      </trkpt>
      <trkpt lat="45.12544" lon="5.91324">
        <ele>2177</ele>
        <time>2021-12-20T11:49:03Z</time>
      </trkpt>
      <trkpt lat="45.12543" lon="5.91322">
        <ele>2178</ele>
        <time>2021-12-20T11:49:05Z</time>
      </trkpt>
      <trkpt lat="45.12543" lon="5.91323">
        <ele>2178</ele>
        <time>2021-12-20T11:49:07Z</time>
      </trkpt>
      <trkpt lat="45.12541" lon="5.91317">
        <ele>2179</ele>
        <time>2021-12-20T11:49:15Z</time>
      </trkpt>
      <trkpt lat="45.12539" lon="5.91315">
        <ele>2179</ele>
        <time>2021-12-20T11:49:19Z</time>
      </trkpt>
      <trkpt lat="45.12538" lon="5.91313">
        <ele>2178</ele>
        <time>2021-12-20T11:49:21Z</time>
      </trkpt>
      <trkpt lat="45.12538" lon="5.91312">
        <ele>2178</ele>
        <time>2021-12-20T11:49:23Z</time>
      </trkpt>
      <trkpt lat="45.12536" lon="5.91311">
        <ele>2179</ele>
        <time>2021-12-20T11:49:27Z</time>
      </trkpt>
      <trkpt lat="45.12534" lon="5.91308">
        <ele>2180</ele>
        <time>2021-12-20T11:49:33Z</time>
      </trkpt>
      <trkpt lat="45.12534" lon="5.91309">
        <ele>2180</ele>
        <time>2021-12-20T11:49:35Z</time>
      </trkpt>
      <trkpt lat="45.12535" lon="5.9131">
        <ele>2180</ele>
        <time>2021-12-20T11:49:37Z</time>
      </trkpt>
      <trkpt lat="45.12539" lon="5.91313">
        <ele>2180</ele>
        <time>2021-12-20T11:49:45Z</time>
      </trkpt>
      <trkpt lat="45.12543" lon="5.91315">
        <ele>2182</ele>
        <time>2021-12-20T11:49:51Z</time>
      </trkpt>
      <trkpt lat="45.12544" lon="5.91316">
        <ele>2181</ele>
        <time>2021-12-20T11:49:53Z</time>
      </trkpt>
      <trkpt lat="45.12549" lon="5.91317">
        <ele>2182</ele>
        <time>2021-12-20T11:50:09Z</time>
      </trkpt>
      <trkpt lat="45.1255" lon="5.91316">
        <ele>2182</ele>
        <time>2021-12-20T11:50:13Z</time>
      </trkpt>
      <trkpt lat="45.12551" lon="5.91316">
        <ele>2182</ele>
        <time>2021-12-20T11:50:15Z</time>
      </trkpt>
      <trkpt lat="45.12556" lon="5.91318">
        <ele>2183</ele>
        <time>2021-12-20T11:50:27Z</time>
      </trkpt>
      <trkpt lat="45.12557" lon="5.91319">
        <ele>2183</ele>
        <time>2021-12-20T11:50:29Z</time>
      </trkpt>
      <trkpt lat="45.12558" lon="5.91319">
        <ele>2184</ele>
        <time>2021-12-20T11:50:31Z</time>
      </trkpt>
      <trkpt lat="45.12559" lon="5.91319">
        <ele>2185</ele>
        <time>2021-12-20T11:50:33Z</time>
      </trkpt>
      <trkpt lat="45.1256" lon="5.91318">
        <ele>2187</ele>
        <time>2021-12-20T11:50:35Z</time>
      </trkpt>
      <trkpt lat="45.12561" lon="5.91318">
        <ele>2187</ele>
        <time>2021-12-20T11:50:37Z</time>
      </trkpt>
      <trkpt lat="45.12563" lon="5.91318">
        <ele>2187</ele>
        <time>2021-12-20T11:50:39Z</time>
      </trkpt>
      <trkpt lat="45.12565" lon="5.91321">
        <ele>2188</ele>
        <time>2021-12-20T11:50:45Z</time>
      </trkpt>
      <trkpt lat="45.12566" lon="5.91321">
        <ele>2188</ele>
        <time>2021-12-20T11:50:51Z</time>
      </trkpt>
      <trkpt lat="45.12567" lon="5.91321">
        <ele>2188</ele>
        <time>2021-12-20T11:50:57Z</time>
      </trkpt>
      <trkpt lat="45.12568" lon="5.9132">
        <ele>2187</ele>
        <time>2021-12-20T11:50:59Z</time>
      </trkpt>
      <trkpt lat="45.1257" lon="5.91321">
        <ele>2188</ele>
        <time>2021-12-20T11:51:01Z</time>
      </trkpt>
      <trkpt lat="45.12567" lon="5.91314">
        <ele>2190</ele>
        <time>2021-12-20T11:51:17Z</time>
      </trkpt>
      <trkpt lat="45.12565" lon="5.91309">
        <ele>2188</ele>
        <time>2021-12-20T11:51:25Z</time>
      </trkpt>
      <trkpt lat="45.12564" lon="5.91308">
        <ele>2189</ele>
        <time>2021-12-20T11:51:27Z</time>
      </trkpt>
      <trkpt lat="45.12563" lon="5.91307">
        <ele>2189</ele>
        <time>2021-12-20T11:51:29Z</time>
      </trkpt>
      <trkpt lat="45.12563" lon="5.91301">
        <ele>2191</ele>
        <time>2021-12-20T11:51:39Z</time>
      </trkpt>
      <trkpt lat="45.12561" lon="5.913">
        <ele>2193</ele>
        <time>2021-12-20T11:51:41Z</time>
      </trkpt>
      <trkpt lat="45.1256" lon="5.91299">
        <ele>2194</ele>
        <time>2021-12-20T11:51:43Z</time>
      </trkpt>
      <trkpt lat="45.12557" lon="5.91294">
        <ele>2193</ele>
        <time>2021-12-20T11:51:55Z</time>
      </trkpt>
      <trkpt lat="45.12555" lon="5.9129">
        <ele>2194</ele>
        <time>2021-12-20T11:52:03Z</time>
      </trkpt>
      <trkpt lat="45.12553" lon="5.91289">
        <ele>2194</ele>
        <time>2021-12-20T11:52:05Z</time>
      </trkpt>
      <trkpt lat="45.12552" lon="5.91287">
        <ele>2194</ele>
        <time>2021-12-20T11:52:09Z</time>
      </trkpt>
      <trkpt lat="45.12552" lon="5.91289">
        <ele>2195</ele>
        <time>2021-12-20T11:52:11Z</time>
      </trkpt>
      <trkpt lat="45.12551" lon="5.91287">
        <ele>2196</ele>
        <time>2021-12-20T11:52:15Z</time>
      </trkpt>
      <trkpt lat="45.12548" lon="5.91282">
        <ele>2200</ele>
        <time>2021-12-20T11:52:30Z</time>
      </trkpt>
      <trkpt lat="45.12545" lon="5.91278">
        <ele>2200</ele>
        <time>2021-12-20T11:52:40Z</time>
      </trkpt>
      <trkpt lat="45.12544" lon="5.91277">
        <ele>2199</ele>
        <time>2021-12-20T11:52:42Z</time>
      </trkpt>
      <trkpt lat="45.12544" lon="5.91275">
        <ele>2199</ele>
        <time>2021-12-20T11:52:44Z</time>
      </trkpt>
      <trkpt lat="45.12541" lon="5.91269">
        <ele>2202</ele>
        <time>2021-12-20T11:52:54Z</time>
      </trkpt>
      <trkpt lat="45.1254" lon="5.91268">
        <ele>2202</ele>
        <time>2021-12-20T11:52:56Z</time>
      </trkpt>
      <trkpt lat="45.12539" lon="5.91268">
        <ele>2202</ele>
        <time>2021-12-20T11:52:58Z</time>
      </trkpt>
      <trkpt lat="45.12539" lon="5.91269">
        <ele>2202</ele>
        <time>2021-12-20T11:53:00Z</time>
      </trkpt>
      <trkpt lat="45.12535" lon="5.91264">
        <ele>2202</ele>
        <time>2021-12-20T11:53:10Z</time>
      </trkpt>
      <trkpt lat="45.12532" lon="5.91259">
        <ele>2203</ele>
        <time>2021-12-20T11:53:18Z</time>
      </trkpt>
      <trkpt lat="45.12531" lon="5.91255">
        <ele>2203</ele>
        <time>2021-12-20T11:53:24Z</time>
      </trkpt>
      <trkpt lat="45.1253" lon="5.91254">
        <ele>2203</ele>
        <time>2021-12-20T11:53:26Z</time>
      </trkpt>
      <trkpt lat="45.12527" lon="5.91248">
        <ele>2204</ele>
        <time>2021-12-20T11:53:38Z</time>
      </trkpt>
      <trkpt lat="45.12524" lon="5.91242">
        <ele>2209</ele>
        <time>2021-12-20T11:53:56Z</time>
      </trkpt>
      <trkpt lat="45.12525" lon="5.91242">
        <ele>2209</ele>
        <time>2021-12-20T11:54:00Z</time>
      </trkpt>
      <trkpt lat="45.12526" lon="5.91243">
        <ele>2208</ele>
        <time>2021-12-20T11:54:04Z</time>
      </trkpt>
      <trkpt lat="45.12532" lon="5.91246">
        <ele>2209</ele>
        <time>2021-12-20T11:54:18Z</time>
      </trkpt>
      <trkpt lat="45.12537" lon="5.91246">
        <ele>2211</ele>
        <time>2021-12-20T11:54:32Z</time>
      </trkpt>
      <trkpt lat="45.12541" lon="5.91248">
        <ele>2211</ele>
        <time>2021-12-20T11:54:42Z</time>
      </trkpt>
      <trkpt lat="45.12544" lon="5.91249">
        <ele>2210</ele>
        <time>2021-12-20T11:54:48Z</time>
      </trkpt>
      <trkpt lat="45.12545" lon="5.91248">
        <ele>2209</ele>
        <time>2021-12-20T11:54:50Z</time>
      </trkpt>
      <trkpt lat="45.12547" lon="5.91248">
        <ele>2210</ele>
        <time>2021-12-20T11:54:52Z</time>
      </trkpt>
      <trkpt lat="45.12545" lon="5.91242">
        <ele>2212</ele>
        <time>2021-12-20T11:55:02Z</time>
      </trkpt>
      <trkpt lat="45.12543" lon="5.91237">
        <ele>2214</ele>
        <time>2021-12-20T11:55:10Z</time>
      </trkpt>
      <trkpt lat="45.12543" lon="5.91236">
        <ele>2214</ele>
        <time>2021-12-20T11:55:12Z</time>
      </trkpt>
      <trkpt lat="45.12542" lon="5.91236">
        <ele>2214</ele>
        <time>2021-12-20T11:55:14Z</time>
      </trkpt>
      <trkpt lat="45.12539" lon="5.91233">
        <ele>2214</ele>
        <time>2021-12-20T11:55:20Z</time>
      </trkpt>
      <trkpt lat="45.12539" lon="5.91232">
        <ele>2214</ele>
        <time>2021-12-20T11:55:22Z</time>
      </trkpt>
      <trkpt lat="45.12538" lon="5.9123">
        <ele>2213</ele>
        <time>2021-12-20T11:55:26Z</time>
      </trkpt>
      <trkpt lat="45.12533" lon="5.91225">
        <ele>2213</ele>
        <time>2021-12-20T11:55:36Z</time>
      </trkpt>
      <trkpt lat="45.12529" lon="5.91222">
        <ele>2213</ele>
        <time>2021-12-20T11:55:46Z</time>
      </trkpt>
      <trkpt lat="45.12528" lon="5.9122">
        <ele>2213</ele>
        <time>2021-12-20T11:55:48Z</time>
      </trkpt>
      <trkpt lat="45.12528" lon="5.91219">
        <ele>2213</ele>
        <time>2021-12-20T11:55:50Z</time>
      </trkpt>
      <trkpt lat="45.12527" lon="5.91219">
        <ele>2214</ele>
        <time>2021-12-20T11:55:52Z</time>
      </trkpt>
      <trkpt lat="45.12526" lon="5.91219">
        <ele>2215</ele>
        <time>2021-12-20T11:55:56Z</time>
      </trkpt>
      <trkpt lat="45.12526" lon="5.9122">
        <ele>2216</ele>
        <time>2021-12-20T11:55:58Z</time>
      </trkpt>
      <trkpt lat="45.12525" lon="5.91218">
        <ele>2216</ele>
        <time>2021-12-20T11:56:00Z</time>
      </trkpt>
      <trkpt lat="45.12521" lon="5.91213">
        <ele>2214</ele>
        <time>2021-12-20T11:56:08Z</time>
      </trkpt>
      <trkpt lat="45.12518" lon="5.91211">
        <ele>2216</ele>
        <time>2021-12-20T11:56:14Z</time>
      </trkpt>
      <trkpt lat="45.12517" lon="5.9121">
        <ele>2215</ele>
        <time>2021-12-20T11:56:16Z</time>
      </trkpt>
      <trkpt lat="45.12514" lon="5.91207">
        <ele>2217</ele>
        <time>2021-12-20T11:56:26Z</time>
      </trkpt>
      <trkpt lat="45.12514" lon="5.91205">
        <ele>2217</ele>
        <time>2021-12-20T11:56:28Z</time>
      </trkpt>
      <trkpt lat="45.12513" lon="5.91203">
        <ele>2215</ele>
        <time>2021-12-20T11:56:30Z</time>
      </trkpt>
      <trkpt lat="45.12511" lon="5.91202">
        <ele>2217</ele>
        <time>2021-12-20T11:56:34Z</time>
      </trkpt>
      <trkpt lat="45.12509" lon="5.91201">
        <ele>2216</ele>
        <time>2021-12-20T11:56:42Z</time>
      </trkpt>
      <trkpt lat="45.12504" lon="5.91196">
        <ele>2218</ele>
        <time>2021-12-20T11:56:52Z</time>
      </trkpt>
      <trkpt lat="45.12501" lon="5.9119">
        <ele>2217</ele>
        <time>2021-12-20T11:57:06Z</time>
      </trkpt>
      <trkpt lat="45.12502" lon="5.91188">
        <ele>2217</ele>
        <time>2021-12-20T11:57:12Z</time>
      </trkpt>
      <trkpt lat="45.12503" lon="5.91187">
        <ele>2217</ele>
        <time>2021-12-20T11:57:16Z</time>
      </trkpt>
      <trkpt lat="45.12507" lon="5.91184">
        <ele>2217</ele>
        <time>2021-12-20T11:57:26Z</time>
      </trkpt>
      <trkpt lat="45.12513" lon="5.91179">
        <ele>2219</ele>
        <time>2021-12-20T11:57:34Z</time>
      </trkpt>
      <trkpt lat="45.12513" lon="5.91178">
        <ele>2218</ele>
        <time>2021-12-20T11:57:38Z</time>
      </trkpt>
      <trkpt lat="45.12514" lon="5.91178">
        <ele>2218</ele>
        <time>2021-12-20T11:57:40Z</time>
      </trkpt>
      <trkpt lat="45.12515" lon="5.91176">
        <ele>2219</ele>
        <time>2021-12-20T11:57:42Z</time>
      </trkpt>
      <trkpt lat="45.12519" lon="5.91171">
        <ele>2220</ele>
        <time>2021-12-20T11:57:50Z</time>
      </trkpt>
      <trkpt lat="45.12521" lon="5.91166">
        <ele>2221</ele>
        <time>2021-12-20T11:57:56Z</time>
      </trkpt>
      <trkpt lat="45.12522" lon="5.91166">
        <ele>2221</ele>
        <time>2021-12-20T11:57:58Z</time>
      </trkpt>
      <trkpt lat="45.12521" lon="5.91166">
        <ele>2222</ele>
        <time>2021-12-20T11:58:12Z</time>
      </trkpt>
      <trkpt lat="45.12524" lon="5.91161">
        <ele>2223</ele>
        <time>2021-12-20T11:58:28Z</time>
      </trkpt>
      <trkpt lat="45.12524" lon="5.9116">
        <ele>2223</ele>
        <time>2021-12-20T11:58:30Z</time>
      </trkpt>
      <trkpt lat="45.12526" lon="5.91158">
        <ele>2224</ele>
        <time>2021-12-20T11:58:32Z</time>
      </trkpt>
      <trkpt lat="45.12528" lon="5.91151">
        <ele>2225</ele>
        <time>2021-12-20T11:58:42Z</time>
      </trkpt>
      <trkpt lat="45.1253" lon="5.91143">
        <ele>2227</ele>
        <time>2021-12-20T11:58:52Z</time>
      </trkpt>
      <trkpt lat="45.12533" lon="5.91137">
        <ele>2227</ele>
        <time>2021-12-20T11:59:00Z</time>
      </trkpt>
      <trkpt lat="45.12533" lon="5.91132">
        <ele>2227</ele>
        <time>2021-12-20T11:59:08Z</time>
      </trkpt>
      <trkpt lat="45.12534" lon="5.9113">
        <ele>2226</ele>
        <time>2021-12-20T11:59:12Z</time>
      </trkpt>
      <trkpt lat="45.12535" lon="5.91129">
        <ele>2227</ele>
        <time>2021-12-20T11:59:14Z</time>
      </trkpt>
      <trkpt lat="45.12535" lon="5.91128">
        <ele>2226</ele>
        <time>2021-12-20T11:59:16Z</time>
      </trkpt>
      <trkpt lat="45.12536" lon="5.91126">
        <ele>2226</ele>
        <time>2021-12-20T11:59:18Z</time>
      </trkpt>
      <trkpt lat="45.12538" lon="5.91118">
        <ele>2227</ele>
        <time>2021-12-20T11:59:26Z</time>
      </trkpt>
      <trkpt lat="45.1254" lon="5.91112">
        <ele>2228</ele>
        <time>2021-12-20T11:59:34Z</time>
      </trkpt>
      <trkpt lat="45.12541" lon="5.91104">
        <ele>2227</ele>
        <time>2021-12-20T11:59:42Z</time>
      </trkpt>
      <trkpt lat="45.12544" lon="5.91097">
        <ele>2228</ele>
        <time>2021-12-20T11:59:50Z</time>
      </trkpt>
      <trkpt lat="45.12544" lon="5.9109">
        <ele>2228</ele>
        <time>2021-12-20T11:59:56Z</time>
      </trkpt>
      <trkpt lat="45.12546" lon="5.91085">
        <ele>2228</ele>
        <time>2021-12-20T12:00:02Z</time>
      </trkpt>
      <trkpt lat="45.12548" lon="5.91078">
        <ele>2229</ele>
        <time>2021-12-20T12:00:08Z</time>
      </trkpt>
      <trkpt lat="45.1255" lon="5.91072">
        <ele>2229</ele>
        <time>2021-12-20T12:00:14Z</time>
      </trkpt>
      <trkpt lat="45.12553" lon="5.91066">
        <ele>2228</ele>
        <time>2021-12-20T12:00:22Z</time>
      </trkpt>
      <trkpt lat="45.12557" lon="5.91061">
        <ele>2228</ele>
        <time>2021-12-20T12:00:28Z</time>
      </trkpt>
      <trkpt lat="45.12561" lon="5.91056">
        <ele>2229</ele>
        <time>2021-12-20T12:00:36Z</time>
      </trkpt>
      <trkpt lat="45.12565" lon="5.91051">
        <ele>2230</ele>
        <time>2021-12-20T12:00:44Z</time>
      </trkpt>
      <trkpt lat="45.12567" lon="5.91044">
        <ele>2228</ele>
        <time>2021-12-20T12:00:52Z</time>
      </trkpt>
      <trkpt lat="45.1257" lon="5.91039">
        <ele>2230</ele>
        <time>2021-12-20T12:01:00Z</time>
      </trkpt>
      <trkpt lat="45.12573" lon="5.91033">
        <ele>2230</ele>
        <time>2021-12-20T12:01:08Z</time>
      </trkpt>
      <trkpt lat="45.12576" lon="5.91027">
        <ele>2231</ele>
        <time>2021-12-20T12:01:18Z</time>
      </trkpt>
      <trkpt lat="45.1258" lon="5.91021">
        <ele>2230</ele>
        <time>2021-12-20T12:01:26Z</time>
      </trkpt>
      <trkpt lat="45.12582" lon="5.91019">
        <ele>2229</ele>
        <time>2021-12-20T12:01:30Z</time>
      </trkpt>
      <trkpt lat="45.12582" lon="5.9102">
        <ele>2229</ele>
        <time>2021-12-20T12:01:32Z</time>
      </trkpt>
      <trkpt lat="45.12584" lon="5.91018">
        <ele>2229</ele>
        <time>2021-12-20T12:01:34Z</time>
      </trkpt>
      <trkpt lat="45.12589" lon="5.91013">
        <ele>2232</ele>
        <time>2021-12-20T12:01:46Z</time>
      </trkpt>
      <trkpt lat="45.12589" lon="5.91011">
        <ele>2233</ele>
        <time>2021-12-20T12:01:54Z</time>
      </trkpt>
      <trkpt lat="45.12588" lon="5.91012">
        <ele>2233</ele>
        <time>2021-12-20T12:02:02Z</time>
      </trkpt>
      <trkpt lat="45.1259" lon="5.91006">
        <ele>2233</ele>
        <time>2021-12-20T12:02:10Z</time>
      </trkpt>
      <trkpt lat="45.1259" lon="5.91">
        <ele>2233</ele>
        <time>2021-12-20T12:02:16Z</time>
      </trkpt>
      <trkpt lat="45.12591" lon="5.90993">
        <ele>2232</ele>
        <time>2021-12-20T12:02:22Z</time>
      </trkpt>
      <trkpt lat="45.12592" lon="5.90993">
        <ele>2231</ele>
        <time>2021-12-20T12:02:24Z</time>
      </trkpt>
      <trkpt lat="45.12593" lon="5.9099">
        <ele>2232</ele>
        <time>2021-12-20T12:02:26Z</time>
      </trkpt>
      <trkpt lat="45.12593" lon="5.90981">
        <ele>2232</ele>
        <time>2021-12-20T12:02:34Z</time>
      </trkpt>
      <trkpt lat="45.12591" lon="5.90974">
        <ele>2229</ele>
        <time>2021-12-20T12:02:40Z</time>
      </trkpt>
      <trkpt lat="45.12591" lon="5.90968">
        <ele>2228</ele>
        <time>2021-12-20T12:02:46Z</time>
      </trkpt>
      <trkpt lat="45.12591" lon="5.90961">
        <ele>2226</ele>
        <time>2021-12-20T12:02:52Z</time>
      </trkpt>
      <trkpt lat="45.1259" lon="5.90953">
        <ele>2225</ele>
        <time>2021-12-20T12:02:58Z</time>
      </trkpt>
      <trkpt lat="45.12591" lon="5.90947">
        <ele>2225</ele>
        <time>2021-12-20T12:03:04Z</time>
      </trkpt>
      <trkpt lat="45.12591" lon="5.9094">
        <ele>2225</ele>
        <time>2021-12-20T12:03:10Z</time>
      </trkpt>
      <trkpt lat="45.1259" lon="5.90933">
        <ele>2225</ele>
        <time>2021-12-20T12:03:18Z</time>
      </trkpt>
      <trkpt lat="45.1259" lon="5.90925">
        <ele>2225</ele>
        <time>2021-12-20T12:03:24Z</time>
      </trkpt>
      <trkpt lat="45.12591" lon="5.90919">
        <ele>2226</ele>
        <time>2021-12-20T12:03:30Z</time>
      </trkpt>
      <trkpt lat="45.12593" lon="5.90911">
        <ele>2227</ele>
        <time>2021-12-20T12:03:38Z</time>
      </trkpt>
      <trkpt lat="45.12597" lon="5.90907">
        <ele>2227</ele>
        <time>2021-12-20T12:03:44Z</time>
      </trkpt>
      <trkpt lat="45.12597" lon="5.909">
        <ele>2228</ele>
        <time>2021-12-20T12:03:50Z</time>
      </trkpt>
      <trkpt lat="45.12596" lon="5.90894">
        <ele>2228</ele>
        <time>2021-12-20T12:03:58Z</time>
      </trkpt>
      <trkpt lat="45.12595" lon="5.90887">
        <ele>2228</ele>
        <time>2021-12-20T12:04:06Z</time>
      </trkpt>
      <trkpt lat="45.12595" lon="5.90881">
        <ele>2228</ele>
        <time>2021-12-20T12:04:12Z</time>
      </trkpt>
      <trkpt lat="45.12596" lon="5.9088">
        <ele>2228</ele>
        <time>2021-12-20T12:04:14Z</time>
      </trkpt>
      <trkpt lat="45.12596" lon="5.90879">
        <ele>2229</ele>
        <time>2021-12-20T12:04:16Z</time>
      </trkpt>
      <trkpt lat="45.12596" lon="5.90872">
        <ele>2230</ele>
        <time>2021-12-20T12:04:26Z</time>
      </trkpt>
      <trkpt lat="45.12595" lon="5.90865">
        <ele>2232</ele>
        <time>2021-12-20T12:04:36Z</time>
      </trkpt>
      <trkpt lat="45.12595" lon="5.90858">
        <ele>2233</ele>
        <time>2021-12-20T12:04:44Z</time>
      </trkpt>
      <trkpt lat="45.12594" lon="5.90851">
        <ele>2234</ele>
        <time>2021-12-20T12:04:56Z</time>
      </trkpt>
      <trkpt lat="45.12593" lon="5.90844">
        <ele>2236</ele>
        <time>2021-12-20T12:05:04Z</time>
      </trkpt>
      <trkpt lat="45.12593" lon="5.90837">
        <ele>2238</ele>
        <time>2021-12-20T12:05:12Z</time>
      </trkpt>
      <trkpt lat="45.12593" lon="5.90831">
        <ele>2238</ele>
        <time>2021-12-20T12:05:22Z</time>
      </trkpt>
      <trkpt lat="45.12592" lon="5.90831">
        <ele>2239</ele>
        <time>2021-12-20T12:05:26Z</time>
      </trkpt>
      <trkpt lat="45.12592" lon="5.90832">
        <ele>2239</ele>
        <time>2021-12-20T12:05:28Z</time>
      </trkpt>
      <trkpt lat="45.12593" lon="5.9083">
        <ele>2239</ele>
        <time>2021-12-20T12:05:32Z</time>
      </trkpt>
      <trkpt lat="45.12593" lon="5.90823">
        <ele>2240</ele>
        <time>2021-12-20T12:05:40Z</time>
      </trkpt>
      <trkpt lat="45.12593" lon="5.90816">
        <ele>2242</ele>
        <time>2021-12-20T12:05:50Z</time>
      </trkpt>
      <trkpt lat="45.12595" lon="5.90809">
        <ele>2243</ele>
        <time>2021-12-20T12:05:58Z</time>
      </trkpt>
      <trkpt lat="45.12598" lon="5.90802">
        <ele>2245</ele>
        <time>2021-12-20T12:06:08Z</time>
      </trkpt>
      <trkpt lat="45.126" lon="5.90796">
        <ele>2246</ele>
        <time>2021-12-20T12:06:18Z</time>
      </trkpt>
      <trkpt lat="45.12603" lon="5.90789">
        <ele>2245</ele>
        <time>2021-12-20T12:06:28Z</time>
      </trkpt>
      <trkpt lat="45.12603" lon="5.90788">
        <ele>2245</ele>
        <time>2021-12-20T12:06:30Z</time>
      </trkpt>
      <trkpt lat="45.12603" lon="5.90787">
        <ele>2246</ele>
        <time>2021-12-20T12:06:32Z</time>
      </trkpt>
      <trkpt lat="45.12604" lon="5.90787">
        <ele>2245</ele>
        <time>2021-12-20T12:06:34Z</time>
      </trkpt>
      <trkpt lat="45.12604" lon="5.90786">
        <ele>2246</ele>
        <time>2021-12-20T12:06:36Z</time>
      </trkpt>
      <trkpt lat="45.12606" lon="5.90784">
        <ele>2247</ele>
        <time>2021-12-20T12:06:38Z</time>
      </trkpt>
      <trkpt lat="45.12606" lon="5.90782">
        <ele>2246</ele>
        <time>2021-12-20T12:06:40Z</time>
      </trkpt>
      <trkpt lat="45.12607" lon="5.90781">
        <ele>2247</ele>
        <time>2021-12-20T12:06:42Z</time>
      </trkpt>
      <trkpt lat="45.1261" lon="5.90775">
        <ele>2249</ele>
        <time>2021-12-20T12:06:54Z</time>
      </trkpt>
      <trkpt lat="45.1261" lon="5.90771">
        <ele>2249</ele>
        <time>2021-12-20T12:06:58Z</time>
      </trkpt>
      <trkpt lat="45.1261" lon="5.9077">
        <ele>2249</ele>
        <time>2021-12-20T12:07:00Z</time>
      </trkpt>
      <trkpt lat="45.12611" lon="5.90768">
        <ele>2249</ele>
        <time>2021-12-20T12:07:02Z</time>
      </trkpt>
      <trkpt lat="45.12612" lon="5.90766">
        <ele>2250</ele>
        <time>2021-12-20T12:07:06Z</time>
      </trkpt>
      <trkpt lat="45.12614" lon="5.9076">
        <ele>2251</ele>
        <time>2021-12-20T12:07:14Z</time>
      </trkpt>
      <trkpt lat="45.12616" lon="5.90753">
        <ele>2252</ele>
        <time>2021-12-20T12:07:20Z</time>
      </trkpt>
      <trkpt lat="45.12616" lon="5.90747">
        <ele>2255</ele>
        <time>2021-12-20T12:07:28Z</time>
      </trkpt>
      <trkpt lat="45.12614" lon="5.90739">
        <ele>2255</ele>
        <time>2021-12-20T12:07:36Z</time>
      </trkpt>
      <trkpt lat="45.12614" lon="5.90738">
        <ele>2255</ele>
        <time>2021-12-20T12:07:38Z</time>
      </trkpt>
      <trkpt lat="45.12614" lon="5.90736">
        <ele>2255</ele>
        <time>2021-12-20T12:07:40Z</time>
      </trkpt>
      <trkpt lat="45.12615" lon="5.90729">
        <ele>2257</ele>
        <time>2021-12-20T12:07:50Z</time>
      </trkpt>
      <trkpt lat="45.12615" lon="5.90722">
        <ele>2257</ele>
        <time>2021-12-20T12:07:58Z</time>
      </trkpt>
      <trkpt lat="45.12615" lon="5.90716">
        <ele>2258</ele>
        <time>2021-12-20T12:08:08Z</time>
      </trkpt>
      <trkpt lat="45.12614" lon="5.90708">
        <ele>2260</ele>
        <time>2021-12-20T12:08:18Z</time>
      </trkpt>
      <trkpt lat="45.12614" lon="5.90705">
        <ele>2260</ele>
        <time>2021-12-20T12:08:22Z</time>
      </trkpt>
      <trkpt lat="45.12614" lon="5.90704">
        <ele>2261</ele>
        <time>2021-12-20T12:08:24Z</time>
      </trkpt>
      <trkpt lat="45.12614" lon="5.90703">
        <ele>2261</ele>
        <time>2021-12-20T12:08:26Z</time>
      </trkpt>
      <trkpt lat="45.12611" lon="5.90697">
        <ele>2264</ele>
        <time>2021-12-20T12:08:38Z</time>
      </trkpt>
      <trkpt lat="45.12607" lon="5.90695">
        <ele>2265</ele>
        <time>2021-12-20T12:08:48Z</time>
      </trkpt>
      <trkpt lat="45.12605" lon="5.90689">
        <ele>2267</ele>
        <time>2021-12-20T12:09:02Z</time>
      </trkpt>
      <trkpt lat="45.12604" lon="5.90682">
        <ele>2269</ele>
        <time>2021-12-20T12:09:10Z</time>
      </trkpt>
      <trkpt lat="45.12602" lon="5.90679">
        <ele>2271</ele>
        <time>2021-12-20T12:09:24Z</time>
      </trkpt>
      <trkpt lat="45.12601" lon="5.90678">
        <ele>2271</ele>
        <time>2021-12-20T12:09:26Z</time>
      </trkpt>
      <trkpt lat="45.12601" lon="5.90677">
        <ele>2271</ele>
        <time>2021-12-20T12:09:28Z</time>
      </trkpt>
      <trkpt lat="45.126" lon="5.90673">
        <ele>2272</ele>
        <time>2021-12-20T12:09:34Z</time>
      </trkpt>
      <trkpt lat="45.126" lon="5.90672">
        <ele>2271</ele>
        <time>2021-12-20T12:09:36Z</time>
      </trkpt>
      <trkpt lat="45.12599" lon="5.90671">
        <ele>2273</ele>
        <time>2021-12-20T12:09:40Z</time>
      </trkpt>
      <trkpt lat="45.12598" lon="5.90665">
        <ele>2274</ele>
        <time>2021-12-20T12:09:48Z</time>
      </trkpt>
      <trkpt lat="45.12596" lon="5.90662">
        <ele>2276</ele>
        <time>2021-12-20T12:09:54Z</time>
      </trkpt>
      <trkpt lat="45.12593" lon="5.90655">
        <ele>2277</ele>
        <time>2021-12-20T12:10:08Z</time>
      </trkpt>
      <trkpt lat="45.1259" lon="5.9065">
        <ele>2280</ele>
        <time>2021-12-20T12:10:20Z</time>
      </trkpt>
      <trkpt lat="45.1259" lon="5.90649">
        <ele>2280</ele>
        <time>2021-12-20T12:10:22Z</time>
      </trkpt>
      <trkpt lat="45.12589" lon="5.90648">
        <ele>2280</ele>
        <time>2021-12-20T12:10:24Z</time>
      </trkpt>
      <trkpt lat="45.12589" lon="5.90646">
        <ele>2281</ele>
        <time>2021-12-20T12:10:26Z</time>
      </trkpt>
      <trkpt lat="45.12588" lon="5.90645">
        <ele>2280</ele>
        <time>2021-12-20T12:10:30Z</time>
      </trkpt>
      <trkpt lat="45.12587" lon="5.90644">
        <ele>2281</ele>
        <time>2021-12-20T12:10:32Z</time>
      </trkpt>
      <trkpt lat="45.12586" lon="5.90641">
        <ele>2281</ele>
        <time>2021-12-20T12:10:34Z</time>
      </trkpt>
      <trkpt lat="45.12584" lon="5.90634">
        <ele>2281</ele>
        <time>2021-12-20T12:10:48Z</time>
      </trkpt>
      <trkpt lat="45.12581" lon="5.90627">
        <ele>2283</ele>
        <time>2021-12-20T12:11:00Z</time>
      </trkpt>
      <trkpt lat="45.12579" lon="5.90621">
        <ele>2283</ele>
        <time>2021-12-20T12:11:12Z</time>
      </trkpt>
      <trkpt lat="45.12578" lon="5.90618">
        <ele>2284</ele>
        <time>2021-12-20T12:11:18Z</time>
      </trkpt>
      <trkpt lat="45.12577" lon="5.90616">
        <ele>2285</ele>
        <time>2021-12-20T12:11:26Z</time>
      </trkpt>
      <trkpt lat="45.12576" lon="5.90614">
        <ele>2285</ele>
        <time>2021-12-20T12:11:28Z</time>
      </trkpt>
      <trkpt lat="45.12575" lon="5.90613">
        <ele>2285</ele>
        <time>2021-12-20T12:11:30Z</time>
      </trkpt>
      <trkpt lat="45.12575" lon="5.90612">
        <ele>2285</ele>
        <time>2021-12-20T12:11:32Z</time>
      </trkpt>
      <trkpt lat="45.12573" lon="5.90605">
        <ele>2286</ele>
        <time>2021-12-20T12:11:44Z</time>
      </trkpt>
      <trkpt lat="45.1257" lon="5.90599">
        <ele>2287</ele>
        <time>2021-12-20T12:11:56Z</time>
      </trkpt>
      <trkpt lat="45.12568" lon="5.90593">
        <ele>2289</ele>
        <time>2021-12-20T12:12:08Z</time>
      </trkpt>
      <trkpt lat="45.12567" lon="5.90591">
        <ele>2290</ele>
        <time>2021-12-20T12:12:12Z</time>
      </trkpt>
      <trkpt lat="45.12566" lon="5.9059">
        <ele>2290</ele>
        <time>2021-12-20T12:12:14Z</time>
      </trkpt>
      <trkpt lat="45.12566" lon="5.90588">
        <ele>2290</ele>
        <time>2021-12-20T12:12:20Z</time>
      </trkpt>
      <trkpt lat="45.12562" lon="5.90582">
        <ele>2292</ele>
        <time>2021-12-20T12:12:28Z</time>
      </trkpt>
      <trkpt lat="45.12561" lon="5.90579">
        <ele>2293</ele>
        <time>2021-12-20T12:12:34Z</time>
      </trkpt>
      <trkpt lat="45.12561" lon="5.90578">
        <ele>2293</ele>
        <time>2021-12-20T12:12:36Z</time>
      </trkpt>
      <trkpt lat="45.12559" lon="5.90578">
        <ele>2293</ele>
        <time>2021-12-20T12:12:40Z</time>
      </trkpt>
      <trkpt lat="45.12559" lon="5.90576">
        <ele>2293</ele>
        <time>2021-12-20T12:12:42Z</time>
      </trkpt>
      <trkpt lat="45.12559" lon="5.90575">
        <ele>2295</ele>
        <time>2021-12-20T12:12:44Z</time>
      </trkpt>
      <trkpt lat="45.12559" lon="5.90574">
        <ele>2295</ele>
        <time>2021-12-20T12:12:46Z</time>
      </trkpt>
      <trkpt lat="45.12558" lon="5.90573">
        <ele>2295</ele>
        <time>2021-12-20T12:12:48Z</time>
      </trkpt>
      <trkpt lat="45.12558" lon="5.90572">
        <ele>2296</ele>
        <time>2021-12-20T12:12:50Z</time>
      </trkpt>
      <trkpt lat="45.12555" lon="5.90566">
        <ele>2297</ele>
        <time>2021-12-20T12:13:00Z</time>
      </trkpt>
      <trkpt lat="45.12553" lon="5.9056">
        <ele>2297</ele>
        <time>2021-12-20T12:13:08Z</time>
      </trkpt>
      <trkpt lat="45.12552" lon="5.90558">
        <ele>2298</ele>
        <time>2021-12-20T12:13:10Z</time>
      </trkpt>
      <trkpt lat="45.12552" lon="5.90557">
        <ele>2298</ele>
        <time>2021-12-20T12:13:12Z</time>
      </trkpt>
      <trkpt lat="45.1255" lon="5.90554">
        <ele>2299</ele>
        <time>2021-12-20T12:13:16Z</time>
      </trkpt>
      <trkpt lat="45.12549" lon="5.90546">
        <ele>2300</ele>
        <time>2021-12-20T12:13:24Z</time>
      </trkpt>
      <trkpt lat="45.12548" lon="5.90539">
        <ele>2300</ele>
        <time>2021-12-20T12:13:34Z</time>
      </trkpt>
      <trkpt lat="45.1255" lon="5.9053">
        <ele>2302</ele>
        <time>2021-12-20T12:13:42Z</time>
      </trkpt>
      <trkpt lat="45.12551" lon="5.90526">
        <ele>2302</ele>
        <time>2021-12-20T12:13:50Z</time>
      </trkpt>
      <trkpt lat="45.12552" lon="5.90527">
        <ele>2303</ele>
        <time>2021-12-20T12:13:56Z</time>
      </trkpt>
      <trkpt lat="45.12553" lon="5.90528">
        <ele>2305</ele>
        <time>2021-12-20T12:14:58Z</time>
      </trkpt>
      <trkpt lat="45.12552" lon="5.90528">
        <ele>2305</ele>
        <time>2021-12-20T12:15:00Z</time>
      </trkpt>
      <trkpt lat="45.12552" lon="5.90527">
        <ele>2304</ele>
        <time>2021-12-20T12:15:06Z</time>
      </trkpt>
      <trkpt lat="45.12553" lon="5.9052">
        <ele>2305</ele>
        <time>2021-12-20T12:15:10Z</time>
      </trkpt>
      <trkpt lat="45.12555" lon="5.90513">
        <ele>2305</ele>
        <time>2021-12-20T12:15:14Z</time>
      </trkpt>
      <trkpt lat="45.12557" lon="5.90505">
        <ele>2305</ele>
        <time>2021-12-20T12:15:18Z</time>
      </trkpt>
      <trkpt lat="45.1256" lon="5.90496">
        <ele>2304</ele>
        <time>2021-12-20T12:15:22Z</time>
      </trkpt>
      <trkpt lat="45.12563" lon="5.90489">
        <ele>2304</ele>
        <time>2021-12-20T12:15:28Z</time>
      </trkpt>
      <trkpt lat="45.12564" lon="5.90483">
        <ele>2305</ele>
        <time>2021-12-20T12:15:32Z</time>
      </trkpt>
      <trkpt lat="45.12566" lon="5.90476">
        <ele>2305</ele>
        <time>2021-12-20T12:15:38Z</time>
      </trkpt>
      <trkpt lat="45.12569" lon="5.9047">
        <ele>2305</ele>
        <time>2021-12-20T12:15:42Z</time>
      </trkpt>
      <trkpt lat="45.12571" lon="5.90463">
        <ele>2305</ele>
        <time>2021-12-20T12:15:48Z</time>
      </trkpt>
      <trkpt lat="45.12572" lon="5.90456">
        <ele>2304</ele>
        <time>2021-12-20T12:15:54Z</time>
      </trkpt>
      <trkpt lat="45.12573" lon="5.9045">
        <ele>2304</ele>
        <time>2021-12-20T12:16:00Z</time>
      </trkpt>
      <trkpt lat="45.12574" lon="5.90446">
        <ele>2304</ele>
        <time>2021-12-20T12:16:10Z</time>
      </trkpt>
      <trkpt lat="45.12574" lon="5.90445">
        <ele>2305</ele>
        <time>2021-12-20T12:16:12Z</time>
      </trkpt>
      <trkpt lat="45.12575" lon="5.90446">
        <ele>2305</ele>
        <time>2021-12-20T12:16:26Z</time>
      </trkpt>
      <trkpt lat="45.12575" lon="5.90445">
        <ele>2304</ele>
        <time>2021-12-20T12:16:34Z</time>
      </trkpt>
      <trkpt lat="45.12576" lon="5.90445">
        <ele>2304</ele>
        <time>2021-12-20T12:16:54Z</time>
      </trkpt>
      <trkpt lat="45.12575" lon="5.90445">
        <ele>2303</ele>
        <time>2021-12-20T12:17:16Z</time>
      </trkpt>
      <trkpt lat="45.12575" lon="5.90446">
        <ele>2304</ele>
        <time>2021-12-20T12:17:18Z</time>
      </trkpt>
      <trkpt lat="45.12575" lon="5.90447">
        <ele>2303</ele>
        <time>2021-12-20T12:17:22Z</time>
      </trkpt>
    </trkseg>
  </trk>
</gpx>